<?xml version="1.0" encoding="UTF-8" standalone="no" ?>
<gpx xmlns="http://www.topografix.com/GPX/1/1" xmlns:xsi="http://www.w3.org/2001/XMLSchema-instance" xsi:schemaLocation="http://www.topografix.com/GPX/1/1 http://www.topografix.com/GPX/1/1/gpx.xsd" version="1.1" creator="VisuGPX - https://www.visugpx.com">
  <metadata>
    <name>Trace du brevet 2019</name>
    <desc><![CDATA[Tracé du brevet du randonneur du CAF-CMC, édition 2019]]></desc>
  </metadata>
  <trk>
    <name><![CDATA[20190219224311-v9dhN]]></name>
    <trkseg>
      <trkpt lat="43.21177" lon="5.52173">
        <ele>16.6</ele>
        <time>2019-02-15T13:39:55.000Z</time>
      </trkpt>
      <trkpt lat="43.21164" lon="5.52149">
        <ele>16.6</ele>
        <time>2019-02-15T13:40:04.000Z</time>
      </trkpt>
      <trkpt lat="43.21155" lon="5.52125">
        <ele>15</ele>
        <time>2019-02-15T13:40:11.000Z</time>
      </trkpt>
      <trkpt lat="43.21144" lon="5.52104">
        <ele>12.8</ele>
        <time>2019-02-15T13:40:18.000Z</time>
      </trkpt>
      <trkpt lat="43.21127" lon="5.52089">
        <ele>11.2</ele>
        <time>2019-02-15T13:40:26.000Z</time>
      </trkpt>
      <trkpt lat="43.21124" lon="5.52089">
        <ele>10.8</ele>
        <time>2019-02-15T13:40:29.000Z</time>
      </trkpt>
      <trkpt lat="43.21111" lon="5.52072">
        <ele>9.6</ele>
        <time>2019-02-15T13:40:37.000Z</time>
      </trkpt>
      <trkpt lat="43.21097" lon="5.52055">
        <ele>8.4</ele>
        <time>2019-02-15T13:40:44.000Z</time>
      </trkpt>
      <trkpt lat="43.21082" lon="5.52039">
        <ele>7.4</ele>
        <time>2019-02-15T13:40:51.000Z</time>
      </trkpt>
      <trkpt lat="43.21067" lon="5.52022">
        <ele>6.6</ele>
        <time>2019-02-15T13:40:58.000Z</time>
      </trkpt>
      <trkpt lat="43.21052" lon="5.52005">
        <ele>6.2</ele>
        <time>2019-02-15T13:41:05.000Z</time>
      </trkpt>
      <trkpt lat="43.21036" lon="5.51989">
        <ele>5.6</ele>
        <time>2019-02-15T13:41:12.000Z</time>
      </trkpt>
      <trkpt lat="43.2102" lon="5.51975">
        <ele>5</ele>
        <time>2019-02-15T13:41:19.000Z</time>
      </trkpt>
      <trkpt lat="43.21005" lon="5.51956">
        <ele>4.6</ele>
        <time>2019-02-15T13:41:27.000Z</time>
      </trkpt>
      <trkpt lat="43.20992" lon="5.51936">
        <ele>4.6</ele>
        <time>2019-02-15T13:41:34.000Z</time>
      </trkpt>
      <trkpt lat="43.20979" lon="5.51916">
        <ele>4.4</ele>
        <time>2019-02-15T13:41:41.000Z</time>
      </trkpt>
      <trkpt lat="43.20966" lon="5.51896">
        <ele>4.4</ele>
        <time>2019-02-15T13:41:48.000Z</time>
      </trkpt>
      <trkpt lat="43.20953" lon="5.51876">
        <ele>5</ele>
        <time>2019-02-15T13:41:55.000Z</time>
      </trkpt>
      <trkpt lat="43.20941" lon="5.51856">
        <ele>7</ele>
        <time>2019-02-15T13:42:02.000Z</time>
      </trkpt>
      <trkpt lat="43.20929" lon="5.51838">
        <ele>8</ele>
        <time>2019-02-15T13:42:15.000Z</time>
      </trkpt>
      <trkpt lat="43.20915" lon="5.51821">
        <ele>9</ele>
        <time>2019-02-15T13:42:39.000Z</time>
      </trkpt>
      <trkpt lat="43.20902" lon="5.51805">
        <ele>6.6</ele>
        <time>2019-02-15T13:43:00.000Z</time>
      </trkpt>
      <trkpt lat="43.20892" lon="5.51784">
        <ele>4.2</ele>
        <time>2019-02-15T13:43:19.000Z</time>
      </trkpt>
      <trkpt lat="43.20889" lon="5.51773">
        <ele>3</ele>
        <time>2019-02-15T13:43:28.000Z</time>
      </trkpt>
      <trkpt lat="43.2088" lon="5.51751">
        <ele>3</ele>
        <time>2019-02-15T13:43:35.000Z</time>
      </trkpt>
      <trkpt lat="43.20865" lon="5.51731">
        <ele>5.6</ele>
        <time>2019-02-15T13:43:42.000Z</time>
      </trkpt>
      <trkpt lat="43.20853" lon="5.51708">
        <ele>8.6</ele>
        <time>2019-02-15T13:43:49.000Z</time>
      </trkpt>
      <trkpt lat="43.20838" lon="5.51692">
        <ele>9.8</ele>
        <time>2019-02-15T13:43:55.000Z</time>
      </trkpt>
      <trkpt lat="43.20825" lon="5.51674">
        <ele>10</ele>
        <time>2019-02-15T13:44:01.000Z</time>
      </trkpt>
      <trkpt lat="43.20812" lon="5.51653">
        <ele>9.4</ele>
        <time>2019-02-15T13:44:08.000Z</time>
      </trkpt>
      <trkpt lat="43.20801" lon="5.5163">
        <ele>8.8</ele>
        <time>2019-02-15T13:44:15.000Z</time>
      </trkpt>
      <trkpt lat="43.2079" lon="5.51608">
        <ele>8.2</ele>
        <time>2019-02-15T13:44:22.000Z</time>
      </trkpt>
      <trkpt lat="43.2078" lon="5.51586">
        <ele>12.4</ele>
        <time>2019-02-15T13:44:29.000Z</time>
      </trkpt>
      <trkpt lat="43.20767" lon="5.51566">
        <ele>14.6</ele>
        <time>2019-02-15T13:44:36.000Z</time>
      </trkpt>
      <trkpt lat="43.20753" lon="5.51545">
        <ele>15.4</ele>
        <time>2019-02-15T13:44:43.000Z</time>
      </trkpt>
      <trkpt lat="43.20742" lon="5.51522">
        <ele>18</ele>
        <time>2019-02-15T13:44:50.000Z</time>
      </trkpt>
      <trkpt lat="43.20729" lon="5.51501">
        <ele>18.6</ele>
        <time>2019-02-15T13:44:57.000Z</time>
      </trkpt>
      <trkpt lat="43.20713" lon="5.51488">
        <ele>16.4</ele>
        <time>2019-02-15T13:45:05.000Z</time>
      </trkpt>
      <trkpt lat="43.20695" lon="5.51479">
        <ele>16.4</ele>
        <time>2019-02-15T13:45:14.000Z</time>
      </trkpt>
      <trkpt lat="43.20677" lon="5.5147">
        <ele>15.8</ele>
        <time>2019-02-15T13:45:26.000Z</time>
      </trkpt>
      <trkpt lat="43.20659" lon="5.51465">
        <ele>19</ele>
        <time>2019-02-15T13:45:41.000Z</time>
      </trkpt>
      <trkpt lat="43.20641" lon="5.51455">
        <ele>24.8</ele>
        <time>2019-02-15T13:45:56.000Z</time>
      </trkpt>
      <trkpt lat="43.20627" lon="5.51438">
        <ele>26.2</ele>
        <time>2019-02-15T13:46:11.000Z</time>
      </trkpt>
      <trkpt lat="43.20612" lon="5.51424">
        <ele>30</ele>
        <time>2019-02-15T13:46:25.000Z</time>
      </trkpt>
      <trkpt lat="43.20598" lon="5.51406">
        <ele>35</ele>
        <time>2019-02-15T13:46:33.000Z</time>
      </trkpt>
      <trkpt lat="43.20585" lon="5.51385">
        <ele>37.2</ele>
        <time>2019-02-15T13:46:41.000Z</time>
      </trkpt>
      <trkpt lat="43.20579" lon="5.51361">
        <ele>38.6</ele>
        <time>2019-02-15T13:46:49.000Z</time>
      </trkpt>
      <trkpt lat="43.20581" lon="5.51337">
        <ele>40.6</ele>
        <time>2019-02-15T13:46:57.000Z</time>
      </trkpt>
      <trkpt lat="43.20593" lon="5.51318">
        <ele>41.4</ele>
        <time>2019-02-15T13:47:04.000Z</time>
      </trkpt>
      <trkpt lat="43.20599" lon="5.51294">
        <ele>44</ele>
        <time>2019-02-15T13:47:12.000Z</time>
      </trkpt>
      <trkpt lat="43.20597" lon="5.51274">
        <ele>43.6</ele>
        <time>2019-02-15T13:47:23.000Z</time>
      </trkpt>
      <trkpt lat="43.20592" lon="5.51249">
        <ele>46.6</ele>
        <time>2019-02-15T13:47:34.000Z</time>
      </trkpt>
      <trkpt lat="43.20587" lon="5.51235">
        <ele>47.6</ele>
        <time>2019-02-15T13:47:41.000Z</time>
      </trkpt>
      <trkpt lat="43.20575" lon="5.51214">
        <ele>48</ele>
        <time>2019-02-15T13:47:50.000Z</time>
      </trkpt>
      <trkpt lat="43.20561" lon="5.51195">
        <ele>48</ele>
        <time>2019-02-15T13:47:59.000Z</time>
      </trkpt>
      <trkpt lat="43.20554" lon="5.51187">
        <ele>48.2</ele>
        <time>2019-02-15T13:48:04.000Z</time>
      </trkpt>
      <trkpt lat="43.20535" lon="5.5118">
        <ele>44</ele>
        <time>2019-02-15T13:48:13.000Z</time>
      </trkpt>
      <trkpt lat="43.20529" lon="5.51169">
        <ele>42</ele>
        <time>2019-02-15T13:48:20.000Z</time>
      </trkpt>
      <trkpt lat="43.20511" lon="5.51167">
        <ele>36.6</ele>
        <time>2019-02-15T13:48:31.000Z</time>
      </trkpt>
      <trkpt lat="43.20493" lon="5.51163">
        <ele>33</ele>
        <time>2019-02-15T13:48:42.000Z</time>
      </trkpt>
      <trkpt lat="43.20475" lon="5.51161">
        <ele>30.8</ele>
        <time>2019-02-15T13:48:54.000Z</time>
      </trkpt>
      <trkpt lat="43.20465" lon="5.51162">
        <ele>31.4</ele>
        <time>2019-02-15T13:49:00.000Z</time>
      </trkpt>
      <trkpt lat="43.20459" lon="5.51161">
        <ele>29.4</ele>
        <time>2019-02-15T13:49:04.000Z</time>
      </trkpt>
      <trkpt lat="43.20442" lon="5.51168">
        <ele>27.8</ele>
        <time>2019-02-15T13:49:16.000Z</time>
      </trkpt>
      <trkpt lat="43.20441" lon="5.51168">
        <ele>27.4</ele>
        <time>2019-02-15T13:49:17.000Z</time>
      </trkpt>
      <trkpt lat="43.20438" lon="5.51145">
        <ele>20</ele>
        <time>2019-02-15T13:49:41.000Z</time>
      </trkpt>
      <trkpt lat="43.20428" lon="5.51125">
        <ele>12.2</ele>
        <time>2019-02-15T13:50:00.000Z</time>
      </trkpt>
      <trkpt lat="43.20421" lon="5.51101">
        <ele>3.2</ele>
        <time>2019-02-15T13:50:20.000Z</time>
      </trkpt>
      <trkpt lat="43.2042" lon="5.51099">
        <ele>3</ele>
        <time>2019-02-15T13:50:21.000Z</time>
      </trkpt>
      <trkpt lat="43.2041" lon="5.51091">
        <ele>0.6</ele>
        <time>2019-02-15T13:50:28.000Z</time>
      </trkpt>
      <trkpt lat="43.20408" lon="5.51081">
        <ele>3</ele>
        <time>2019-02-15T13:50:34.000Z</time>
      </trkpt>
      <trkpt lat="43.20407" lon="5.5108">
        <ele>15.2</ele>
        <time>2019-02-15T13:50:36.000Z</time>
      </trkpt>
      <trkpt lat="43.20406" lon="5.51078">
        <ele>15.3</ele>
        <time>2019-02-15T13:50:39.000Z</time>
      </trkpt>
      <trkpt lat="43.20403" lon="5.51062">
        <ele>15.7</ele>
        <time>2019-02-15T13:51:32.000Z</time>
      </trkpt>
      <trkpt lat="43.20388" lon="5.51049">
        <ele>15.9</ele>
        <time>2019-02-15T13:52:02.000Z</time>
      </trkpt>
      <trkpt lat="43.20384" lon="5.51053">
        <ele>15.8</ele>
        <time>2019-02-15T13:52:06.000Z</time>
      </trkpt>
      <trkpt lat="43.2038" lon="5.51054">
        <ele>15.7</ele>
        <time>2019-02-15T13:52:10.000Z</time>
      </trkpt>
      <trkpt lat="43.2038" lon="5.51054">
        <ele>15.6</ele>
        <time>2019-02-15T13:52:12.000Z</time>
      </trkpt>
      <trkpt lat="43.20376" lon="5.51056">
        <ele>15.5</ele>
        <time>2019-02-15T13:52:18.000Z</time>
      </trkpt>
      <trkpt lat="43.20374" lon="5.51053">
        <ele>15.6</ele>
        <time>2019-02-15T13:52:21.000Z</time>
      </trkpt>
      <trkpt lat="43.2036" lon="5.51039">
        <ele>5.2</ele>
        <time>2019-02-15T13:52:41.000Z</time>
      </trkpt>
      <trkpt lat="43.20351" lon="5.5102">
        <ele>12</ele>
        <time>2019-02-15T13:53:02.000Z</time>
      </trkpt>
      <trkpt lat="43.20353" lon="5.51007">
        <ele>13.2</ele>
        <time>2019-02-15T13:53:13.000Z</time>
      </trkpt>
      <trkpt lat="43.20349" lon="5.50987">
        <ele>24.8</ele>
        <time>2019-02-15T13:53:42.000Z</time>
      </trkpt>
      <trkpt lat="43.2035" lon="5.50986">
        <ele>25.2</ele>
        <time>2019-02-15T13:53:43.000Z</time>
      </trkpt>
      <trkpt lat="43.20351" lon="5.50983">
        <ele>26.2</ele>
        <time>2019-02-15T13:53:46.000Z</time>
      </trkpt>
      <trkpt lat="43.2035" lon="5.50977">
        <ele>27.4</ele>
        <time>2019-02-15T13:53:49.000Z</time>
      </trkpt>
      <trkpt lat="43.20355" lon="5.5097">
        <ele>28.8</ele>
        <time>2019-02-15T13:53:54.000Z</time>
      </trkpt>
      <trkpt lat="43.20357" lon="5.50952">
        <ele>29.8</ele>
        <time>2019-02-15T13:54:06.000Z</time>
      </trkpt>
      <trkpt lat="43.20356" lon="5.50951">
        <ele>30.4</ele>
        <time>2019-02-15T13:54:08.000Z</time>
      </trkpt>
      <trkpt lat="43.20355" lon="5.50926">
        <ele>37.2</ele>
        <time>2019-02-15T13:54:24.000Z</time>
      </trkpt>
      <trkpt lat="43.20352" lon="5.5092">
        <ele>38.2</ele>
        <time>2019-02-15T13:54:28.000Z</time>
      </trkpt>
      <trkpt lat="43.2035" lon="5.5091">
        <ele>40</ele>
        <time>2019-02-15T13:54:36.000Z</time>
      </trkpt>
      <trkpt lat="43.20344" lon="5.50903">
        <ele>47</ele>
        <time>2019-02-15T13:54:51.000Z</time>
      </trkpt>
      <trkpt lat="43.20336" lon="5.50879">
        <ele>43.6</ele>
        <time>2019-02-15T13:55:04.000Z</time>
      </trkpt>
      <trkpt lat="43.20326" lon="5.50859">
        <ele>48.4</ele>
        <time>2019-02-15T13:55:15.000Z</time>
      </trkpt>
      <trkpt lat="43.20326" lon="5.50857">
        <ele>50.8</ele>
        <time>2019-02-15T13:55:18.000Z</time>
      </trkpt>
      <trkpt lat="43.20319" lon="5.50857">
        <ele>53.8</ele>
        <time>2019-02-15T13:55:25.000Z</time>
      </trkpt>
      <trkpt lat="43.20313" lon="5.5086">
        <ele>53.6</ele>
        <time>2019-02-15T13:55:29.000Z</time>
      </trkpt>
      <trkpt lat="43.20294" lon="5.50861">
        <ele>49</ele>
        <time>2019-02-15T13:55:37.000Z</time>
      </trkpt>
      <trkpt lat="43.20286" lon="5.50852">
        <ele>49.2</ele>
        <time>2019-02-15T13:55:44.000Z</time>
      </trkpt>
      <trkpt lat="43.20283" lon="5.50851">
        <ele>48.6</ele>
        <time>2019-02-15T13:55:47.000Z</time>
      </trkpt>
      <trkpt lat="43.20279" lon="5.50848">
        <ele>46.8</ele>
        <time>2019-02-15T13:55:51.000Z</time>
      </trkpt>
      <trkpt lat="43.20277" lon="5.50846">
        <ele>46.4</ele>
        <time>2019-02-15T13:55:53.000Z</time>
      </trkpt>
      <trkpt lat="43.20275" lon="5.50844">
        <ele>46.6</ele>
        <time>2019-02-15T13:55:55.000Z</time>
      </trkpt>
      <trkpt lat="43.20274" lon="5.50842">
        <ele>46</ele>
        <time>2019-02-15T13:55:57.000Z</time>
      </trkpt>
      <trkpt lat="43.2027" lon="5.50836">
        <ele>44</ele>
        <time>2019-02-15T13:56:02.000Z</time>
      </trkpt>
      <trkpt lat="43.20259" lon="5.50818">
        <ele>42.6</ele>
        <time>2019-02-15T13:56:09.000Z</time>
      </trkpt>
      <trkpt lat="43.20258" lon="5.50809">
        <ele>40.2</ele>
        <time>2019-02-15T13:56:13.000Z</time>
      </trkpt>
      <trkpt lat="43.20242" lon="5.50796">
        <ele>40</ele>
        <time>2019-02-15T13:56:23.000Z</time>
      </trkpt>
      <trkpt lat="43.20224" lon="5.508">
        <ele>45.4</ele>
        <time>2019-02-15T13:56:34.000Z</time>
      </trkpt>
      <trkpt lat="43.20221" lon="5.508">
        <ele>46</ele>
        <time>2019-02-15T13:56:36.000Z</time>
      </trkpt>
      <trkpt lat="43.20216" lon="5.50799">
        <ele>43.4</ele>
        <time>2019-02-15T13:56:40.000Z</time>
      </trkpt>
      <trkpt lat="43.20211" lon="5.50799">
        <ele>42</ele>
        <time>2019-02-15T13:56:44.000Z</time>
      </trkpt>
      <trkpt lat="43.20209" lon="5.508">
        <ele>41.6</ele>
        <time>2019-02-15T13:56:46.000Z</time>
      </trkpt>
      <trkpt lat="43.20201" lon="5.50803">
        <ele>39.4</ele>
        <time>2019-02-15T13:56:51.000Z</time>
      </trkpt>
      <trkpt lat="43.20185" lon="5.50786">
        <ele>37</ele>
        <time>2019-02-15T13:56:59.000Z</time>
      </trkpt>
      <trkpt lat="43.20172" lon="5.50768">
        <ele>39</ele>
        <time>2019-02-15T13:57:07.000Z</time>
      </trkpt>
      <trkpt lat="43.20158" lon="5.50751">
        <ele>43</ele>
        <time>2019-02-15T13:57:18.000Z</time>
      </trkpt>
      <trkpt lat="43.20148" lon="5.50728">
        <ele>43</ele>
        <time>2019-02-15T13:57:27.000Z</time>
      </trkpt>
      <trkpt lat="43.20134" lon="5.50713">
        <ele>44.2</ele>
        <time>2019-02-15T13:57:37.000Z</time>
      </trkpt>
      <trkpt lat="43.20128" lon="5.50706">
        <ele>44.2</ele>
        <time>2019-02-15T13:57:43.000Z</time>
      </trkpt>
      <trkpt lat="43.20113" lon="5.50694">
        <ele>41.6</ele>
        <time>2019-02-15T13:57:55.000Z</time>
      </trkpt>
      <trkpt lat="43.20109" lon="5.50685">
        <ele>39</ele>
        <time>2019-02-15T13:58:04.000Z</time>
      </trkpt>
      <trkpt lat="43.20091" lon="5.50695">
        <ele>33.4</ele>
        <time>2019-02-15T13:58:15.000Z</time>
      </trkpt>
      <trkpt lat="43.20086" lon="5.50698">
        <ele>31.8</ele>
        <time>2019-02-15T13:58:19.000Z</time>
      </trkpt>
      <trkpt lat="43.20068" lon="5.50704">
        <ele>28</ele>
        <time>2019-02-15T13:58:29.000Z</time>
      </trkpt>
      <trkpt lat="43.20061" lon="5.50703">
        <ele>26</ele>
        <time>2019-02-15T13:58:33.000Z</time>
      </trkpt>
      <trkpt lat="43.20045" lon="5.5069">
        <ele>22</ele>
        <time>2019-02-15T13:58:45.000Z</time>
      </trkpt>
      <trkpt lat="43.20035" lon="5.5068">
        <ele>19.8</ele>
        <time>2019-02-15T13:58:53.000Z</time>
      </trkpt>
      <trkpt lat="43.20031" lon="5.50678">
        <ele>19</ele>
        <time>2019-02-15T13:58:56.000Z</time>
      </trkpt>
      <trkpt lat="43.20026" lon="5.50659">
        <ele>23.6</ele>
        <time>2019-02-15T13:59:07.000Z</time>
      </trkpt>
      <trkpt lat="43.20015" lon="5.50637">
        <ele>34.2</ele>
        <time>2019-02-15T13:59:19.000Z</time>
      </trkpt>
      <trkpt lat="43.20015" lon="5.50634">
        <ele>34.8</ele>
        <time>2019-02-15T13:59:21.000Z</time>
      </trkpt>
      <trkpt lat="43.20016" lon="5.5063">
        <ele>36</ele>
        <time>2019-02-15T13:59:25.000Z</time>
      </trkpt>
      <trkpt lat="43.20011" lon="5.50609">
        <ele>43.2</ele>
        <time>2019-02-15T13:59:40.000Z</time>
      </trkpt>
      <trkpt lat="43.20011" lon="5.50605">
        <ele>43.2</ele>
        <time>2019-02-15T13:59:43.000Z</time>
      </trkpt>
      <trkpt lat="43.20014" lon="5.50604">
        <ele>43.8</ele>
        <time>2019-02-15T13:59:47.000Z</time>
      </trkpt>
      <trkpt lat="43.20014" lon="5.50583">
        <ele>48.6</ele>
        <time>2019-02-15T14:00:04.000Z</time>
      </trkpt>
      <trkpt lat="43.20023" lon="5.50576">
        <ele>49.2</ele>
        <time>2019-02-15T14:00:12.000Z</time>
      </trkpt>
      <trkpt lat="43.20022" lon="5.50569">
        <ele>50</ele>
        <time>2019-02-15T14:00:16.000Z</time>
      </trkpt>
      <trkpt lat="43.20031" lon="5.50556">
        <ele>53</ele>
        <time>2019-02-15T14:00:30.000Z</time>
      </trkpt>
      <trkpt lat="43.20046" lon="5.5054">
        <ele>59.4</ele>
        <time>2019-02-15T14:00:47.000Z</time>
      </trkpt>
      <trkpt lat="43.20057" lon="5.50519">
        <ele>63.8</ele>
        <time>2019-02-15T14:00:59.000Z</time>
      </trkpt>
      <trkpt lat="43.20068" lon="5.50504">
        <ele>65.6</ele>
        <time>2019-02-15T14:01:10.000Z</time>
      </trkpt>
      <trkpt lat="43.20071" lon="5.50493">
        <ele>62.8</ele>
        <time>2019-02-15T14:01:19.000Z</time>
      </trkpt>
      <trkpt lat="43.20077" lon="5.50467">
        <ele>59</ele>
        <time>2019-02-15T14:01:31.000Z</time>
      </trkpt>
      <trkpt lat="43.20082" lon="5.50443">
        <ele>62.8</ele>
        <time>2019-02-15T14:01:41.000Z</time>
      </trkpt>
      <trkpt lat="43.20083" lon="5.50419">
        <ele>64.4</ele>
        <time>2019-02-15T14:01:52.000Z</time>
      </trkpt>
      <trkpt lat="43.20095" lon="5.504">
        <ele>71.2</ele>
        <time>2019-02-15T14:02:06.000Z</time>
      </trkpt>
      <trkpt lat="43.2011" lon="5.50388">
        <ele>76.4</ele>
        <time>2019-02-15T14:02:28.000Z</time>
      </trkpt>
      <trkpt lat="43.20121" lon="5.50369">
        <ele>78.6</ele>
        <time>2019-02-15T14:02:40.000Z</time>
      </trkpt>
      <trkpt lat="43.20136" lon="5.50353">
        <ele>85.6</ele>
        <time>2019-02-15T14:02:53.000Z</time>
      </trkpt>
      <trkpt lat="43.20147" lon="5.50335">
        <ele>89.4</ele>
        <time>2019-02-15T14:03:05.000Z</time>
      </trkpt>
      <trkpt lat="43.20146" lon="5.5032">
        <ele>90.2</ele>
        <time>2019-02-15T14:03:11.000Z</time>
      </trkpt>
      <trkpt lat="43.20149" lon="5.50309">
        <ele>91</ele>
        <time>2019-02-15T14:03:19.000Z</time>
      </trkpt>
      <trkpt lat="43.20151" lon="5.50304">
        <ele>91.6</ele>
        <time>2019-02-15T14:03:23.000Z</time>
      </trkpt>
      <trkpt lat="43.20152" lon="5.50288">
        <ele>93.8</ele>
        <time>2019-02-15T14:03:31.000Z</time>
      </trkpt>
      <trkpt lat="43.2016" lon="5.50273">
        <ele>96.6</ele>
        <time>2019-02-15T14:04:17.000Z</time>
      </trkpt>
      <trkpt lat="43.20168" lon="5.5025">
        <ele>99.6</ele>
        <time>2019-02-15T14:04:29.000Z</time>
      </trkpt>
      <trkpt lat="43.2018" lon="5.50233">
        <ele>102.6</ele>
        <time>2019-02-15T14:04:40.000Z</time>
      </trkpt>
      <trkpt lat="43.20195" lon="5.50218">
        <ele>108.8</ele>
        <time>2019-02-15T14:04:54.000Z</time>
      </trkpt>
      <trkpt lat="43.20198" lon="5.50215">
        <ele>109</ele>
        <time>2019-02-15T14:04:57.000Z</time>
      </trkpt>
      <trkpt lat="43.20205" lon="5.50191">
        <ele>110.6</ele>
        <time>2019-02-15T14:05:09.000Z</time>
      </trkpt>
      <trkpt lat="43.20206" lon="5.5019">
        <ele>110.6</ele>
        <time>2019-02-15T14:05:11.000Z</time>
      </trkpt>
      <trkpt lat="43.20216" lon="5.50172">
        <ele>111.8</ele>
        <time>2019-02-15T14:05:25.000Z</time>
      </trkpt>
      <trkpt lat="43.20211" lon="5.50158">
        <ele>114.2</ele>
        <time>2019-02-15T14:05:34.000Z</time>
      </trkpt>
      <trkpt lat="43.20212" lon="5.50151">
        <ele>113.4</ele>
        <time>2019-02-15T14:05:38.000Z</time>
      </trkpt>
      <trkpt lat="43.2021" lon="5.50146">
        <ele>112</ele>
        <time>2019-02-15T14:05:43.000Z</time>
      </trkpt>
      <trkpt lat="43.20217" lon="5.5015">
        <ele>115.4</ele>
        <time>2019-02-15T14:06:59.000Z</time>
      </trkpt>
      <trkpt lat="43.20232" lon="5.50155">
        <ele>115.2</ele>
        <time>2019-02-15T14:07:30.000Z</time>
      </trkpt>
      <trkpt lat="43.2025" lon="5.50161">
        <ele>119.2</ele>
        <time>2019-02-15T14:07:45.000Z</time>
      </trkpt>
      <trkpt lat="43.20268" lon="5.50152">
        <ele>120.8</ele>
        <time>2019-02-15T14:07:55.000Z</time>
      </trkpt>
      <trkpt lat="43.20286" lon="5.50146">
        <ele>122.4</ele>
        <time>2019-02-15T14:08:06.000Z</time>
      </trkpt>
      <trkpt lat="43.20305" lon="5.50139">
        <ele>124.6</ele>
        <time>2019-02-15T14:08:15.000Z</time>
      </trkpt>
      <trkpt lat="43.20322" lon="5.50132">
        <ele>128.6</ele>
        <time>2019-02-15T14:08:27.000Z</time>
      </trkpt>
      <trkpt lat="43.20339" lon="5.5012">
        <ele>128.8</ele>
        <time>2019-02-15T14:08:37.000Z</time>
      </trkpt>
      <trkpt lat="43.20341" lon="5.50117">
        <ele>129</ele>
        <time>2019-02-15T14:08:39.000Z</time>
      </trkpt>
      <trkpt lat="43.20344" lon="5.50112">
        <ele>128.4</ele>
        <time>2019-02-15T14:08:42.000Z</time>
      </trkpt>
      <trkpt lat="43.20346" lon="5.50108">
        <ele>129.2</ele>
        <time>2019-02-15T14:08:45.000Z</time>
      </trkpt>
      <trkpt lat="43.20345" lon="5.50083">
        <ele>128</ele>
        <time>2019-02-15T14:08:58.000Z</time>
      </trkpt>
      <trkpt lat="43.20343" lon="5.50073">
        <ele>127.6</ele>
        <time>2019-02-15T14:09:02.000Z</time>
      </trkpt>
      <trkpt lat="43.20333" lon="5.50052">
        <ele>126.4</ele>
        <time>2019-02-15T14:09:10.000Z</time>
      </trkpt>
      <trkpt lat="43.20341" lon="5.50032">
        <ele>127.6</ele>
        <time>2019-02-15T14:09:21.000Z</time>
      </trkpt>
      <trkpt lat="43.20352" lon="5.50027">
        <ele>131.4</ele>
        <time>2019-02-15T14:09:29.000Z</time>
      </trkpt>
      <trkpt lat="43.20354" lon="5.50025">
        <ele>132</ele>
        <time>2019-02-15T14:09:32.000Z</time>
      </trkpt>
      <trkpt lat="43.20351" lon="5.50023">
        <ele>131.4</ele>
        <time>2019-02-15T14:09:35.000Z</time>
      </trkpt>
      <trkpt lat="43.20348" lon="5.50017">
        <ele>130.6</ele>
        <time>2019-02-15T14:09:39.000Z</time>
      </trkpt>
      <trkpt lat="43.20361" lon="5.49998">
        <ele>130.2</ele>
        <time>2019-02-15T14:09:48.000Z</time>
      </trkpt>
      <trkpt lat="43.20369" lon="5.49978">
        <ele>129.2</ele>
        <time>2019-02-15T14:09:58.000Z</time>
      </trkpt>
      <trkpt lat="43.20377" lon="5.49955">
        <ele>126.6</ele>
        <time>2019-02-15T14:10:07.000Z</time>
      </trkpt>
      <trkpt lat="43.20388" lon="5.49934">
        <ele>129</ele>
        <time>2019-02-15T14:10:18.000Z</time>
      </trkpt>
      <trkpt lat="43.20386" lon="5.4991">
        <ele>131.8</ele>
        <time>2019-02-15T14:10:30.000Z</time>
      </trkpt>
      <trkpt lat="43.20388" lon="5.49885">
        <ele>135.2</ele>
        <time>2019-02-15T14:10:42.000Z</time>
      </trkpt>
      <trkpt lat="43.20386" lon="5.49871">
        <ele>136.4</ele>
        <time>2019-02-15T14:10:49.000Z</time>
      </trkpt>
      <trkpt lat="43.20388" lon="5.49854">
        <ele>137.4</ele>
        <time>2019-02-15T14:11:52.000Z</time>
      </trkpt>
      <trkpt lat="43.20392" lon="5.49856">
        <ele>137.6</ele>
        <time>2019-02-15T14:11:55.000Z</time>
      </trkpt>
      <trkpt lat="43.2041" lon="5.49848">
        <ele>139.4</ele>
        <time>2019-02-15T14:12:06.000Z</time>
      </trkpt>
      <trkpt lat="43.20417" lon="5.49847">
        <ele>140.4</ele>
        <time>2019-02-15T14:12:11.000Z</time>
      </trkpt>
      <trkpt lat="43.20425" lon="5.49845">
        <ele>140.4</ele>
        <time>2019-02-15T14:12:20.000Z</time>
      </trkpt>
      <trkpt lat="43.20434" lon="5.49865">
        <ele>142.2</ele>
        <time>2019-02-15T14:12:42.000Z</time>
      </trkpt>
      <trkpt lat="43.20438" lon="5.49889">
        <ele>140.6</ele>
        <time>2019-02-15T14:12:50.000Z</time>
      </trkpt>
      <trkpt lat="43.20437" lon="5.49915">
        <ele>138.8</ele>
        <time>2019-02-15T14:12:57.000Z</time>
      </trkpt>
      <trkpt lat="43.20436" lon="5.49943">
        <ele>138.4</ele>
        <time>2019-02-15T14:13:04.000Z</time>
      </trkpt>
      <trkpt lat="43.20438" lon="5.4997">
        <ele>139.6</ele>
        <time>2019-02-15T14:13:11.000Z</time>
      </trkpt>
      <trkpt lat="43.20451" lon="5.49991">
        <ele>139.4</ele>
        <time>2019-02-15T14:13:19.000Z</time>
      </trkpt>
      <trkpt lat="43.20466" lon="5.50009">
        <ele>138</ele>
        <time>2019-02-15T14:13:27.000Z</time>
      </trkpt>
      <trkpt lat="43.20481" lon="5.50028">
        <ele>139.6</ele>
        <time>2019-02-15T14:13:35.000Z</time>
      </trkpt>
      <trkpt lat="43.20489" lon="5.50052">
        <ele>141.6</ele>
        <time>2019-02-15T14:13:42.000Z</time>
      </trkpt>
      <trkpt lat="43.20495" lon="5.50076">
        <ele>143.4</ele>
        <time>2019-02-15T14:13:49.000Z</time>
      </trkpt>
      <trkpt lat="43.20494" lon="5.50101">
        <ele>145.4</ele>
        <time>2019-02-15T14:13:56.000Z</time>
      </trkpt>
      <trkpt lat="43.20497" lon="5.50127">
        <ele>147.2</ele>
        <time>2019-02-15T14:14:04.000Z</time>
      </trkpt>
      <trkpt lat="43.20508" lon="5.50146">
        <ele>147.2</ele>
        <time>2019-02-15T14:14:12.000Z</time>
      </trkpt>
      <trkpt lat="43.20524" lon="5.50162">
        <ele>147</ele>
        <time>2019-02-15T14:14:21.000Z</time>
      </trkpt>
      <trkpt lat="43.20539" lon="5.50174">
        <ele>143.6</ele>
        <time>2019-02-15T14:14:29.000Z</time>
      </trkpt>
      <trkpt lat="43.20556" lon="5.50184">
        <ele>140.8</ele>
        <time>2019-02-15T14:14:38.000Z</time>
      </trkpt>
      <trkpt lat="43.20573" lon="5.50197">
        <ele>136.8</ele>
        <time>2019-02-15T14:14:49.000Z</time>
      </trkpt>
      <trkpt lat="43.20591" lon="5.50202">
        <ele>130.4</ele>
        <time>2019-02-15T14:14:59.000Z</time>
      </trkpt>
      <trkpt lat="43.2061" lon="5.50208">
        <ele>129</ele>
        <time>2019-02-15T14:15:07.000Z</time>
      </trkpt>
      <trkpt lat="43.20628" lon="5.50203">
        <ele>132</ele>
        <time>2019-02-15T14:15:20.000Z</time>
      </trkpt>
      <trkpt lat="43.2063" lon="5.50194">
        <ele>130.8</ele>
        <time>2019-02-15T14:15:52.000Z</time>
      </trkpt>
      <trkpt lat="43.20637" lon="5.50178">
        <ele>130.8</ele>
        <time>2019-02-15T14:15:59.000Z</time>
      </trkpt>
      <trkpt lat="43.2063" lon="5.50175">
        <ele>130.2</ele>
        <time>2019-02-15T14:16:03.000Z</time>
      </trkpt>
      <trkpt lat="43.2063" lon="5.5017">
        <ele>129.4</ele>
        <time>2019-02-15T14:16:05.000Z</time>
      </trkpt>
      <trkpt lat="43.20644" lon="5.50155">
        <ele>126</ele>
        <time>2019-02-15T14:16:15.000Z</time>
      </trkpt>
      <trkpt lat="43.20658" lon="5.50147">
        <ele>121.8</ele>
        <time>2019-02-15T14:16:25.000Z</time>
      </trkpt>
      <trkpt lat="43.20669" lon="5.50134">
        <ele>112</ele>
        <time>2019-02-15T14:17:01.000Z</time>
      </trkpt>
      <trkpt lat="43.20668" lon="5.50112">
        <ele>102.2</ele>
        <time>2019-02-15T14:17:33.000Z</time>
      </trkpt>
      <trkpt lat="43.20669" lon="5.5011">
        <ele>101</ele>
        <time>2019-02-15T14:17:35.000Z</time>
      </trkpt>
      <trkpt lat="43.20683" lon="5.50095">
        <ele>94</ele>
        <time>2019-02-15T14:17:57.000Z</time>
      </trkpt>
      <trkpt lat="43.20689" lon="5.5008">
        <ele>84</ele>
        <time>2019-02-15T14:19:00.000Z</time>
      </trkpt>
      <trkpt lat="43.20686" lon="5.50062">
        <ele>79.6</ele>
        <time>2019-02-15T14:19:31.000Z</time>
      </trkpt>
      <trkpt lat="43.20671" lon="5.50051">
        <ele>69.2</ele>
        <time>2019-02-15T14:19:57.000Z</time>
      </trkpt>
      <trkpt lat="43.20661" lon="5.50034">
        <ele>62</ele>
        <time>2019-02-15T14:20:13.000Z</time>
      </trkpt>
      <trkpt lat="43.20655" lon="5.50027">
        <ele>59.4</ele>
        <time>2019-02-15T14:20:22.000Z</time>
      </trkpt>
      <trkpt lat="43.20654" lon="5.50021">
        <ele>59.2</ele>
        <time>2019-02-15T14:20:27.000Z</time>
      </trkpt>
      <trkpt lat="43.2065" lon="5.50018">
        <ele>60.2</ele>
        <time>2019-02-15T14:20:31.000Z</time>
      </trkpt>
      <trkpt lat="43.20648" lon="5.50016">
        <ele>59.8</ele>
        <time>2019-02-15T14:20:34.000Z</time>
      </trkpt>
      <trkpt lat="43.20645" lon="5.50014">
        <ele>57.4</ele>
        <time>2019-02-15T14:20:37.000Z</time>
      </trkpt>
      <trkpt lat="43.20645" lon="5.50012">
        <ele>56.4</ele>
        <time>2019-02-15T14:20:39.000Z</time>
      </trkpt>
      <trkpt lat="43.20645" lon="5.5001">
        <ele>56.4</ele>
        <time>2019-02-15T14:20:41.000Z</time>
      </trkpt>
      <trkpt lat="43.20637" lon="5.50005">
        <ele>52.4</ele>
        <time>2019-02-15T14:20:53.000Z</time>
      </trkpt>
      <trkpt lat="43.20633" lon="5.5">
        <ele>54.4</ele>
        <time>2019-02-15T14:20:57.000Z</time>
      </trkpt>
      <trkpt lat="43.20632" lon="5.49998">
        <ele>52.6</ele>
        <time>2019-02-15T14:20:59.000Z</time>
      </trkpt>
      <trkpt lat="43.20632" lon="5.49974">
        <ele>42</ele>
        <time>2019-02-15T14:21:14.000Z</time>
      </trkpt>
      <trkpt lat="43.20632" lon="5.49972">
        <ele>41.4</ele>
        <time>2019-02-15T14:21:15.000Z</time>
      </trkpt>
      <trkpt lat="43.20625" lon="5.49949">
        <ele>34.4</ele>
        <time>2019-02-15T14:21:27.000Z</time>
      </trkpt>
      <trkpt lat="43.20624" lon="5.49941">
        <ele>31.4</ele>
        <time>2019-02-15T14:21:31.000Z</time>
      </trkpt>
      <trkpt lat="43.20612" lon="5.49921">
        <ele>22.4</ele>
        <time>2019-02-15T14:21:43.000Z</time>
      </trkpt>
      <trkpt lat="43.20612" lon="5.4992">
        <ele>21.2</ele>
        <time>2019-02-15T14:21:45.000Z</time>
      </trkpt>
      <trkpt lat="43.20612" lon="5.4991">
        <ele>21.2</ele>
        <time>2019-02-15T14:22:07.000Z</time>
      </trkpt>
      <trkpt lat="43.20613" lon="5.49909">
        <ele>21.2</ele>
        <time>2019-02-15T14:22:09.000Z</time>
      </trkpt>
      <trkpt lat="43.20631" lon="5.49914">
        <ele>24.6</ele>
        <time>2019-02-15T14:22:24.000Z</time>
      </trkpt>
      <trkpt lat="43.20649" lon="5.49904">
        <ele>30.2</ele>
        <time>2019-02-15T14:22:34.000Z</time>
      </trkpt>
      <trkpt lat="43.20659" lon="5.49896">
        <ele>34.6</ele>
        <time>2019-02-15T14:22:42.000Z</time>
      </trkpt>
      <trkpt lat="43.2067" lon="5.49875">
        <ele>36.2</ele>
        <time>2019-02-15T14:22:57.000Z</time>
      </trkpt>
      <trkpt lat="43.20676" lon="5.49868">
        <ele>37</ele>
        <time>2019-02-15T14:23:04.000Z</time>
      </trkpt>
      <trkpt lat="43.20693" lon="5.49854">
        <ele>31</ele>
        <time>2019-02-15T14:23:10.000Z</time>
      </trkpt>
      <trkpt lat="43.20709" lon="5.49842">
        <ele>34</ele>
        <time>2019-02-15T14:23:18.000Z</time>
      </trkpt>
      <trkpt lat="43.20724" lon="5.49826">
        <ele>35.4</ele>
        <time>2019-02-15T14:23:26.000Z</time>
      </trkpt>
      <trkpt lat="43.20741" lon="5.49814">
        <ele>43.6</ele>
        <time>2019-02-15T14:23:36.000Z</time>
      </trkpt>
      <trkpt lat="43.20758" lon="5.49804">
        <ele>46.6</ele>
        <time>2019-02-15T14:23:46.000Z</time>
      </trkpt>
      <trkpt lat="43.20775" lon="5.49792">
        <ele>44.4</ele>
        <time>2019-02-15T14:23:54.000Z</time>
      </trkpt>
      <trkpt lat="43.20791" lon="5.49781">
        <ele>44.4</ele>
        <time>2019-02-15T14:24:03.000Z</time>
      </trkpt>
      <trkpt lat="43.20806" lon="5.49761">
        <ele>46.2</ele>
        <time>2019-02-15T14:24:11.000Z</time>
      </trkpt>
      <trkpt lat="43.20822" lon="5.49747">
        <ele>41.8</ele>
        <time>2019-02-15T14:24:18.000Z</time>
      </trkpt>
      <trkpt lat="43.20839" lon="5.49735">
        <ele>42.2</ele>
        <time>2019-02-15T14:24:26.000Z</time>
      </trkpt>
      <trkpt lat="43.20856" lon="5.49725">
        <ele>44.4</ele>
        <time>2019-02-15T14:24:34.000Z</time>
      </trkpt>
      <trkpt lat="43.20873" lon="5.49713">
        <ele>53</ele>
        <time>2019-02-15T14:24:44.000Z</time>
      </trkpt>
      <trkpt lat="43.20891" lon="5.49706">
        <ele>58.8</ele>
        <time>2019-02-15T14:24:54.000Z</time>
      </trkpt>
      <trkpt lat="43.20911" lon="5.49701">
        <ele>64.2</ele>
        <time>2019-02-15T14:25:04.000Z</time>
      </trkpt>
      <trkpt lat="43.20929" lon="5.49695">
        <ele>65</ele>
        <time>2019-02-15T14:25:14.000Z</time>
      </trkpt>
      <trkpt lat="43.20947" lon="5.49688">
        <ele>76</ele>
        <time>2019-02-15T14:25:25.000Z</time>
      </trkpt>
      <trkpt lat="43.20967" lon="5.49688">
        <ele>94.6</ele>
        <time>2019-02-15T14:25:37.000Z</time>
      </trkpt>
      <trkpt lat="43.20985" lon="5.4968">
        <ele>99.8</ele>
        <time>2019-02-15T14:25:46.000Z</time>
      </trkpt>
      <trkpt lat="43.21002" lon="5.49682">
        <ele>94</ele>
        <time>2019-02-15T14:25:56.000Z</time>
      </trkpt>
      <trkpt lat="43.21021" lon="5.49675">
        <ele>84.6</ele>
        <time>2019-02-15T14:26:04.000Z</time>
      </trkpt>
      <trkpt lat="43.2104" lon="5.49673">
        <ele>82</ele>
        <time>2019-02-15T14:26:12.000Z</time>
      </trkpt>
      <trkpt lat="43.21059" lon="5.49677">
        <ele>69.6</ele>
        <time>2019-02-15T14:26:19.000Z</time>
      </trkpt>
      <trkpt lat="43.21077" lon="5.49685">
        <ele>64.2</ele>
        <time>2019-02-15T14:26:27.000Z</time>
      </trkpt>
      <trkpt lat="43.2109" lon="5.49703">
        <ele>62.8</ele>
        <time>2019-02-15T14:26:35.000Z</time>
      </trkpt>
      <trkpt lat="43.21104" lon="5.49719">
        <ele>63.6</ele>
        <time>2019-02-15T14:26:43.000Z</time>
      </trkpt>
      <trkpt lat="43.21124" lon="5.49719">
        <ele>63.2</ele>
        <time>2019-02-15T14:26:52.000Z</time>
      </trkpt>
      <trkpt lat="43.2114" lon="5.49708">
        <ele>64.8</ele>
        <time>2019-02-15T14:27:09.000Z</time>
      </trkpt>
      <trkpt lat="43.21152" lon="5.49687">
        <ele>71.2</ele>
        <time>2019-02-15T14:27:19.000Z</time>
      </trkpt>
      <trkpt lat="43.21158" lon="5.49674">
        <ele>87.6</ele>
        <time>2019-02-15T14:27:42.000Z</time>
      </trkpt>
      <trkpt lat="43.21144" lon="5.49658">
        <ele>84</ele>
        <time>2019-02-15T14:27:58.000Z</time>
      </trkpt>
      <trkpt lat="43.21137" lon="5.49642">
        <ele>81.2</ele>
        <time>2019-02-15T14:28:11.000Z</time>
      </trkpt>
      <trkpt lat="43.21131" lon="5.4962">
        <ele>81.2</ele>
        <time>2019-02-15T14:28:26.000Z</time>
      </trkpt>
      <trkpt lat="43.21131" lon="5.49616">
        <ele>82.2</ele>
        <time>2019-02-15T14:28:28.000Z</time>
      </trkpt>
      <trkpt lat="43.21137" lon="5.49592">
        <ele>86.2</ele>
        <time>2019-02-15T14:28:44.000Z</time>
      </trkpt>
      <trkpt lat="43.21138" lon="5.49585">
        <ele>86.8</ele>
        <time>2019-02-15T14:28:49.000Z</time>
      </trkpt>
      <trkpt lat="43.21137" lon="5.49583">
        <ele>93</ele>
        <time>2019-02-15T14:28:53.000Z</time>
      </trkpt>
      <trkpt lat="43.21134" lon="5.49569">
        <ele>96.6</ele>
        <time>2019-02-15T14:29:03.000Z</time>
      </trkpt>
      <trkpt lat="43.21129" lon="5.49561">
        <ele>96.8</ele>
        <time>2019-02-15T14:29:11.000Z</time>
      </trkpt>
      <trkpt lat="43.21123" lon="5.49554">
        <ele>98.2</ele>
        <time>2019-02-15T14:29:18.000Z</time>
      </trkpt>
      <trkpt lat="43.21117" lon="5.49529">
        <ele>99.6</ele>
        <time>2019-02-15T14:29:32.000Z</time>
      </trkpt>
      <trkpt lat="43.21118" lon="5.49505">
        <ele>99</ele>
        <time>2019-02-15T14:29:44.000Z</time>
      </trkpt>
      <trkpt lat="43.21118" lon="5.49491">
        <ele>101.2</ele>
        <time>2019-02-15T14:29:52.000Z</time>
      </trkpt>
      <trkpt lat="43.21124" lon="5.49467">
        <ele>99</ele>
        <time>2019-02-15T14:30:06.000Z</time>
      </trkpt>
      <trkpt lat="43.21122" lon="5.49444">
        <ele>108.4</ele>
        <time>2019-02-15T14:30:21.000Z</time>
      </trkpt>
      <trkpt lat="43.21119" lon="5.4942">
        <ele>116.8</ele>
        <time>2019-02-15T14:30:35.000Z</time>
      </trkpt>
      <trkpt lat="43.21107" lon="5.49399">
        <ele>120.4</ele>
        <time>2019-02-15T14:30:47.000Z</time>
      </trkpt>
      <trkpt lat="43.211" lon="5.49376">
        <ele>122.2</ele>
        <time>2019-02-15T14:30:58.000Z</time>
      </trkpt>
      <trkpt lat="43.21091" lon="5.49354">
        <ele>127.4</ele>
        <time>2019-02-15T14:31:14.000Z</time>
      </trkpt>
      <trkpt lat="43.2109" lon="5.4935">
        <ele>128</ele>
        <time>2019-02-15T14:31:16.000Z</time>
      </trkpt>
      <trkpt lat="43.21084" lon="5.49327">
        <ele>131.2</ele>
        <time>2019-02-15T14:31:27.000Z</time>
      </trkpt>
      <trkpt lat="43.21082" lon="5.49303">
        <ele>135</ele>
        <time>2019-02-15T14:31:37.000Z</time>
      </trkpt>
      <trkpt lat="43.21078" lon="5.49279">
        <ele>134.8</ele>
        <time>2019-02-15T14:31:48.000Z</time>
      </trkpt>
      <trkpt lat="43.21068" lon="5.49256">
        <ele>137.8</ele>
        <time>2019-02-15T14:32:01.000Z</time>
      </trkpt>
      <trkpt lat="43.21063" lon="5.4923">
        <ele>141.2</ele>
        <time>2019-02-15T14:32:12.000Z</time>
      </trkpt>
      <trkpt lat="43.21063" lon="5.4922">
        <ele>139.4</ele>
        <time>2019-02-15T14:32:17.000Z</time>
      </trkpt>
      <trkpt lat="43.21071" lon="5.49199">
        <ele>140.6</ele>
        <time>2019-02-15T14:32:32.000Z</time>
      </trkpt>
      <trkpt lat="43.21072" lon="5.49197">
        <ele>141.4</ele>
        <time>2019-02-15T14:32:34.000Z</time>
      </trkpt>
      <trkpt lat="43.21086" lon="5.49181">
        <ele>142.4</ele>
        <time>2019-02-15T14:32:46.000Z</time>
      </trkpt>
      <trkpt lat="43.211" lon="5.49164">
        <ele>143.6</ele>
        <time>2019-02-15T14:32:56.000Z</time>
      </trkpt>
      <trkpt lat="43.21115" lon="5.49148">
        <ele>143.6</ele>
        <time>2019-02-15T14:33:09.000Z</time>
      </trkpt>
      <trkpt lat="43.21128" lon="5.4913">
        <ele>148.8</ele>
        <time>2019-02-15T14:33:22.000Z</time>
      </trkpt>
      <trkpt lat="43.21135" lon="5.49108">
        <ele>150.8</ele>
        <time>2019-02-15T14:33:31.000Z</time>
      </trkpt>
      <trkpt lat="43.21134" lon="5.49106">
        <ele>151.6</ele>
        <time>2019-02-15T14:33:32.000Z</time>
      </trkpt>
      <trkpt lat="43.21132" lon="5.49105">
        <ele>152.2</ele>
        <time>2019-02-15T14:33:34.000Z</time>
      </trkpt>
      <trkpt lat="43.21113" lon="5.49106">
        <ele>155.4</ele>
        <time>2019-02-15T14:33:46.000Z</time>
      </trkpt>
      <trkpt lat="43.21094" lon="5.49109">
        <ele>159.6</ele>
        <time>2019-02-15T14:33:58.000Z</time>
      </trkpt>
      <trkpt lat="43.21075" lon="5.49114">
        <ele>162.2</ele>
        <time>2019-02-15T14:34:09.000Z</time>
      </trkpt>
      <trkpt lat="43.21056" lon="5.49116">
        <ele>164.8</ele>
        <time>2019-02-15T14:34:20.000Z</time>
      </trkpt>
      <trkpt lat="43.2104" lon="5.49119">
        <ele>166.2</ele>
        <time>2019-02-15T14:34:50.000Z</time>
      </trkpt>
      <trkpt lat="43.21023" lon="5.49127">
        <ele>167</ele>
        <time>2019-02-15T14:35:43.000Z</time>
      </trkpt>
      <trkpt lat="43.21006" lon="5.4913">
        <ele>168.8</ele>
        <time>2019-02-15T14:35:51.000Z</time>
      </trkpt>
      <trkpt lat="43.21004" lon="5.49125">
        <ele>169.4</ele>
        <time>2019-02-15T14:35:55.000Z</time>
      </trkpt>
      <trkpt lat="43.21003" lon="5.49125">
        <ele>170.2</ele>
        <time>2019-02-15T14:35:57.000Z</time>
      </trkpt>
      <trkpt lat="43.21013" lon="5.49105">
        <ele>166.2</ele>
        <time>2019-02-15T14:36:14.000Z</time>
      </trkpt>
      <trkpt lat="43.21019" lon="5.49081">
        <ele>164</ele>
        <time>2019-02-15T14:36:22.000Z</time>
      </trkpt>
      <trkpt lat="43.21022" lon="5.49056">
        <ele>161.2</ele>
        <time>2019-02-15T14:36:29.000Z</time>
      </trkpt>
      <trkpt lat="43.21026" lon="5.4903">
        <ele>159.6</ele>
        <time>2019-02-15T14:36:36.000Z</time>
      </trkpt>
      <trkpt lat="43.21039" lon="5.49013">
        <ele>157.6</ele>
        <time>2019-02-15T14:36:43.000Z</time>
      </trkpt>
      <trkpt lat="43.21052" lon="5.48993">
        <ele>153.6</ele>
        <time>2019-02-15T14:36:51.000Z</time>
      </trkpt>
      <trkpt lat="43.21064" lon="5.4897">
        <ele>149</ele>
        <time>2019-02-15T14:36:59.000Z</time>
      </trkpt>
      <trkpt lat="43.2107" lon="5.48946">
        <ele>147.8</ele>
        <time>2019-02-15T14:37:06.000Z</time>
      </trkpt>
      <trkpt lat="43.21073" lon="5.4892">
        <ele>150</ele>
        <time>2019-02-15T14:37:14.000Z</time>
      </trkpt>
      <trkpt lat="43.2107" lon="5.48894">
        <ele>149</ele>
        <time>2019-02-15T14:37:23.000Z</time>
      </trkpt>
      <trkpt lat="43.21053" lon="5.48884">
        <ele>146.8</ele>
        <time>2019-02-15T14:37:31.000Z</time>
      </trkpt>
      <trkpt lat="43.2105" lon="5.4886">
        <ele>142.4</ele>
        <time>2019-02-15T14:37:39.000Z</time>
      </trkpt>
      <trkpt lat="43.21052" lon="5.48856">
        <ele>141.6</ele>
        <time>2019-02-15T14:37:42.000Z</time>
      </trkpt>
      <trkpt lat="43.21066" lon="5.4884">
        <ele>141.2</ele>
        <time>2019-02-15T14:38:20.000Z</time>
      </trkpt>
      <trkpt lat="43.21082" lon="5.48824">
        <ele>136.8</ele>
        <time>2019-02-15T14:38:27.000Z</time>
      </trkpt>
      <trkpt lat="43.21099" lon="5.48808">
        <ele>135.2</ele>
        <time>2019-02-15T14:38:34.000Z</time>
      </trkpt>
      <trkpt lat="43.21109" lon="5.48794">
        <ele>134</ele>
        <time>2019-02-15T14:38:40.000Z</time>
      </trkpt>
      <trkpt lat="43.21106" lon="5.48789">
        <ele>132.2</ele>
        <time>2019-02-15T14:38:42.000Z</time>
      </trkpt>
      <trkpt lat="43.21094" lon="5.48786">
        <ele>130</ele>
        <time>2019-02-15T14:38:47.000Z</time>
      </trkpt>
      <trkpt lat="43.21076" lon="5.48791">
        <ele>128</ele>
        <time>2019-02-15T14:39:01.000Z</time>
      </trkpt>
      <trkpt lat="43.21058" lon="5.48795">
        <ele>127.2</ele>
        <time>2019-02-15T14:39:08.000Z</time>
      </trkpt>
      <trkpt lat="43.21044" lon="5.48809">
        <ele>125.8</ele>
        <time>2019-02-15T14:39:28.000Z</time>
      </trkpt>
      <trkpt lat="43.21031" lon="5.48827">
        <ele>123.6</ele>
        <time>2019-02-15T14:39:36.000Z</time>
      </trkpt>
      <trkpt lat="43.21029" lon="5.48833">
        <ele>124.2</ele>
        <time>2019-02-15T14:39:40.000Z</time>
      </trkpt>
      <trkpt lat="43.2103" lon="5.48833">
        <ele>126</ele>
        <time>2019-02-15T14:39:42.000Z</time>
      </trkpt>
      <trkpt lat="43.21023" lon="5.48856">
        <ele>123.2</ele>
        <time>2019-02-15T14:39:53.000Z</time>
      </trkpt>
      <trkpt lat="43.21013" lon="5.48879">
        <ele>115.6</ele>
        <time>2019-02-15T14:40:02.000Z</time>
      </trkpt>
      <trkpt lat="43.21017" lon="5.48895">
        <ele>115.8</ele>
        <time>2019-02-15T14:40:08.000Z</time>
      </trkpt>
      <trkpt lat="43.21025" lon="5.48919">
        <ele>116</ele>
        <time>2019-02-15T14:40:15.000Z</time>
      </trkpt>
      <trkpt lat="43.21016" lon="5.48938">
        <ele>113</ele>
        <time>2019-02-15T14:40:23.000Z</time>
      </trkpt>
      <trkpt lat="43.20998" lon="5.48944">
        <ele>112.6</ele>
        <time>2019-02-15T14:40:30.000Z</time>
      </trkpt>
      <trkpt lat="43.20981" lon="5.48932">
        <ele>111</ele>
        <time>2019-02-15T14:40:40.000Z</time>
      </trkpt>
      <trkpt lat="43.20965" lon="5.48934">
        <ele>109</ele>
        <time>2019-02-15T14:40:48.000Z</time>
      </trkpt>
      <trkpt lat="43.20959" lon="5.4896">
        <ele>103</ele>
        <time>2019-02-15T14:40:58.000Z</time>
      </trkpt>
      <trkpt lat="43.20955" lon="5.48984">
        <ele>99</ele>
        <time>2019-02-15T14:41:07.000Z</time>
      </trkpt>
      <trkpt lat="43.20949" lon="5.49003">
        <ele>90.8</ele>
        <time>2019-02-15T14:41:15.000Z</time>
      </trkpt>
      <trkpt lat="43.20931" lon="5.49015">
        <ele>94.2</ele>
        <time>2019-02-15T14:41:21.000Z</time>
      </trkpt>
      <trkpt lat="43.2091" lon="5.49017">
        <ele>103</ele>
        <time>2019-02-15T14:41:28.000Z</time>
      </trkpt>
      <trkpt lat="43.20892" lon="5.49011">
        <ele>104.4</ele>
        <time>2019-02-15T14:41:37.000Z</time>
      </trkpt>
      <trkpt lat="43.20889" lon="5.49011">
        <ele>104.4</ele>
        <time>2019-02-15T14:41:39.000Z</time>
      </trkpt>
      <trkpt lat="43.20889" lon="5.49034">
        <ele>100.8</ele>
        <time>2019-02-15T14:41:47.000Z</time>
      </trkpt>
      <trkpt lat="43.20893" lon="5.49058">
        <ele>97.2</ele>
        <time>2019-02-15T14:41:55.000Z</time>
      </trkpt>
      <trkpt lat="43.20893" lon="5.49084">
        <ele>97.2</ele>
        <time>2019-02-15T14:42:03.000Z</time>
      </trkpt>
      <trkpt lat="43.20877" lon="5.49101">
        <ele>96.2</ele>
        <time>2019-02-15T14:42:12.000Z</time>
      </trkpt>
      <trkpt lat="43.20862" lon="5.49113">
        <ele>95.8</ele>
        <time>2019-02-15T14:42:19.000Z</time>
      </trkpt>
      <trkpt lat="43.20846" lon="5.4913">
        <ele>95.4</ele>
        <time>2019-02-15T14:42:27.000Z</time>
      </trkpt>
      <trkpt lat="43.20827" lon="5.49123">
        <ele>97.2</ele>
        <time>2019-02-15T14:42:35.000Z</time>
      </trkpt>
      <trkpt lat="43.20811" lon="5.49111">
        <ele>86.4</ele>
        <time>2019-02-15T14:42:45.000Z</time>
      </trkpt>
      <trkpt lat="43.20797" lon="5.49113">
        <ele>80.2</ele>
        <time>2019-02-15T14:42:53.000Z</time>
      </trkpt>
      <trkpt lat="43.20783" lon="5.4913">
        <ele>77.6</ele>
        <time>2019-02-15T14:43:01.000Z</time>
      </trkpt>
      <trkpt lat="43.20765" lon="5.49135">
        <ele>74.6</ele>
        <time>2019-02-15T14:43:09.000Z</time>
      </trkpt>
      <trkpt lat="43.20763" lon="5.49134">
        <ele>75</ele>
        <time>2019-02-15T14:43:10.000Z</time>
      </trkpt>
      <trkpt lat="43.20745" lon="5.49138">
        <ele>72.8</ele>
        <time>2019-02-15T14:43:19.000Z</time>
      </trkpt>
      <trkpt lat="43.20729" lon="5.49153">
        <ele>69.2</ele>
        <time>2019-02-15T14:43:28.000Z</time>
      </trkpt>
      <trkpt lat="43.20709" lon="5.49167">
        <ele>71.8</ele>
        <time>2019-02-15T14:43:36.000Z</time>
      </trkpt>
      <trkpt lat="43.20689" lon="5.49178">
        <ele>83.4</ele>
        <time>2019-02-15T14:43:41.000Z</time>
      </trkpt>
      <trkpt lat="43.20669" lon="5.49179">
        <ele>96.2</ele>
        <time>2019-02-15T14:43:47.000Z</time>
      </trkpt>
      <trkpt lat="43.20658" lon="5.49161">
        <ele>85.6</ele>
        <time>2019-02-15T14:43:57.000Z</time>
      </trkpt>
      <trkpt lat="43.20641" lon="5.49156">
        <ele>81.2</ele>
        <time>2019-02-15T14:44:06.000Z</time>
      </trkpt>
      <trkpt lat="43.20621" lon="5.49156">
        <ele>77.8</ele>
        <time>2019-02-15T14:44:15.000Z</time>
      </trkpt>
      <trkpt lat="43.20616" lon="5.49155">
        <ele>77.2</ele>
        <time>2019-02-15T14:44:17.000Z</time>
      </trkpt>
      <trkpt lat="43.206" lon="5.49142">
        <ele>68.6</ele>
        <time>2019-02-15T14:44:27.000Z</time>
      </trkpt>
      <trkpt lat="43.20599" lon="5.49142">
        <ele>67.6</ele>
        <time>2019-02-15T14:44:28.000Z</time>
      </trkpt>
      <trkpt lat="43.20589" lon="5.49158">
        <ele>66</ele>
        <time>2019-02-15T14:44:43.000Z</time>
      </trkpt>
      <trkpt lat="43.20578" lon="5.49168">
        <ele>81.2</ele>
        <time>2019-02-15T14:44:56.000Z</time>
      </trkpt>
      <trkpt lat="43.20572" lon="5.4917">
        <ele>86.4</ele>
        <time>2019-02-15T14:44:59.000Z</time>
      </trkpt>
      <trkpt lat="43.20555" lon="5.49163">
        <ele>90.8</ele>
        <time>2019-02-15T14:45:09.000Z</time>
      </trkpt>
      <trkpt lat="43.2054" lon="5.49149">
        <ele>84.6</ele>
        <time>2019-02-15T14:45:19.000Z</time>
      </trkpt>
      <trkpt lat="43.20533" lon="5.49139">
        <ele>82.2</ele>
        <time>2019-02-15T14:45:24.000Z</time>
      </trkpt>
      <trkpt lat="43.20526" lon="5.49135">
        <ele>77.6</ele>
        <time>2019-02-15T14:45:29.000Z</time>
      </trkpt>
      <trkpt lat="43.20516" lon="5.49132">
        <ele>66.4</ele>
        <time>2019-02-15T14:45:39.000Z</time>
      </trkpt>
      <trkpt lat="43.20521" lon="5.49122">
        <ele>57.2</ele>
        <time>2019-02-15T14:46:04.000Z</time>
      </trkpt>
      <trkpt lat="43.20528" lon="5.49118">
        <ele>52.8</ele>
        <time>2019-02-15T14:47:11.000Z</time>
      </trkpt>
      <trkpt lat="43.20532" lon="5.49118">
        <ele>43.2</ele>
        <time>2019-02-15T14:47:19.000Z</time>
      </trkpt>
      <trkpt lat="43.20521" lon="5.49116">
        <ele>51</ele>
        <time>2019-02-15T14:48:14.000Z</time>
      </trkpt>
      <trkpt lat="43.2052" lon="5.4911">
        <ele>53</ele>
        <time>2019-02-15T14:48:18.000Z</time>
      </trkpt>
      <trkpt lat="43.20522" lon="5.49107">
        <ele>50.8</ele>
        <time>2019-02-15T14:48:22.000Z</time>
      </trkpt>
      <trkpt lat="43.20532" lon="5.49098">
        <ele>47.8</ele>
        <time>2019-02-15T14:48:34.000Z</time>
      </trkpt>
      <trkpt lat="43.20533" lon="5.4909">
        <ele>46.8</ele>
        <time>2019-02-15T14:48:41.000Z</time>
      </trkpt>
      <trkpt lat="43.20535" lon="5.4908">
        <ele>47</ele>
        <time>2019-02-15T14:48:51.000Z</time>
      </trkpt>
      <trkpt lat="43.20537" lon="5.49059">
        <ele>59</ele>
        <time>2019-02-15T14:49:17.000Z</time>
      </trkpt>
      <trkpt lat="43.20518" lon="5.49052">
        <ele>65.6</ele>
        <time>2019-02-15T14:49:42.000Z</time>
      </trkpt>
      <trkpt lat="43.20518" lon="5.49053">
        <ele>66.6</ele>
        <time>2019-02-15T14:49:44.000Z</time>
      </trkpt>
      <trkpt lat="43.20515" lon="5.4903">
        <ele>74</ele>
        <time>2019-02-15T14:50:16.000Z</time>
      </trkpt>
      <trkpt lat="43.20515" lon="5.49018">
        <ele>78.6</ele>
        <time>2019-02-15T14:50:26.000Z</time>
      </trkpt>
      <trkpt lat="43.20512" lon="5.48993">
        <ele>89.4</ele>
        <time>2019-02-15T14:50:50.000Z</time>
      </trkpt>
      <trkpt lat="43.20507" lon="5.48981">
        <ele>90.2</ele>
        <time>2019-02-15T14:51:07.000Z</time>
      </trkpt>
      <trkpt lat="43.20505" lon="5.4896">
        <ele>99.8</ele>
        <time>2019-02-15T14:51:31.000Z</time>
      </trkpt>
      <trkpt lat="43.20508" lon="5.48949">
        <ele>101.4</ele>
        <time>2019-02-15T14:51:39.000Z</time>
      </trkpt>
      <trkpt lat="43.20509" lon="5.48941">
        <ele>100.6</ele>
        <time>2019-02-15T14:51:45.000Z</time>
      </trkpt>
      <trkpt lat="43.20494" lon="5.48957">
        <ele>102.2</ele>
        <time>2019-02-15T14:52:13.000Z</time>
      </trkpt>
      <trkpt lat="43.20478" lon="5.48964">
        <ele>105.2</ele>
        <time>2019-02-15T14:52:42.000Z</time>
      </trkpt>
      <trkpt lat="43.20478" lon="5.48943">
        <ele>111.6</ele>
        <time>2019-02-15T14:53:25.000Z</time>
      </trkpt>
      <trkpt lat="43.2048" lon="5.48919">
        <ele>117.2</ele>
        <time>2019-02-15T14:53:53.000Z</time>
      </trkpt>
      <trkpt lat="43.20479" lon="5.48898">
        <ele>125.2</ele>
        <time>2019-02-15T14:54:21.000Z</time>
      </trkpt>
      <trkpt lat="43.20469" lon="5.48886">
        <ele>139.4</ele>
        <time>2019-02-15T14:55:04.000Z</time>
      </trkpt>
      <trkpt lat="43.20463" lon="5.48872">
        <ele>158.4</ele>
        <time>2019-02-15T14:55:52.000Z</time>
      </trkpt>
      <trkpt lat="43.20451" lon="5.4886">
        <ele>164</ele>
        <time>2019-02-15T14:56:40.000Z</time>
      </trkpt>
      <trkpt lat="43.20459" lon="5.48863">
        <ele>162.2</ele>
        <time>2019-02-15T14:58:02.000Z</time>
      </trkpt>
      <trkpt lat="43.20454" lon="5.48864">
        <ele>162.4</ele>
        <time>2019-02-15T14:58:55.000Z</time>
      </trkpt>
      <trkpt lat="43.20469" lon="5.48852">
        <ele>162.6</ele>
        <time>2019-02-15T14:59:11.000Z</time>
      </trkpt>
      <trkpt lat="43.2047" lon="5.4885">
        <ele>162.6</ele>
        <time>2019-02-15T14:59:13.000Z</time>
      </trkpt>
      <trkpt lat="43.20482" lon="5.48831">
        <ele>161.2</ele>
        <time>2019-02-15T14:59:29.000Z</time>
      </trkpt>
      <trkpt lat="43.20485" lon="5.48829">
        <ele>161.2</ele>
        <time>2019-02-15T14:59:31.000Z</time>
      </trkpt>
      <trkpt lat="43.20486" lon="5.48828">
        <ele>161</ele>
        <time>2019-02-15T14:59:34.000Z</time>
      </trkpt>
      <trkpt lat="43.20497" lon="5.48814">
        <ele>162.8</ele>
        <time>2019-02-15T15:00:22.000Z</time>
      </trkpt>
      <trkpt lat="43.20496" lon="5.4879">
        <ele>170.6</ele>
        <time>2019-02-15T15:00:50.000Z</time>
      </trkpt>
      <trkpt lat="43.20494" lon="5.48767">
        <ele>182.2</ele>
        <time>2019-02-15T15:01:21.000Z</time>
      </trkpt>
      <trkpt lat="43.20499" lon="5.48743">
        <ele>188</ele>
        <time>2019-02-15T15:01:43.000Z</time>
      </trkpt>
      <trkpt lat="43.20502" lon="5.4872">
        <ele>194.8</ele>
        <time>2019-02-15T15:02:01.000Z</time>
      </trkpt>
      <trkpt lat="43.20508" lon="5.48695">
        <ele>199</ele>
        <time>2019-02-15T15:02:20.000Z</time>
      </trkpt>
      <trkpt lat="43.2051" lon="5.48686">
        <ele>199.6</ele>
        <time>2019-02-15T15:02:25.000Z</time>
      </trkpt>
      <trkpt lat="43.20518" lon="5.48663">
        <ele>202</ele>
        <time>2019-02-15T15:02:58.000Z</time>
      </trkpt>
      <trkpt lat="43.20521" lon="5.48652">
        <ele>203.2</ele>
        <time>2019-02-15T15:03:05.000Z</time>
      </trkpt>
      <trkpt lat="43.20535" lon="5.48636">
        <ele>203.4</ele>
        <time>2019-02-15T15:03:38.000Z</time>
      </trkpt>
      <trkpt lat="43.20545" lon="5.48613">
        <ele>207</ele>
        <time>2019-02-15T15:03:50.000Z</time>
      </trkpt>
      <trkpt lat="43.20552" lon="5.48591">
        <ele>210.6</ele>
        <time>2019-02-15T15:04:01.000Z</time>
      </trkpt>
      <trkpt lat="43.20561" lon="5.48569">
        <ele>214</ele>
        <time>2019-02-15T15:04:11.000Z</time>
      </trkpt>
      <trkpt lat="43.20564" lon="5.48544">
        <ele>215.6</ele>
        <time>2019-02-15T15:04:24.000Z</time>
      </trkpt>
      <trkpt lat="43.20565" lon="5.48519">
        <ele>219.6</ele>
        <time>2019-02-15T15:04:36.000Z</time>
      </trkpt>
      <trkpt lat="43.20568" lon="5.48494">
        <ele>223</ele>
        <time>2019-02-15T15:04:46.000Z</time>
      </trkpt>
      <trkpt lat="43.20571" lon="5.48483">
        <ele>223</ele>
        <time>2019-02-15T15:04:53.000Z</time>
      </trkpt>
      <trkpt lat="43.20585" lon="5.4847">
        <ele>224</ele>
        <time>2019-02-15T15:05:33.000Z</time>
      </trkpt>
      <trkpt lat="43.20601" lon="5.48455">
        <ele>225</ele>
        <time>2019-02-15T15:05:41.000Z</time>
      </trkpt>
      <trkpt lat="43.20614" lon="5.48438">
        <ele>224.8</ele>
        <time>2019-02-15T15:05:49.000Z</time>
      </trkpt>
      <trkpt lat="43.20627" lon="5.4842">
        <ele>220.6</ele>
        <time>2019-02-15T15:05:58.000Z</time>
      </trkpt>
      <trkpt lat="43.20642" lon="5.48404">
        <ele>216.4</ele>
        <time>2019-02-15T15:06:07.000Z</time>
      </trkpt>
      <trkpt lat="43.20657" lon="5.4839">
        <ele>215</ele>
        <time>2019-02-15T15:06:17.000Z</time>
      </trkpt>
      <trkpt lat="43.20658" lon="5.48388">
        <ele>215</ele>
        <time>2019-02-15T15:06:19.000Z</time>
      </trkpt>
      <trkpt lat="43.20674" lon="5.48382">
        <ele>214.8</ele>
        <time>2019-02-15T15:07:27.000Z</time>
      </trkpt>
      <trkpt lat="43.20691" lon="5.48371">
        <ele>214.8</ele>
        <time>2019-02-15T15:07:39.000Z</time>
      </trkpt>
      <trkpt lat="43.20704" lon="5.48353">
        <ele>215.6</ele>
        <time>2019-02-15T15:07:47.000Z</time>
      </trkpt>
      <trkpt lat="43.20717" lon="5.48335">
        <ele>216.6</ele>
        <time>2019-02-15T15:07:56.000Z</time>
      </trkpt>
      <trkpt lat="43.20725" lon="5.48311">
        <ele>217</ele>
        <time>2019-02-15T15:08:06.000Z</time>
      </trkpt>
      <trkpt lat="43.20731" lon="5.48285">
        <ele>217.8</ele>
        <time>2019-02-15T15:08:15.000Z</time>
      </trkpt>
      <trkpt lat="43.20732" lon="5.4826">
        <ele>220</ele>
        <time>2019-02-15T15:08:24.000Z</time>
      </trkpt>
      <trkpt lat="43.20732" lon="5.48258">
        <ele>220</ele>
        <time>2019-02-15T15:08:25.000Z</time>
      </trkpt>
      <trkpt lat="43.20732" lon="5.48252">
        <ele>220.2</ele>
        <time>2019-02-15T15:08:28.000Z</time>
      </trkpt>
      <trkpt lat="43.20722" lon="5.48228">
        <ele>224</ele>
        <time>2019-02-15T15:08:40.000Z</time>
      </trkpt>
      <trkpt lat="43.20718" lon="5.48203">
        <ele>226</ele>
        <time>2019-02-15T15:08:50.000Z</time>
      </trkpt>
      <trkpt lat="43.20717" lon="5.48179">
        <ele>227</ele>
        <time>2019-02-15T15:08:59.000Z</time>
      </trkpt>
      <trkpt lat="43.20714" lon="5.48156">
        <ele>225.2</ele>
        <time>2019-02-15T15:09:08.000Z</time>
      </trkpt>
      <trkpt lat="43.20706" lon="5.48133">
        <ele>226.8</ele>
        <time>2019-02-15T15:09:17.000Z</time>
      </trkpt>
      <trkpt lat="43.20699" lon="5.48109">
        <ele>231.4</ele>
        <time>2019-02-15T15:09:27.000Z</time>
      </trkpt>
      <trkpt lat="43.20689" lon="5.4809">
        <ele>235.4</ele>
        <time>2019-02-15T15:09:39.000Z</time>
      </trkpt>
      <trkpt lat="43.20688" lon="5.48089">
        <ele>235.4</ele>
        <time>2019-02-15T15:09:41.000Z</time>
      </trkpt>
      <trkpt lat="43.20688" lon="5.48085">
        <ele>236</ele>
        <time>2019-02-15T15:09:45.000Z</time>
      </trkpt>
      <trkpt lat="43.20692" lon="5.4806">
        <ele>234</ele>
        <time>2019-02-15T15:09:58.000Z</time>
      </trkpt>
      <trkpt lat="43.20686" lon="5.48037">
        <ele>234.8</ele>
        <time>2019-02-15T15:10:07.000Z</time>
      </trkpt>
      <trkpt lat="43.20685" lon="5.48012">
        <ele>233.4</ele>
        <time>2019-02-15T15:10:15.000Z</time>
      </trkpt>
      <trkpt lat="43.20684" lon="5.47987">
        <ele>232.4</ele>
        <time>2019-02-15T15:10:24.000Z</time>
      </trkpt>
      <trkpt lat="43.20684" lon="5.4796">
        <ele>233.4</ele>
        <time>2019-02-15T15:10:32.000Z</time>
      </trkpt>
      <trkpt lat="43.20684" lon="5.47934">
        <ele>235.4</ele>
        <time>2019-02-15T15:10:41.000Z</time>
      </trkpt>
      <trkpt lat="43.20682" lon="5.4792">
        <ele>237.6</ele>
        <time>2019-02-15T15:10:46.000Z</time>
      </trkpt>
      <trkpt lat="43.20691" lon="5.47898">
        <ele>239.6</ele>
        <time>2019-02-15T15:10:55.000Z</time>
      </trkpt>
      <trkpt lat="43.20692" lon="5.47892">
        <ele>239.6</ele>
        <time>2019-02-15T15:10:58.000Z</time>
      </trkpt>
      <trkpt lat="43.20691" lon="5.47889">
        <ele>239.2</ele>
        <time>2019-02-15T15:11:02.000Z</time>
      </trkpt>
      <trkpt lat="43.20699" lon="5.47878">
        <ele>235.4</ele>
        <time>2019-02-15T15:12:04.000Z</time>
      </trkpt>
      <trkpt lat="43.20716" lon="5.47865">
        <ele>234.8</ele>
        <time>2019-02-15T15:12:13.000Z</time>
      </trkpt>
      <trkpt lat="43.20722" lon="5.47854">
        <ele>235</ele>
        <time>2019-02-15T15:12:19.000Z</time>
      </trkpt>
      <trkpt lat="43.20732" lon="5.47832">
        <ele>235</ele>
        <time>2019-02-15T15:12:30.000Z</time>
      </trkpt>
      <trkpt lat="43.20742" lon="5.4781">
        <ele>238.6</ele>
        <time>2019-02-15T15:12:40.000Z</time>
      </trkpt>
      <trkpt lat="43.20744" lon="5.47807">
        <ele>239.2</ele>
        <time>2019-02-15T15:12:42.000Z</time>
      </trkpt>
      <trkpt lat="43.20745" lon="5.47803">
        <ele>239.8</ele>
        <time>2019-02-15T15:12:45.000Z</time>
      </trkpt>
      <trkpt lat="43.20746" lon="5.47795">
        <ele>241</ele>
        <time>2019-02-15T15:12:49.000Z</time>
      </trkpt>
      <trkpt lat="43.20748" lon="5.47792">
        <ele>242.2</ele>
        <time>2019-02-15T15:12:51.000Z</time>
      </trkpt>
      <trkpt lat="43.2075" lon="5.47791">
        <ele>243.4</ele>
        <time>2019-02-15T15:12:53.000Z</time>
      </trkpt>
      <trkpt lat="43.20758" lon="5.4777">
        <ele>249.4</ele>
        <time>2019-02-15T15:13:19.000Z</time>
      </trkpt>
      <trkpt lat="43.20759" lon="5.47748">
        <ele>255.2</ele>
        <time>2019-02-15T15:13:43.000Z</time>
      </trkpt>
      <trkpt lat="43.20763" lon="5.47733">
        <ele>260.2</ele>
        <time>2019-02-15T15:14:06.000Z</time>
      </trkpt>
      <trkpt lat="43.20766" lon="5.47716">
        <ele>271.4</ele>
        <time>2019-02-15T15:14:37.000Z</time>
      </trkpt>
      <trkpt lat="43.2075" lon="5.47705">
        <ele>274</ele>
        <time>2019-02-15T15:14:52.000Z</time>
      </trkpt>
      <trkpt lat="43.2074" lon="5.4769">
        <ele>283</ele>
        <time>2019-02-15T15:15:22.000Z</time>
      </trkpt>
      <trkpt lat="43.20739" lon="5.47681">
        <ele>284.8</ele>
        <time>2019-02-15T15:15:26.000Z</time>
      </trkpt>
      <trkpt lat="43.2074" lon="5.47677">
        <ele>286</ele>
        <time>2019-02-15T15:15:29.000Z</time>
      </trkpt>
      <trkpt lat="43.20741" lon="5.47675">
        <ele>286.6</ele>
        <time>2019-02-15T15:15:31.000Z</time>
      </trkpt>
      <trkpt lat="43.20753" lon="5.47657">
        <ele>291</ele>
        <time>2019-02-15T15:15:48.000Z</time>
      </trkpt>
      <trkpt lat="43.20768" lon="5.47644">
        <ele>294.2</ele>
        <time>2019-02-15T15:16:01.000Z</time>
      </trkpt>
      <trkpt lat="43.20773" lon="5.4762">
        <ele>297.6</ele>
        <time>2019-02-15T15:16:12.000Z</time>
      </trkpt>
      <trkpt lat="43.20776" lon="5.47596">
        <ele>299.6</ele>
        <time>2019-02-15T15:16:23.000Z</time>
      </trkpt>
      <trkpt lat="43.20788" lon="5.47575">
        <ele>305.2</ele>
        <time>2019-02-15T15:16:34.000Z</time>
      </trkpt>
      <trkpt lat="43.20798" lon="5.47555">
        <ele>308</ele>
        <time>2019-02-15T15:16:44.000Z</time>
      </trkpt>
      <trkpt lat="43.20812" lon="5.47544">
        <ele>304.8</ele>
        <time>2019-02-15T15:17:27.000Z</time>
      </trkpt>
      <trkpt lat="43.20821" lon="5.4752">
        <ele>306.4</ele>
        <time>2019-02-15T15:17:35.000Z</time>
      </trkpt>
      <trkpt lat="43.20825" lon="5.47512">
        <ele>307</ele>
        <time>2019-02-15T15:17:39.000Z</time>
      </trkpt>
      <trkpt lat="43.20824" lon="5.47509">
        <ele>307.4</ele>
        <time>2019-02-15T15:17:41.000Z</time>
      </trkpt>
      <trkpt lat="43.20832" lon="5.47487">
        <ele>308.4</ele>
        <time>2019-02-15T15:17:50.000Z</time>
      </trkpt>
      <trkpt lat="43.2084" lon="5.47465">
        <ele>310.6</ele>
        <time>2019-02-15T15:18:01.000Z</time>
      </trkpt>
      <trkpt lat="43.2085" lon="5.47447">
        <ele>309.8</ele>
        <time>2019-02-15T15:18:09.000Z</time>
      </trkpt>
      <trkpt lat="43.20843" lon="5.47422">
        <ele>312.4</ele>
        <time>2019-02-15T15:18:17.000Z</time>
      </trkpt>
      <trkpt lat="43.20844" lon="5.47398">
        <ele>312</ele>
        <time>2019-02-15T15:18:28.000Z</time>
      </trkpt>
      <trkpt lat="43.20859" lon="5.47382">
        <ele>311.6</ele>
        <time>2019-02-15T15:18:36.000Z</time>
      </trkpt>
      <trkpt lat="43.20874" lon="5.47367">
        <ele>310.2</ele>
        <time>2019-02-15T15:18:45.000Z</time>
      </trkpt>
      <trkpt lat="43.2089" lon="5.47353">
        <ele>311</ele>
        <time>2019-02-15T15:18:53.000Z</time>
      </trkpt>
      <trkpt lat="43.20901" lon="5.47333">
        <ele>312.2</ele>
        <time>2019-02-15T15:19:01.000Z</time>
      </trkpt>
      <trkpt lat="43.20912" lon="5.47314">
        <ele>314.2</ele>
        <time>2019-02-15T15:19:09.000Z</time>
      </trkpt>
      <trkpt lat="43.20926" lon="5.47296">
        <ele>314.6</ele>
        <time>2019-02-15T15:19:18.000Z</time>
      </trkpt>
      <trkpt lat="43.20932" lon="5.47292">
        <ele>313.8</ele>
        <time>2019-02-15T15:19:23.000Z</time>
      </trkpt>
      <trkpt lat="43.20949" lon="5.47289">
        <ele>311.2</ele>
        <time>2019-02-15T15:19:54.000Z</time>
      </trkpt>
      <trkpt lat="43.20956" lon="5.47286">
        <ele>309.2</ele>
        <time>2019-02-15T15:19:59.000Z</time>
      </trkpt>
      <trkpt lat="43.20961" lon="5.47288">
        <ele>307</ele>
        <time>2019-02-15T15:20:03.000Z</time>
      </trkpt>
      <trkpt lat="43.20963" lon="5.47284">
        <ele>306</ele>
        <time>2019-02-15T15:20:05.000Z</time>
      </trkpt>
      <trkpt lat="43.20968" lon="5.47274">
        <ele>304</ele>
        <time>2019-02-15T15:20:12.000Z</time>
      </trkpt>
      <trkpt lat="43.20971" lon="5.47274">
        <ele>303.4</ele>
        <time>2019-02-15T15:20:15.000Z</time>
      </trkpt>
      <trkpt lat="43.20975" lon="5.47269">
        <ele>301.4</ele>
        <time>2019-02-15T15:20:22.000Z</time>
      </trkpt>
      <trkpt lat="43.20977" lon="5.47269">
        <ele>300</ele>
        <time>2019-02-15T15:20:25.000Z</time>
      </trkpt>
      <trkpt lat="43.20978" lon="5.47269">
        <ele>299.4</ele>
        <time>2019-02-15T15:20:27.000Z</time>
      </trkpt>
      <trkpt lat="43.20993" lon="5.47254">
        <ele>296</ele>
        <time>2019-02-15T15:20:44.000Z</time>
      </trkpt>
      <trkpt lat="43.21005" lon="5.47233">
        <ele>291.8</ele>
        <time>2019-02-15T15:20:56.000Z</time>
      </trkpt>
      <trkpt lat="43.21016" lon="5.47211">
        <ele>294.2</ele>
        <time>2019-02-15T15:21:05.000Z</time>
      </trkpt>
      <trkpt lat="43.21028" lon="5.4719">
        <ele>298.2</ele>
        <time>2019-02-15T15:21:15.000Z</time>
      </trkpt>
      <trkpt lat="43.2103" lon="5.47189">
        <ele>297.2</ele>
        <time>2019-02-15T15:21:17.000Z</time>
      </trkpt>
      <trkpt lat="43.21034" lon="5.47187">
        <ele>296.4</ele>
        <time>2019-02-15T15:21:22.000Z</time>
      </trkpt>
      <trkpt lat="43.21052" lon="5.47192">
        <ele>291.2</ele>
        <time>2019-02-15T15:21:39.000Z</time>
      </trkpt>
      <trkpt lat="43.21055" lon="5.47198">
        <ele>288.4</ele>
        <time>2019-02-15T15:21:45.000Z</time>
      </trkpt>
      <trkpt lat="43.21059" lon="5.47196">
        <ele>285.8</ele>
        <time>2019-02-15T15:21:51.000Z</time>
      </trkpt>
      <trkpt lat="43.21072" lon="5.4718">
        <ele>280.6</ele>
        <time>2019-02-15T15:22:09.000Z</time>
      </trkpt>
      <trkpt lat="43.21074" lon="5.47176">
        <ele>278.4</ele>
        <time>2019-02-15T15:22:13.000Z</time>
      </trkpt>
      <trkpt lat="43.21086" lon="5.47164">
        <ele>274.2</ele>
        <time>2019-02-15T15:22:24.000Z</time>
      </trkpt>
      <trkpt lat="43.21093" lon="5.4715">
        <ele>273.2</ele>
        <time>2019-02-15T15:22:32.000Z</time>
      </trkpt>
      <trkpt lat="43.21105" lon="5.47145">
        <ele>275.2</ele>
        <time>2019-02-15T15:22:52.000Z</time>
      </trkpt>
      <trkpt lat="43.21104" lon="5.47145">
        <ele>275</ele>
        <time>2019-02-15T15:22:54.000Z</time>
      </trkpt>
      <trkpt lat="43.21115" lon="5.47165">
        <ele>276.8</ele>
        <time>2019-02-15T15:23:17.000Z</time>
      </trkpt>
      <trkpt lat="43.21128" lon="5.47183">
        <ele>276.8</ele>
        <time>2019-02-15T15:23:26.000Z</time>
      </trkpt>
      <trkpt lat="43.21141" lon="5.47194">
        <ele>278</ele>
        <time>2019-02-15T15:23:35.000Z</time>
      </trkpt>
      <trkpt lat="43.21143" lon="5.47194">
        <ele>279</ele>
        <time>2019-02-15T15:23:37.000Z</time>
      </trkpt>
      <trkpt lat="43.21152" lon="5.47196">
        <ele>280</ele>
        <time>2019-02-15T15:23:44.000Z</time>
      </trkpt>
      <trkpt lat="43.21155" lon="5.47203">
        <ele>280.8</ele>
        <time>2019-02-15T15:23:50.000Z</time>
      </trkpt>
      <trkpt lat="43.21149" lon="5.47215">
        <ele>282.6</ele>
        <time>2019-02-15T15:23:58.000Z</time>
      </trkpt>
      <trkpt lat="43.2115" lon="5.47218">
        <ele>282.8</ele>
        <time>2019-02-15T15:24:01.000Z</time>
      </trkpt>
      <trkpt lat="43.21151" lon="5.47227">
        <ele>292</ele>
        <time>2019-02-15T15:24:26.000Z</time>
      </trkpt>
      <trkpt lat="43.21164" lon="5.47219">
        <ele>293.4</ele>
        <time>2019-02-15T15:24:38.000Z</time>
      </trkpt>
      <trkpt lat="43.21166" lon="5.47215">
        <ele>293.2</ele>
        <time>2019-02-15T15:24:40.000Z</time>
      </trkpt>
      <trkpt lat="43.21165" lon="5.47198">
        <ele>293.4</ele>
        <time>2019-02-15T15:24:48.000Z</time>
      </trkpt>
      <trkpt lat="43.21164" lon="5.47195">
        <ele>293.4</ele>
        <time>2019-02-15T15:24:50.000Z</time>
      </trkpt>
      <trkpt lat="43.21164" lon="5.47192">
        <ele>294</ele>
        <time>2019-02-15T15:24:54.000Z</time>
      </trkpt>
      <trkpt lat="43.21163" lon="5.4718">
        <ele>299.2</ele>
        <time>2019-02-15T15:25:05.000Z</time>
      </trkpt>
      <trkpt lat="43.21171" lon="5.4716">
        <ele>307</ele>
        <time>2019-02-15T15:25:27.000Z</time>
      </trkpt>
      <trkpt lat="43.21186" lon="5.47153">
        <ele>311.8</ele>
        <time>2019-02-15T15:25:51.000Z</time>
      </trkpt>
      <trkpt lat="43.21202" lon="5.47139">
        <ele>314.4</ele>
        <time>2019-02-15T15:26:06.000Z</time>
      </trkpt>
      <trkpt lat="43.21207" lon="5.4714">
        <ele>315.8</ele>
        <time>2019-02-15T15:26:11.000Z</time>
      </trkpt>
      <trkpt lat="43.21219" lon="5.47154">
        <ele>324.2</ele>
        <time>2019-02-15T15:26:36.000Z</time>
      </trkpt>
      <trkpt lat="43.21237" lon="5.47157">
        <ele>331.4</ele>
        <time>2019-02-15T15:26:59.000Z</time>
      </trkpt>
      <trkpt lat="43.21252" lon="5.47148">
        <ele>337.2</ele>
        <time>2019-02-15T15:27:21.000Z</time>
      </trkpt>
      <trkpt lat="43.21269" lon="5.47145">
        <ele>344.2</ele>
        <time>2019-02-15T15:27:43.000Z</time>
      </trkpt>
      <trkpt lat="43.21287" lon="5.47144">
        <ele>350.8</ele>
        <time>2019-02-15T15:28:05.000Z</time>
      </trkpt>
      <trkpt lat="43.21304" lon="5.47143">
        <ele>357.8</ele>
        <time>2019-02-15T15:28:33.000Z</time>
      </trkpt>
      <trkpt lat="43.21322" lon="5.47141">
        <ele>363.8</ele>
        <time>2019-02-15T15:28:55.000Z</time>
      </trkpt>
      <trkpt lat="43.21338" lon="5.47145">
        <ele>368.8</ele>
        <time>2019-02-15T15:29:37.000Z</time>
      </trkpt>
      <trkpt lat="43.21355" lon="5.47154">
        <ele>370.6</ele>
        <time>2019-02-15T15:29:54.000Z</time>
      </trkpt>
      <trkpt lat="43.21367" lon="5.47163">
        <ele>371.4</ele>
        <time>2019-02-15T15:30:07.000Z</time>
      </trkpt>
      <trkpt lat="43.21371" lon="5.47167">
        <ele>371.6</ele>
        <time>2019-02-15T15:30:13.000Z</time>
      </trkpt>
      <trkpt lat="43.21371" lon="5.47168">
        <ele>371.8</ele>
        <time>2019-02-15T15:30:15.000Z</time>
      </trkpt>
      <trkpt lat="43.21381" lon="5.47171">
        <ele>373.6</ele>
        <time>2019-02-15T15:30:30.000Z</time>
      </trkpt>
      <trkpt lat="43.21389" lon="5.47162">
        <ele>384.2</ele>
        <time>2019-02-15T15:31:07.000Z</time>
      </trkpt>
      <trkpt lat="43.21391" lon="5.47183">
        <ele>393.8</ele>
        <time>2019-02-15T15:31:34.000Z</time>
      </trkpt>
      <trkpt lat="43.21403" lon="5.47201">
        <ele>394</ele>
        <time>2019-02-15T15:31:49.000Z</time>
      </trkpt>
      <trkpt lat="43.21412" lon="5.47223">
        <ele>398.2</ele>
        <time>2019-02-15T15:32:06.000Z</time>
      </trkpt>
      <trkpt lat="43.21417" lon="5.47247">
        <ele>404.2</ele>
        <time>2019-02-15T15:32:27.000Z</time>
      </trkpt>
      <trkpt lat="43.21414" lon="5.47268">
        <ele>408.2</ele>
        <time>2019-02-15T15:33:05.000Z</time>
      </trkpt>
      <trkpt lat="43.2142" lon="5.47277">
        <ele>415.8</ele>
        <time>2019-02-15T15:33:35.000Z</time>
      </trkpt>
      <trkpt lat="43.21426" lon="5.47262">
        <ele>425</ele>
        <time>2019-02-15T15:34:00.000Z</time>
      </trkpt>
      <trkpt lat="43.21427" lon="5.47263">
        <ele>425.6</ele>
        <time>2019-02-15T15:34:01.000Z</time>
      </trkpt>
      <trkpt lat="43.21439" lon="5.47255">
        <ele>437.8</ele>
        <time>2019-02-15T15:34:35.000Z</time>
      </trkpt>
      <trkpt lat="43.21448" lon="5.47234">
        <ele>444</ele>
        <time>2019-02-15T15:34:58.000Z</time>
      </trkpt>
      <trkpt lat="43.21449" lon="5.4722">
        <ele>444</ele>
        <time>2019-02-15T15:35:05.000Z</time>
      </trkpt>
      <trkpt lat="43.21449" lon="5.47216">
        <ele>444</ele>
        <time>2019-02-15T15:35:08.000Z</time>
      </trkpt>
      <trkpt lat="43.21453" lon="5.47211">
        <ele>444.6</ele>
        <time>2019-02-15T15:35:17.000Z</time>
      </trkpt>
      <trkpt lat="43.21447" lon="5.47207">
        <ele>447.4</ele>
        <time>2019-02-15T15:35:43.000Z</time>
      </trkpt>
      <trkpt lat="43.21453" lon="5.47198">
        <ele>445.2</ele>
        <time>2019-02-15T15:35:52.000Z</time>
      </trkpt>
      <trkpt lat="43.21467" lon="5.47203">
        <ele>459.8</ele>
        <time>2019-02-15T15:36:37.000Z</time>
      </trkpt>
      <trkpt lat="43.21469" lon="5.47189">
        <ele>468.2</ele>
        <time>2019-02-15T15:37:32.000Z</time>
      </trkpt>
      <trkpt lat="43.21469" lon="5.47188">
        <ele>468.4</ele>
        <time>2019-02-15T15:37:33.000Z</time>
      </trkpt>
      <trkpt lat="43.21462" lon="5.47165">
        <ele>473.4</ele>
        <time>2019-02-15T15:37:50.000Z</time>
      </trkpt>
      <trkpt lat="43.21462" lon="5.47163">
        <ele>473.8</ele>
        <time>2019-02-15T15:37:52.000Z</time>
      </trkpt>
      <trkpt lat="43.21462" lon="5.4716">
        <ele>474.2</ele>
        <time>2019-02-15T15:37:54.000Z</time>
      </trkpt>
      <trkpt lat="43.21462" lon="5.47158">
        <ele>474.4</ele>
        <time>2019-02-15T15:37:56.000Z</time>
      </trkpt>
      <trkpt lat="43.21464" lon="5.47154">
        <ele>475.2</ele>
        <time>2019-02-15T15:37:59.000Z</time>
      </trkpt>
      <trkpt lat="43.21463" lon="5.47149">
        <ele>476.2</ele>
        <time>2019-02-15T15:38:03.000Z</time>
      </trkpt>
      <trkpt lat="43.21471" lon="5.47125">
        <ele>479</ele>
        <time>2019-02-15T15:38:15.000Z</time>
      </trkpt>
      <trkpt lat="43.21478" lon="5.47102">
        <ele>483</ele>
        <time>2019-02-15T15:38:25.000Z</time>
      </trkpt>
      <trkpt lat="43.21489" lon="5.47084">
        <ele>483.6</ele>
        <time>2019-02-15T15:38:38.000Z</time>
      </trkpt>
      <trkpt lat="43.21495" lon="5.47061">
        <ele>486.4</ele>
        <time>2019-02-15T15:38:49.000Z</time>
      </trkpt>
      <trkpt lat="43.21509" lon="5.47043">
        <ele>486.4</ele>
        <time>2019-02-15T15:38:59.000Z</time>
      </trkpt>
      <trkpt lat="43.21509" lon="5.47043">
        <ele>487.6</ele>
        <time>2019-02-15T15:39:01.000Z</time>
      </trkpt>
      <trkpt lat="43.21518" lon="5.47025">
        <ele>485.8</ele>
        <time>2019-02-15T15:39:56.000Z</time>
      </trkpt>
      <trkpt lat="43.21528" lon="5.47005">
        <ele>488</ele>
        <time>2019-02-15T15:40:08.000Z</time>
      </trkpt>
      <trkpt lat="43.21533" lon="5.46999">
        <ele>489</ele>
        <time>2019-02-15T15:40:13.000Z</time>
      </trkpt>
      <trkpt lat="43.21531" lon="5.46994">
        <ele>491.2</ele>
        <time>2019-02-15T15:40:16.000Z</time>
      </trkpt>
      <trkpt lat="43.21531" lon="5.46988">
        <ele>493.2</ele>
        <time>2019-02-15T15:40:20.000Z</time>
      </trkpt>
      <trkpt lat="43.2153" lon="5.46986">
        <ele>493.6</ele>
        <time>2019-02-15T15:40:23.000Z</time>
      </trkpt>
      <trkpt lat="43.2153" lon="5.46983">
        <ele>493.8</ele>
        <time>2019-02-15T15:40:25.000Z</time>
      </trkpt>
      <trkpt lat="43.21536" lon="5.46975">
        <ele>496.2</ele>
        <time>2019-02-15T15:40:33.000Z</time>
      </trkpt>
      <trkpt lat="43.21547" lon="5.46956">
        <ele>498</ele>
        <time>2019-02-15T15:40:42.000Z</time>
      </trkpt>
      <trkpt lat="43.21564" lon="5.46945">
        <ele>499.6</ele>
        <time>2019-02-15T15:40:51.000Z</time>
      </trkpt>
      <trkpt lat="43.21571" lon="5.46943">
        <ele>495.6</ele>
        <time>2019-02-15T15:41:43.000Z</time>
      </trkpt>
      <trkpt lat="43.21588" lon="5.46932">
        <ele>495</ele>
        <time>2019-02-15T15:42:01.000Z</time>
      </trkpt>
      <trkpt lat="43.21603" lon="5.46917">
        <ele>494.8</ele>
        <time>2019-02-15T15:42:19.000Z</time>
      </trkpt>
      <trkpt lat="43.21619" lon="5.46905">
        <ele>495.8</ele>
        <time>2019-02-15T15:42:27.000Z</time>
      </trkpt>
      <trkpt lat="43.21635" lon="5.46892">
        <ele>497.6</ele>
        <time>2019-02-15T15:42:35.000Z</time>
      </trkpt>
      <trkpt lat="43.21647" lon="5.46871">
        <ele>500.8</ele>
        <time>2019-02-15T15:42:44.000Z</time>
      </trkpt>
      <trkpt lat="43.21661" lon="5.46856">
        <ele>504.6</ele>
        <time>2019-02-15T15:42:53.000Z</time>
      </trkpt>
      <trkpt lat="43.21674" lon="5.46836">
        <ele>506.8</ele>
        <time>2019-02-15T15:43:03.000Z</time>
      </trkpt>
      <trkpt lat="43.21688" lon="5.46817">
        <ele>507.6</ele>
        <time>2019-02-15T15:43:12.000Z</time>
      </trkpt>
      <trkpt lat="43.21704" lon="5.46804">
        <ele>508.6</ele>
        <time>2019-02-15T15:43:21.000Z</time>
      </trkpt>
      <trkpt lat="43.21721" lon="5.4679">
        <ele>508.2</ele>
        <time>2019-02-15T15:43:30.000Z</time>
      </trkpt>
      <trkpt lat="43.21734" lon="5.46781">
        <ele>508.6</ele>
        <time>2019-02-15T15:44:23.000Z</time>
      </trkpt>
      <trkpt lat="43.21749" lon="5.46768">
        <ele>508.4</ele>
        <time>2019-02-15T15:44:32.000Z</time>
      </trkpt>
      <trkpt lat="43.21766" lon="5.46754">
        <ele>508.8</ele>
        <time>2019-02-15T15:44:40.000Z</time>
      </trkpt>
      <trkpt lat="43.21785" lon="5.46744">
        <ele>508.8</ele>
        <time>2019-02-15T15:44:48.000Z</time>
      </trkpt>
      <trkpt lat="43.21802" lon="5.46734">
        <ele>508.2</ele>
        <time>2019-02-15T15:44:55.000Z</time>
      </trkpt>
      <trkpt lat="43.21819" lon="5.46725">
        <ele>509</ele>
        <time>2019-02-15T15:45:02.000Z</time>
      </trkpt>
      <trkpt lat="43.21838" lon="5.46717">
        <ele>512.6</ele>
        <time>2019-02-15T15:45:10.000Z</time>
      </trkpt>
      <trkpt lat="43.21855" lon="5.46713">
        <ele>516</ele>
        <time>2019-02-15T15:45:18.000Z</time>
      </trkpt>
      <trkpt lat="43.21873" lon="5.46706">
        <ele>514.6</ele>
        <time>2019-02-15T15:45:30.000Z</time>
      </trkpt>
      <trkpt lat="43.21891" lon="5.46698">
        <ele>516.4</ele>
        <time>2019-02-15T15:45:38.000Z</time>
      </trkpt>
      <trkpt lat="43.2191" lon="5.46693">
        <ele>518.8</ele>
        <time>2019-02-15T15:45:46.000Z</time>
      </trkpt>
      <trkpt lat="43.21925" lon="5.46691">
        <ele>520.6</ele>
        <time>2019-02-15T15:45:55.000Z</time>
      </trkpt>
      <trkpt lat="43.21945" lon="5.46687">
        <ele>519</ele>
        <time>2019-02-15T15:46:08.000Z</time>
      </trkpt>
      <trkpt lat="43.21963" lon="5.46686">
        <ele>522.6</ele>
        <time>2019-02-15T15:46:16.000Z</time>
      </trkpt>
      <trkpt lat="43.21968" lon="5.46686">
        <ele>521.6</ele>
        <time>2019-02-15T15:46:20.000Z</time>
      </trkpt>
      <trkpt lat="43.21983" lon="5.46678">
        <ele>517.4</ele>
        <time>2019-02-15T15:46:33.000Z</time>
      </trkpt>
      <trkpt lat="43.22" lon="5.46664">
        <ele>516.6</ele>
        <time>2019-02-15T15:46:40.000Z</time>
      </trkpt>
      <trkpt lat="43.22016" lon="5.46649">
        <ele>516</ele>
        <time>2019-02-15T15:46:47.000Z</time>
      </trkpt>
      <trkpt lat="43.2203" lon="5.4663">
        <ele>516.2</ele>
        <time>2019-02-15T15:46:54.000Z</time>
      </trkpt>
      <trkpt lat="43.22034" lon="5.46626">
        <ele>516.4</ele>
        <time>2019-02-15T15:46:58.000Z</time>
      </trkpt>
      <trkpt lat="43.22043" lon="5.46615">
        <ele>518</ele>
        <time>2019-02-15T15:48:57.000Z</time>
      </trkpt>
      <trkpt lat="43.22051" lon="5.46593">
        <ele>517.4</ele>
        <time>2019-02-15T15:49:17.000Z</time>
      </trkpt>
      <trkpt lat="43.22052" lon="5.46568">
        <ele>518</ele>
        <time>2019-02-15T15:49:34.000Z</time>
      </trkpt>
      <trkpt lat="43.22047" lon="5.46543">
        <ele>519.4</ele>
        <time>2019-02-15T15:49:42.000Z</time>
      </trkpt>
      <trkpt lat="43.22045" lon="5.46516">
        <ele>522.2</ele>
        <time>2019-02-15T15:49:51.000Z</time>
      </trkpt>
      <trkpt lat="43.22041" lon="5.4649">
        <ele>525.8</ele>
        <time>2019-02-15T15:50:01.000Z</time>
      </trkpt>
      <trkpt lat="43.22041" lon="5.4648">
        <ele>525.2</ele>
        <time>2019-02-15T15:50:07.000Z</time>
      </trkpt>
      <trkpt lat="43.22043" lon="5.46455">
        <ele>524</ele>
        <time>2019-02-15T15:50:24.000Z</time>
      </trkpt>
      <trkpt lat="43.22035" lon="5.46435">
        <ele>525</ele>
        <time>2019-02-15T15:50:33.000Z</time>
      </trkpt>
      <trkpt lat="43.22024" lon="5.46413">
        <ele>526.6</ele>
        <time>2019-02-15T15:50:42.000Z</time>
      </trkpt>
      <trkpt lat="43.22019" lon="5.46389">
        <ele>525.8</ele>
        <time>2019-02-15T15:50:51.000Z</time>
      </trkpt>
      <trkpt lat="43.22019" lon="5.46381">
        <ele>525.8</ele>
        <time>2019-02-15T15:50:55.000Z</time>
      </trkpt>
      <trkpt lat="43.22018" lon="5.46367">
        <ele>524</ele>
        <time>2019-02-15T15:51:03.000Z</time>
      </trkpt>
      <trkpt lat="43.22024" lon="5.46343">
        <ele>522.4</ele>
        <time>2019-02-15T15:51:11.000Z</time>
      </trkpt>
      <trkpt lat="43.22028" lon="5.46316">
        <ele>521.8</ele>
        <time>2019-02-15T15:51:19.000Z</time>
      </trkpt>
      <trkpt lat="43.22036" lon="5.46291">
        <ele>523</ele>
        <time>2019-02-15T15:51:27.000Z</time>
      </trkpt>
      <trkpt lat="43.2204" lon="5.46263">
        <ele>522.6</ele>
        <time>2019-02-15T15:51:35.000Z</time>
      </trkpt>
      <trkpt lat="43.22039" lon="5.46238">
        <ele>521.6</ele>
        <time>2019-02-15T15:51:42.000Z</time>
      </trkpt>
      <trkpt lat="43.22043" lon="5.46211">
        <ele>520</ele>
        <time>2019-02-15T15:51:50.000Z</time>
      </trkpt>
      <trkpt lat="43.22044" lon="5.46184">
        <ele>520.2</ele>
        <time>2019-02-15T15:51:58.000Z</time>
      </trkpt>
      <trkpt lat="43.2205" lon="5.4616">
        <ele>520.2</ele>
        <time>2019-02-15T15:52:05.000Z</time>
      </trkpt>
      <trkpt lat="43.22067" lon="5.46149">
        <ele>520.4</ele>
        <time>2019-02-15T15:52:12.000Z</time>
      </trkpt>
      <trkpt lat="43.22085" lon="5.46146">
        <ele>520.6</ele>
        <time>2019-02-15T15:52:19.000Z</time>
      </trkpt>
      <trkpt lat="43.22104" lon="5.46139">
        <ele>520.6</ele>
        <time>2019-02-15T15:52:27.000Z</time>
      </trkpt>
      <trkpt lat="43.2212" lon="5.46127">
        <ele>522</ele>
        <time>2019-02-15T15:52:35.000Z</time>
      </trkpt>
      <trkpt lat="43.22135" lon="5.46112">
        <ele>523</ele>
        <time>2019-02-15T15:52:43.000Z</time>
      </trkpt>
      <trkpt lat="43.22146" lon="5.46091">
        <ele>524</ele>
        <time>2019-02-15T15:52:51.000Z</time>
      </trkpt>
      <trkpt lat="43.22157" lon="5.46068">
        <ele>523.6</ele>
        <time>2019-02-15T15:53:00.000Z</time>
      </trkpt>
      <trkpt lat="43.22167" lon="5.46046">
        <ele>526.2</ele>
        <time>2019-02-15T15:53:13.000Z</time>
      </trkpt>
      <trkpt lat="43.22184" lon="5.46034">
        <ele>525.4</ele>
        <time>2019-02-15T15:53:25.000Z</time>
      </trkpt>
      <trkpt lat="43.22186" lon="5.46033">
        <ele>525.2</ele>
        <time>2019-02-15T15:53:27.000Z</time>
      </trkpt>
      <trkpt lat="43.22193" lon="5.46032">
        <ele>525.6</ele>
        <time>2019-02-15T15:53:31.000Z</time>
      </trkpt>
      <trkpt lat="43.22199" lon="5.4603">
        <ele>526.6</ele>
        <time>2019-02-15T15:53:37.000Z</time>
      </trkpt>
      <trkpt lat="43.22217" lon="5.46035">
        <ele>525</ele>
        <time>2019-02-15T15:53:47.000Z</time>
      </trkpt>
      <trkpt lat="43.22235" lon="5.46028">
        <ele>523</ele>
        <time>2019-02-15T15:53:57.000Z</time>
      </trkpt>
      <trkpt lat="43.22251" lon="5.46015">
        <ele>523.2</ele>
        <time>2019-02-15T15:54:06.000Z</time>
      </trkpt>
      <trkpt lat="43.22266" lon="5.46">
        <ele>523.6</ele>
        <time>2019-02-15T15:54:15.000Z</time>
      </trkpt>
      <trkpt lat="43.2228" lon="5.45985">
        <ele>523.8</ele>
        <time>2019-02-15T15:54:23.000Z</time>
      </trkpt>
      <trkpt lat="43.22295" lon="5.45971">
        <ele>521</ele>
        <time>2019-02-15T15:54:38.000Z</time>
      </trkpt>
      <trkpt lat="43.22305" lon="5.45949">
        <ele>519</ele>
        <time>2019-02-15T15:54:48.000Z</time>
      </trkpt>
      <trkpt lat="43.22309" lon="5.45923">
        <ele>519.4</ele>
        <time>2019-02-15T15:54:57.000Z</time>
      </trkpt>
      <trkpt lat="43.22319" lon="5.45901">
        <ele>519.6</ele>
        <time>2019-02-15T15:55:07.000Z</time>
      </trkpt>
      <trkpt lat="43.22331" lon="5.45888">
        <ele>519.2</ele>
        <time>2019-02-15T15:55:16.000Z</time>
      </trkpt>
      <trkpt lat="43.22344" lon="5.45867">
        <ele>521.6</ele>
        <time>2019-02-15T15:55:27.000Z</time>
      </trkpt>
      <trkpt lat="43.22357" lon="5.45848">
        <ele>523.2</ele>
        <time>2019-02-15T15:55:39.000Z</time>
      </trkpt>
      <trkpt lat="43.22371" lon="5.4583">
        <ele>522.6</ele>
        <time>2019-02-15T15:55:48.000Z</time>
      </trkpt>
      <trkpt lat="43.22383" lon="5.45812">
        <ele>521.8</ele>
        <time>2019-02-15T15:55:57.000Z</time>
      </trkpt>
      <trkpt lat="43.22394" lon="5.45789">
        <ele>518.8</ele>
        <time>2019-02-15T15:56:08.000Z</time>
      </trkpt>
      <trkpt lat="43.22402" lon="5.45766">
        <ele>515.4</ele>
        <time>2019-02-15T15:56:21.000Z</time>
      </trkpt>
      <trkpt lat="43.22408" lon="5.45741">
        <ele>513.4</ele>
        <time>2019-02-15T15:56:32.000Z</time>
      </trkpt>
      <trkpt lat="43.22406" lon="5.45715">
        <ele>514.4</ele>
        <time>2019-02-15T15:56:39.000Z</time>
      </trkpt>
      <trkpt lat="43.22404" lon="5.4569">
        <ele>517.4</ele>
        <time>2019-02-15T15:56:48.000Z</time>
      </trkpt>
      <trkpt lat="43.22404" lon="5.45665">
        <ele>517.2</ele>
        <time>2019-02-15T15:56:58.000Z</time>
      </trkpt>
      <trkpt lat="43.22405" lon="5.45637">
        <ele>513.8</ele>
        <time>2019-02-15T15:57:09.000Z</time>
      </trkpt>
      <trkpt lat="43.22408" lon="5.45612">
        <ele>514.4</ele>
        <time>2019-02-15T15:57:18.000Z</time>
      </trkpt>
      <trkpt lat="43.22421" lon="5.45593">
        <ele>511.4</ele>
        <time>2019-02-15T15:57:30.000Z</time>
      </trkpt>
      <trkpt lat="43.22438" lon="5.45582">
        <ele>511.2</ele>
        <time>2019-02-15T15:57:39.000Z</time>
      </trkpt>
      <trkpt lat="43.22457" lon="5.45577">
        <ele>511.6</ele>
        <time>2019-02-15T15:57:47.000Z</time>
      </trkpt>
      <trkpt lat="43.22475" lon="5.45572">
        <ele>509.8</ele>
        <time>2019-02-15T15:57:56.000Z</time>
      </trkpt>
      <trkpt lat="43.22493" lon="5.45573">
        <ele>507.4</ele>
        <time>2019-02-15T15:58:05.000Z</time>
      </trkpt>
      <trkpt lat="43.22509" lon="5.45575">
        <ele>505.4</ele>
        <time>2019-02-15T15:58:30.000Z</time>
      </trkpt>
      <trkpt lat="43.2251" lon="5.45575">
        <ele>505.2</ele>
        <time>2019-02-15T15:58:32.000Z</time>
      </trkpt>
      <trkpt lat="43.22524" lon="5.45584">
        <ele>507.6</ele>
        <time>2019-02-15T15:59:22.000Z</time>
      </trkpt>
      <trkpt lat="43.22529" lon="5.45564">
        <ele>504.6</ele>
        <time>2019-02-15T15:59:56.000Z</time>
      </trkpt>
      <trkpt lat="43.22521" lon="5.45557">
        <ele>500.4</ele>
        <time>2019-02-15T16:00:06.000Z</time>
      </trkpt>
      <trkpt lat="43.22523" lon="5.45544">
        <ele>485.2</ele>
        <time>2019-02-15T16:00:32.000Z</time>
      </trkpt>
      <trkpt lat="43.22532" lon="5.45535">
        <ele>477.8</ele>
        <time>2019-02-15T16:00:44.000Z</time>
      </trkpt>
      <trkpt lat="43.22537" lon="5.45533">
        <ele>479.4</ele>
        <time>2019-02-15T16:00:51.000Z</time>
      </trkpt>
      <trkpt lat="43.22546" lon="5.45525">
        <ele>467.2</ele>
        <time>2019-02-15T16:01:33.000Z</time>
      </trkpt>
      <trkpt lat="43.2256" lon="5.45534">
        <ele>473</ele>
        <time>2019-02-15T16:02:00.000Z</time>
      </trkpt>
      <trkpt lat="43.22577" lon="5.45539">
        <ele>466.2</ele>
        <time>2019-02-15T16:02:21.000Z</time>
      </trkpt>
      <trkpt lat="43.22591" lon="5.45544">
        <ele>461</ele>
        <time>2019-02-15T16:02:54.000Z</time>
      </trkpt>
      <trkpt lat="43.22607" lon="5.45538">
        <ele>434.2</ele>
        <time>2019-02-15T16:03:29.000Z</time>
      </trkpt>
      <trkpt lat="43.22625" lon="5.45535">
        <ele>422.8</ele>
        <time>2019-02-15T16:04:01.000Z</time>
      </trkpt>
      <trkpt lat="43.22639" lon="5.45539">
        <ele>414.4</ele>
        <time>2019-02-15T16:04:14.000Z</time>
      </trkpt>
      <trkpt lat="43.22641" lon="5.4554">
        <ele>413.4</ele>
        <time>2019-02-15T16:04:16.000Z</time>
      </trkpt>
      <trkpt lat="43.22643" lon="5.45542">
        <ele>411.6</ele>
        <time>2019-02-15T16:04:20.000Z</time>
      </trkpt>
      <trkpt lat="43.22662" lon="5.45539">
        <ele>406.8</ele>
        <time>2019-02-15T16:04:35.000Z</time>
      </trkpt>
      <trkpt lat="43.22671" lon="5.45531">
        <ele>394.6</ele>
        <time>2019-02-15T16:04:58.000Z</time>
      </trkpt>
      <trkpt lat="43.22675" lon="5.45533">
        <ele>393.6</ele>
        <time>2019-02-15T16:05:01.000Z</time>
      </trkpt>
      <trkpt lat="43.22684" lon="5.45539">
        <ele>390</ele>
        <time>2019-02-15T16:05:09.000Z</time>
      </trkpt>
      <trkpt lat="43.22683" lon="5.45533">
        <ele>387.4</ele>
        <time>2019-02-15T16:05:13.000Z</time>
      </trkpt>
      <trkpt lat="43.22685" lon="5.45523">
        <ele>384.6</ele>
        <time>2019-02-15T16:05:21.000Z</time>
      </trkpt>
      <trkpt lat="43.22687" lon="5.45521">
        <ele>383.2</ele>
        <time>2019-02-15T16:05:24.000Z</time>
      </trkpt>
      <trkpt lat="43.22687" lon="5.45516">
        <ele>382.2</ele>
        <time>2019-02-15T16:05:27.000Z</time>
      </trkpt>
      <trkpt lat="43.22686" lon="5.45511">
        <ele>380.8</ele>
        <time>2019-02-15T16:05:30.000Z</time>
      </trkpt>
      <trkpt lat="43.22686" lon="5.45509">
        <ele>380.4</ele>
        <time>2019-02-15T16:05:32.000Z</time>
      </trkpt>
      <trkpt lat="43.22693" lon="5.455">
        <ele>374.4</ele>
        <time>2019-02-15T16:05:46.000Z</time>
      </trkpt>
      <trkpt lat="43.22692" lon="5.45488">
        <ele>372.6</ele>
        <time>2019-02-15T16:05:52.000Z</time>
      </trkpt>
      <trkpt lat="43.22692" lon="5.45484">
        <ele>371</ele>
        <time>2019-02-15T16:05:55.000Z</time>
      </trkpt>
      <trkpt lat="43.22691" lon="5.45475">
        <ele>371.6</ele>
        <time>2019-02-15T16:05:59.000Z</time>
      </trkpt>
      <trkpt lat="43.22688" lon="5.45459">
        <ele>371</ele>
        <time>2019-02-15T16:06:05.000Z</time>
      </trkpt>
      <trkpt lat="43.22693" lon="5.45446">
        <ele>369.8</ele>
        <time>2019-02-15T16:06:12.000Z</time>
      </trkpt>
      <trkpt lat="43.22691" lon="5.45443">
        <ele>369.2</ele>
        <time>2019-02-15T16:06:15.000Z</time>
      </trkpt>
      <trkpt lat="43.22691" lon="5.45443">
        <ele>369.4</ele>
        <time>2019-02-15T16:06:17.000Z</time>
      </trkpt>
      <trkpt lat="43.22678" lon="5.45444">
        <ele>368.2</ele>
        <time>2019-02-15T16:07:31.000Z</time>
      </trkpt>
      <trkpt lat="43.22663" lon="5.45447">
        <ele>370.2</ele>
        <time>2019-02-15T16:08:14.000Z</time>
      </trkpt>
      <trkpt lat="43.22643" lon="5.45438">
        <ele>369.6</ele>
        <time>2019-02-15T16:08:23.000Z</time>
      </trkpt>
      <trkpt lat="43.2263" lon="5.45422">
        <ele>368.4</ele>
        <time>2019-02-15T16:08:30.000Z</time>
      </trkpt>
      <trkpt lat="43.22612" lon="5.45413">
        <ele>364.6</ele>
        <time>2019-02-15T16:08:38.000Z</time>
      </trkpt>
      <trkpt lat="43.22595" lon="5.45403">
        <ele>359.6</ele>
        <time>2019-02-15T16:08:46.000Z</time>
      </trkpt>
      <trkpt lat="43.22581" lon="5.45385">
        <ele>358.2</ele>
        <time>2019-02-15T16:08:53.000Z</time>
      </trkpt>
      <trkpt lat="43.22575" lon="5.4536">
        <ele>361.2</ele>
        <time>2019-02-15T16:09:00.000Z</time>
      </trkpt>
      <trkpt lat="43.22563" lon="5.45338">
        <ele>363.8</ele>
        <time>2019-02-15T16:09:07.000Z</time>
      </trkpt>
      <trkpt lat="43.22557" lon="5.45315">
        <ele>363.6</ele>
        <time>2019-02-15T16:09:14.000Z</time>
      </trkpt>
      <trkpt lat="43.22557" lon="5.45288">
        <ele>365.8</ele>
        <time>2019-02-15T16:09:21.000Z</time>
      </trkpt>
      <trkpt lat="43.22563" lon="5.45263">
        <ele>368.4</ele>
        <time>2019-02-15T16:09:28.000Z</time>
      </trkpt>
      <trkpt lat="43.22567" lon="5.45237">
        <ele>368.2</ele>
        <time>2019-02-15T16:09:36.000Z</time>
      </trkpt>
      <trkpt lat="43.2256" lon="5.45213">
        <ele>372</ele>
        <time>2019-02-15T16:09:44.000Z</time>
      </trkpt>
      <trkpt lat="43.22548" lon="5.45194">
        <ele>376.8</ele>
        <time>2019-02-15T16:09:52.000Z</time>
      </trkpt>
      <trkpt lat="43.22532" lon="5.45176">
        <ele>378.4</ele>
        <time>2019-02-15T16:10:00.000Z</time>
      </trkpt>
      <trkpt lat="43.22516" lon="5.45164">
        <ele>376.2</ele>
        <time>2019-02-15T16:10:07.000Z</time>
      </trkpt>
      <trkpt lat="43.22497" lon="5.4516">
        <ele>372.6</ele>
        <time>2019-02-15T16:10:14.000Z</time>
      </trkpt>
      <trkpt lat="43.2248" lon="5.45152">
        <ele>370</ele>
        <time>2019-02-15T16:10:21.000Z</time>
      </trkpt>
      <trkpt lat="43.22461" lon="5.45156">
        <ele>367.2</ele>
        <time>2019-02-15T16:10:28.000Z</time>
      </trkpt>
      <trkpt lat="43.22443" lon="5.45156">
        <ele>366.4</ele>
        <time>2019-02-15T16:10:34.000Z</time>
      </trkpt>
      <trkpt lat="43.22428" lon="5.45137">
        <ele>365.8</ele>
        <time>2019-02-15T16:10:41.000Z</time>
      </trkpt>
      <trkpt lat="43.22412" lon="5.45118">
        <ele>364.8</ele>
        <time>2019-02-15T16:10:48.000Z</time>
      </trkpt>
      <trkpt lat="43.22399" lon="5.45097">
        <ele>362.6</ele>
        <time>2019-02-15T16:10:55.000Z</time>
      </trkpt>
      <trkpt lat="43.22383" lon="5.4508">
        <ele>358.8</ele>
        <time>2019-02-15T16:11:02.000Z</time>
      </trkpt>
      <trkpt lat="43.22364" lon="5.45074">
        <ele>354</ele>
        <time>2019-02-15T16:11:09.000Z</time>
      </trkpt>
      <trkpt lat="43.22345" lon="5.45078">
        <ele>349.6</ele>
        <time>2019-02-15T16:11:16.000Z</time>
      </trkpt>
      <trkpt lat="43.22328" lon="5.45087">
        <ele>347.6</ele>
        <time>2019-02-15T16:11:22.000Z</time>
      </trkpt>
      <trkpt lat="43.22308" lon="5.45087">
        <ele>345.4</ele>
        <time>2019-02-15T16:11:29.000Z</time>
      </trkpt>
      <trkpt lat="43.22287" lon="5.45088">
        <ele>343.8</ele>
        <time>2019-02-15T16:11:36.000Z</time>
      </trkpt>
      <trkpt lat="43.22267" lon="5.45091">
        <ele>340.8</ele>
        <time>2019-02-15T16:11:43.000Z</time>
      </trkpt>
      <trkpt lat="43.2225" lon="5.45099">
        <ele>338.6</ele>
        <time>2019-02-15T16:11:49.000Z</time>
      </trkpt>
      <trkpt lat="43.22231" lon="5.45104">
        <ele>339.6</ele>
        <time>2019-02-15T16:11:55.000Z</time>
      </trkpt>
      <trkpt lat="43.22213" lon="5.451">
        <ele>337.4</ele>
        <time>2019-02-15T16:12:01.000Z</time>
      </trkpt>
      <trkpt lat="43.22193" lon="5.45095">
        <ele>335.6</ele>
        <time>2019-02-15T16:12:08.000Z</time>
      </trkpt>
      <trkpt lat="43.22174" lon="5.45092">
        <ele>330.6</ele>
        <time>2019-02-15T16:12:15.000Z</time>
      </trkpt>
      <trkpt lat="43.22155" lon="5.45089">
        <ele>325.6</ele>
        <time>2019-02-15T16:12:22.000Z</time>
      </trkpt>
      <trkpt lat="43.22137" lon="5.45092">
        <ele>324.8</ele>
        <time>2019-02-15T16:12:28.000Z</time>
      </trkpt>
      <trkpt lat="43.22117" lon="5.45098">
        <ele>321.6</ele>
        <time>2019-02-15T16:12:35.000Z</time>
      </trkpt>
      <trkpt lat="43.22099" lon="5.45109">
        <ele>321.8</ele>
        <time>2019-02-15T16:12:42.000Z</time>
      </trkpt>
      <trkpt lat="43.22083" lon="5.45124">
        <ele>322.2</ele>
        <time>2019-02-15T16:12:48.000Z</time>
      </trkpt>
      <trkpt lat="43.22063" lon="5.45131">
        <ele>319.2</ele>
        <time>2019-02-15T16:12:55.000Z</time>
      </trkpt>
      <trkpt lat="43.22043" lon="5.45136">
        <ele>316</ele>
        <time>2019-02-15T16:13:02.000Z</time>
      </trkpt>
      <trkpt lat="43.22025" lon="5.4514">
        <ele>312.6</ele>
        <time>2019-02-15T16:13:08.000Z</time>
      </trkpt>
      <trkpt lat="43.22006" lon="5.45148">
        <ele>310</ele>
        <time>2019-02-15T16:13:14.000Z</time>
      </trkpt>
      <trkpt lat="43.21988" lon="5.45158">
        <ele>311</ele>
        <time>2019-02-15T16:13:21.000Z</time>
      </trkpt>
      <trkpt lat="43.2197" lon="5.45167">
        <ele>312.8</ele>
        <time>2019-02-15T16:13:28.000Z</time>
      </trkpt>
      <trkpt lat="43.21953" lon="5.45183">
        <ele>311.6</ele>
        <time>2019-02-15T16:13:36.000Z</time>
      </trkpt>
      <trkpt lat="43.21936" lon="5.45191">
        <ele>309</ele>
        <time>2019-02-15T16:13:42.000Z</time>
      </trkpt>
      <trkpt lat="43.21917" lon="5.45197">
        <ele>305.2</ele>
        <time>2019-02-15T16:13:49.000Z</time>
      </trkpt>
      <trkpt lat="43.219" lon="5.45211">
        <ele>303.4</ele>
        <time>2019-02-15T16:13:56.000Z</time>
      </trkpt>
      <trkpt lat="43.2189" lon="5.45219">
        <ele>303</ele>
        <time>2019-02-15T16:14:02.000Z</time>
      </trkpt>
      <trkpt lat="43.21882" lon="5.45241">
        <ele>298.8</ele>
        <time>2019-02-15T16:14:16.000Z</time>
      </trkpt>
      <trkpt lat="43.21888" lon="5.45267">
        <ele>300</ele>
        <time>2019-02-15T16:14:24.000Z</time>
      </trkpt>
      <trkpt lat="43.21897" lon="5.4529">
        <ele>300.4</ele>
        <time>2019-02-15T16:14:31.000Z</time>
      </trkpt>
      <trkpt lat="43.21909" lon="5.45313">
        <ele>302.2</ele>
        <time>2019-02-15T16:14:39.000Z</time>
      </trkpt>
      <trkpt lat="43.21921" lon="5.45333">
        <ele>303.2</ele>
        <time>2019-02-15T16:14:47.000Z</time>
      </trkpt>
      <trkpt lat="43.21935" lon="5.45352">
        <ele>305.4</ele>
        <time>2019-02-15T16:14:55.000Z</time>
      </trkpt>
      <trkpt lat="43.2195" lon="5.45369">
        <ele>307.2</ele>
        <time>2019-02-15T16:15:03.000Z</time>
      </trkpt>
      <trkpt lat="43.21957" lon="5.45393">
        <ele>308.6</ele>
        <time>2019-02-15T16:15:12.000Z</time>
      </trkpt>
      <trkpt lat="43.21941" lon="5.45406">
        <ele>307.6</ele>
        <time>2019-02-15T16:15:19.000Z</time>
      </trkpt>
      <trkpt lat="43.21921" lon="5.45413">
        <ele>308.2</ele>
        <time>2019-02-15T16:15:26.000Z</time>
      </trkpt>
      <trkpt lat="43.21902" lon="5.4542">
        <ele>309.8</ele>
        <time>2019-02-15T16:15:33.000Z</time>
      </trkpt>
      <trkpt lat="43.21881" lon="5.45421">
        <ele>310.8</ele>
        <time>2019-02-15T16:15:40.000Z</time>
      </trkpt>
      <trkpt lat="43.21862" lon="5.45428">
        <ele>311.6</ele>
        <time>2019-02-15T16:15:47.000Z</time>
      </trkpt>
      <trkpt lat="43.21844" lon="5.45432">
        <ele>311.8</ele>
        <time>2019-02-15T16:15:53.000Z</time>
      </trkpt>
      <trkpt lat="43.21826" lon="5.45426">
        <ele>312.8</ele>
        <time>2019-02-15T16:15:59.000Z</time>
      </trkpt>
      <trkpt lat="43.21808" lon="5.45417">
        <ele>309.6</ele>
        <time>2019-02-15T16:16:06.000Z</time>
      </trkpt>
      <trkpt lat="43.2179" lon="5.45411">
        <ele>303.6</ele>
        <time>2019-02-15T16:16:14.000Z</time>
      </trkpt>
      <trkpt lat="43.21772" lon="5.45406">
        <ele>297</ele>
        <time>2019-02-15T16:16:21.000Z</time>
      </trkpt>
      <trkpt lat="43.21753" lon="5.45403">
        <ele>292</ele>
        <time>2019-02-15T16:16:28.000Z</time>
      </trkpt>
      <trkpt lat="43.21734" lon="5.45396">
        <ele>287.8</ele>
        <time>2019-02-15T16:16:35.000Z</time>
      </trkpt>
      <trkpt lat="43.21715" lon="5.45391">
        <ele>283.6</ele>
        <time>2019-02-15T16:16:42.000Z</time>
      </trkpt>
      <trkpt lat="43.21699" lon="5.45397">
        <ele>281.4</ele>
        <time>2019-02-15T16:16:49.000Z</time>
      </trkpt>
      <trkpt lat="43.21681" lon="5.45403">
        <ele>280.8</ele>
        <time>2019-02-15T16:16:56.000Z</time>
      </trkpt>
      <trkpt lat="43.21669" lon="5.45401">
        <ele>279.6</ele>
        <time>2019-02-15T16:17:01.000Z</time>
      </trkpt>
      <trkpt lat="43.21654" lon="5.45417">
        <ele>279.6</ele>
        <time>2019-02-15T16:17:09.000Z</time>
      </trkpt>
      <trkpt lat="43.21637" lon="5.45429">
        <ele>275.4</ele>
        <time>2019-02-15T16:17:18.000Z</time>
      </trkpt>
      <trkpt lat="43.21625" lon="5.45451">
        <ele>270.8</ele>
        <time>2019-02-15T16:17:26.000Z</time>
      </trkpt>
      <trkpt lat="43.21609" lon="5.45464">
        <ele>270.6</ele>
        <time>2019-02-15T16:17:34.000Z</time>
      </trkpt>
      <trkpt lat="43.21594" lon="5.45466">
        <ele>269</ele>
        <time>2019-02-15T16:18:20.000Z</time>
      </trkpt>
      <trkpt lat="43.21578" lon="5.45452">
        <ele>267.4</ele>
        <time>2019-02-15T16:18:29.000Z</time>
      </trkpt>
      <trkpt lat="43.21575" lon="5.4545">
        <ele>266.8</ele>
        <time>2019-02-15T16:18:31.000Z</time>
      </trkpt>
      <trkpt lat="43.21572" lon="5.45427">
        <ele>265</ele>
        <time>2019-02-15T16:18:39.000Z</time>
      </trkpt>
      <trkpt lat="43.21577" lon="5.45403">
        <ele>262</ele>
        <time>2019-02-15T16:18:47.000Z</time>
      </trkpt>
      <trkpt lat="43.2158" lon="5.45378">
        <ele>258.8</ele>
        <time>2019-02-15T16:18:53.000Z</time>
      </trkpt>
      <trkpt lat="43.21579" lon="5.45354">
        <ele>258.2</ele>
        <time>2019-02-15T16:19:00.000Z</time>
      </trkpt>
      <trkpt lat="43.21586" lon="5.45331">
        <ele>254.8</ele>
        <time>2019-02-15T16:19:13.000Z</time>
      </trkpt>
      <trkpt lat="43.216" lon="5.45316">
        <ele>251.2</ele>
        <time>2019-02-15T16:19:25.000Z</time>
      </trkpt>
      <trkpt lat="43.21603" lon="5.45309">
        <ele>248.4</ele>
        <time>2019-02-15T16:19:29.000Z</time>
      </trkpt>
      <trkpt lat="43.21602" lon="5.45304">
        <ele>246.4</ele>
        <time>2019-02-15T16:19:32.000Z</time>
      </trkpt>
      <trkpt lat="43.21599" lon="5.45302">
        <ele>244.8</ele>
        <time>2019-02-15T16:19:34.000Z</time>
      </trkpt>
      <trkpt lat="43.2158" lon="5.45303">
        <ele>240.2</ele>
        <time>2019-02-15T16:19:45.000Z</time>
      </trkpt>
      <trkpt lat="43.21563" lon="5.45314">
        <ele>231.6</ele>
        <time>2019-02-15T16:19:57.000Z</time>
      </trkpt>
      <trkpt lat="43.21558" lon="5.45315">
        <ele>230.6</ele>
        <time>2019-02-15T16:20:00.000Z</time>
      </trkpt>
      <trkpt lat="43.21548" lon="5.45294">
        <ele>228</ele>
        <time>2019-02-15T16:20:09.000Z</time>
      </trkpt>
      <trkpt lat="43.2156" lon="5.45276">
        <ele>222</ele>
        <time>2019-02-15T16:20:18.000Z</time>
      </trkpt>
      <trkpt lat="43.21573" lon="5.45258">
        <ele>217.2</ele>
        <time>2019-02-15T16:20:28.000Z</time>
      </trkpt>
      <trkpt lat="43.21583" lon="5.45237">
        <ele>210.8</ele>
        <time>2019-02-15T16:20:38.000Z</time>
      </trkpt>
      <trkpt lat="43.21592" lon="5.45216">
        <ele>208</ele>
        <time>2019-02-15T16:20:46.000Z</time>
      </trkpt>
      <trkpt lat="43.21602" lon="5.45197">
        <ele>204.8</ele>
        <time>2019-02-15T16:20:56.000Z</time>
      </trkpt>
      <trkpt lat="43.21602" lon="5.45197">
        <ele>207.2</ele>
        <time>2019-02-15T16:20:58.000Z</time>
      </trkpt>
      <trkpt lat="43.21589" lon="5.45181">
        <ele>205</ele>
        <time>2019-02-15T16:21:17.000Z</time>
      </trkpt>
      <trkpt lat="43.21581" lon="5.45158">
        <ele>198.4</ele>
        <time>2019-02-15T16:21:33.000Z</time>
      </trkpt>
      <trkpt lat="43.21565" lon="5.45144">
        <ele>193.2</ele>
        <time>2019-02-15T16:21:41.000Z</time>
      </trkpt>
      <trkpt lat="43.21546" lon="5.45135">
        <ele>187.8</ele>
        <time>2019-02-15T16:21:49.000Z</time>
      </trkpt>
      <trkpt lat="43.21542" lon="5.45132">
        <ele>188</ele>
        <time>2019-02-15T16:21:52.000Z</time>
      </trkpt>
      <trkpt lat="43.21528" lon="5.45115">
        <ele>186.2</ele>
        <time>2019-02-15T16:22:03.000Z</time>
      </trkpt>
      <trkpt lat="43.2151" lon="5.4511">
        <ele>184.2</ele>
        <time>2019-02-15T16:22:13.000Z</time>
      </trkpt>
      <trkpt lat="43.21493" lon="5.45109">
        <ele>183.8</ele>
        <time>2019-02-15T16:22:24.000Z</time>
      </trkpt>
      <trkpt lat="43.2149" lon="5.45111">
        <ele>184</ele>
        <time>2019-02-15T16:22:27.000Z</time>
      </trkpt>
      <trkpt lat="43.21487" lon="5.45112">
        <ele>185</ele>
        <time>2019-02-15T16:22:29.000Z</time>
      </trkpt>
      <trkpt lat="43.21477" lon="5.45128">
        <ele>188.8</ele>
        <time>2019-02-15T16:22:39.000Z</time>
      </trkpt>
      <trkpt lat="43.21469" lon="5.45139">
        <ele>179</ele>
        <time>2019-02-15T16:24:23.000Z</time>
      </trkpt>
      <trkpt lat="43.21466" lon="5.4514">
        <ele>178.4</ele>
        <time>2019-02-15T16:24:27.000Z</time>
      </trkpt>
      <trkpt lat="43.21454" lon="5.45158">
        <ele>179.2</ele>
        <time>2019-02-15T16:24:37.000Z</time>
      </trkpt>
      <trkpt lat="43.21454" lon="5.45159">
        <ele>179.2</ele>
        <time>2019-02-15T16:24:38.000Z</time>
      </trkpt>
      <trkpt lat="43.2144" lon="5.45175">
        <ele>187</ele>
      </trkpt>
      <trkpt lat="43.21427" lon="5.45184">
        <ele>185.2</ele>
      </trkpt>
      <trkpt lat="43.21418" lon="5.45192">
        <ele>185.7</ele>
      </trkpt>
      <trkpt lat="43.21411" lon="5.45205">
        <ele>155.2</ele>
      </trkpt>
      <trkpt lat="43.21406" lon="5.45224">
        <ele>156.2</ele>
      </trkpt>
      <trkpt lat="43.21407" lon="5.45235">
        <ele>160.5</ele>
      </trkpt>
      <trkpt lat="43.21407" lon="5.45244">
        <ele>164.8</ele>
      </trkpt>
      <trkpt lat="43.21407" lon="5.45258">
        <ele>161.1</ele>
      </trkpt>
      <trkpt lat="43.21406" lon="5.45269">
        <ele>154.2</ele>
      </trkpt>
      <trkpt lat="43.21403" lon="5.45285">
        <ele>147.7</ele>
      </trkpt>
      <trkpt lat="43.214" lon="5.45295">
        <ele>145.2</ele>
      </trkpt>
      <trkpt lat="43.21396" lon="5.45309">
        <ele>143.8</ele>
      </trkpt>
      <trkpt lat="43.21391" lon="5.45325">
        <ele>122.6</ele>
        <time>2019-02-15T16:27:54.000Z</time>
      </trkpt>
      <trkpt lat="43.21385" lon="5.45351">
        <ele>114.2</ele>
        <time>2019-02-15T16:28:03.000Z</time>
      </trkpt>
      <trkpt lat="43.2134" lon="5.45512">
        <ele>64.4</ele>
        <time>2019-02-15T16:29:35.000Z</time>
      </trkpt>
      <trkpt lat="43.21324" lon="5.45546">
        <ele>82.4</ele>
        <time>2019-02-15T16:29:51.000Z</time>
      </trkpt>
      <trkpt lat="43.21319" lon="5.4555">
        <ele>82.6</ele>
        <time>2019-02-15T16:29:57.000Z</time>
      </trkpt>
      <trkpt lat="43.21315" lon="5.45547">
        <ele>81.2</ele>
        <time>2019-02-15T16:30:02.000Z</time>
      </trkpt>
      <trkpt lat="43.21314" lon="5.45546">
        <ele>81.2</ele>
        <time>2019-02-15T16:30:04.000Z</time>
      </trkpt>
      <trkpt lat="43.21308" lon="5.45559">
        <ele>93</ele>
      </trkpt>
      <trkpt lat="43.21303" lon="5.45567">
        <ele>72</ele>
        <time>2019-02-15T16:30:23.000Z</time>
      </trkpt>
      <trkpt lat="43.21303" lon="5.45569">
        <ele>70.6</ele>
        <time>2019-02-15T16:30:25.000Z</time>
      </trkpt>
      <trkpt lat="43.21298" lon="5.45592">
        <ele>59.2</ele>
        <time>2019-02-15T16:30:43.000Z</time>
      </trkpt>
      <trkpt lat="43.21295" lon="5.45598">
        <ele>55</ele>
        <time>2019-02-15T16:30:49.000Z</time>
      </trkpt>
      <trkpt lat="43.21295" lon="5.45572">
        <ele>57</ele>
        <time>2019-02-15T16:30:58.000Z</time>
      </trkpt>
      <trkpt lat="43.21299" lon="5.45546">
        <ele>57.4</ele>
        <time>2019-02-15T16:31:07.000Z</time>
      </trkpt>
      <trkpt lat="43.21307" lon="5.45522">
        <ele>58</ele>
        <time>2019-02-15T16:31:16.000Z</time>
      </trkpt>
      <trkpt lat="43.21312" lon="5.45498">
        <ele>59.8</ele>
        <time>2019-02-15T16:31:24.000Z</time>
      </trkpt>
      <trkpt lat="43.21313" lon="5.45472">
        <ele>63</ele>
        <time>2019-02-15T16:31:33.000Z</time>
      </trkpt>
      <trkpt lat="43.21314" lon="5.45448">
        <ele>70.2</ele>
        <time>2019-02-15T16:31:42.000Z</time>
      </trkpt>
      <trkpt lat="43.21321" lon="5.45422">
        <ele>70.8</ele>
        <time>2019-02-15T16:31:52.000Z</time>
      </trkpt>
      <trkpt lat="43.21324" lon="5.45397">
        <ele>73.2</ele>
        <time>2019-02-15T16:32:01.000Z</time>
      </trkpt>
      <trkpt lat="43.21329" lon="5.45373">
        <ele>75.8</ele>
        <time>2019-02-15T16:32:14.000Z</time>
      </trkpt>
      <trkpt lat="43.21334" lon="5.45348">
        <ele>78.4</ele>
        <time>2019-02-15T16:32:25.000Z</time>
      </trkpt>
      <trkpt lat="43.21339" lon="5.45321">
        <ele>81.8</ele>
        <time>2019-02-15T16:32:35.000Z</time>
      </trkpt>
      <trkpt lat="43.21344" lon="5.45297">
        <ele>85</ele>
        <time>2019-02-15T16:32:45.000Z</time>
      </trkpt>
      <trkpt lat="43.21342" lon="5.4527">
        <ele>89.4</ele>
        <time>2019-02-15T16:32:55.000Z</time>
      </trkpt>
      <trkpt lat="43.21334" lon="5.45246">
        <ele>92.2</ele>
        <time>2019-02-15T16:33:11.000Z</time>
      </trkpt>
      <trkpt lat="43.21333" lon="5.45243">
        <ele>89.8</ele>
        <time>2019-02-15T16:33:15.000Z</time>
      </trkpt>
      <trkpt lat="43.21333" lon="5.45248">
        <ele>79.8</ele>
        <time>2019-02-15T16:33:57.000Z</time>
      </trkpt>
      <trkpt lat="43.21336" lon="5.45269">
        <ele>78</ele>
        <time>2019-02-15T16:34:09.000Z</time>
      </trkpt>
      <trkpt lat="43.21335" lon="5.45273">
        <ele>76.2</ele>
        <time>2019-02-15T16:34:12.000Z</time>
      </trkpt>
      <trkpt lat="43.21331" lon="5.45297">
        <ele>70.4</ele>
        <time>2019-02-15T16:34:23.000Z</time>
      </trkpt>
      <trkpt lat="43.21325" lon="5.45322">
        <ele>67.2</ele>
        <time>2019-02-15T16:34:32.000Z</time>
      </trkpt>
      <trkpt lat="43.2132" lon="5.45348">
        <ele>64.4</ele>
        <time>2019-02-15T16:34:41.000Z</time>
      </trkpt>
      <trkpt lat="43.21311" lon="5.4537">
        <ele>53.6</ele>
        <time>2019-02-15T16:34:52.000Z</time>
      </trkpt>
      <trkpt lat="43.21301" lon="5.45391">
        <ele>53.4</ele>
        <time>2019-02-15T16:35:00.000Z</time>
      </trkpt>
      <trkpt lat="43.21298" lon="5.45396">
        <ele>52.2</ele>
        <time>2019-02-15T16:35:03.000Z</time>
      </trkpt>
      <trkpt lat="43.21294" lon="5.45395">
        <ele>51.2</ele>
        <time>2019-02-15T16:35:07.000Z</time>
      </trkpt>
      <trkpt lat="43.21281" lon="5.45409">
        <ele>40.6</ele>
        <time>2019-02-15T16:35:32.000Z</time>
      </trkpt>
      <trkpt lat="43.21278" lon="5.45431">
        <ele>36.6</ele>
        <time>2019-02-15T16:35:45.000Z</time>
      </trkpt>
      <trkpt lat="43.21273" lon="5.45435">
        <ele>35.8</ele>
        <time>2019-02-15T16:35:51.000Z</time>
      </trkpt>
      <trkpt lat="43.21266" lon="5.45447">
        <ele>33.8</ele>
        <time>2019-02-15T16:36:04.000Z</time>
      </trkpt>
      <trkpt lat="43.21256" lon="5.45458">
        <ele>28.6</ele>
        <time>2019-02-15T16:36:15.000Z</time>
      </trkpt>
      <trkpt lat="43.21242" lon="5.45476">
        <ele>25.8</ele>
        <time>2019-02-15T16:36:25.000Z</time>
      </trkpt>
      <trkpt lat="43.21231" lon="5.45484">
        <ele>20</ele>
        <time>2019-02-15T16:36:34.000Z</time>
      </trkpt>
      <trkpt lat="43.21229" lon="5.45484">
        <ele>20.2</ele>
        <time>2019-02-15T16:36:37.000Z</time>
      </trkpt>
      <trkpt lat="43.21222" lon="5.45503">
        <ele>14.2</ele>
        <time>2019-02-15T16:37:01.000Z</time>
      </trkpt>
      <trkpt lat="43.21211" lon="5.45521">
        <ele>10.4</ele>
        <time>2019-02-15T16:37:18.000Z</time>
      </trkpt>
      <trkpt lat="43.21209" lon="5.45519">
        <ele>10.8</ele>
        <time>2019-02-15T16:37:20.000Z</time>
      </trkpt>
      <trkpt lat="43.21207" lon="5.4551">
        <ele>11</ele>
        <time>2019-02-15T16:37:26.000Z</time>
      </trkpt>
      <trkpt lat="43.21212" lon="5.45487">
        <ele>9.8</ele>
        <time>2019-02-15T16:37:45.000Z</time>
      </trkpt>
      <trkpt lat="43.21223" lon="5.45466">
        <ele>11.2</ele>
        <time>2019-02-15T16:37:58.000Z</time>
      </trkpt>
      <trkpt lat="43.21237" lon="5.45448">
        <ele>19.6</ele>
        <time>2019-02-15T16:38:12.000Z</time>
      </trkpt>
      <trkpt lat="43.21238" lon="5.45444">
        <ele>20.4</ele>
        <time>2019-02-15T16:38:14.000Z</time>
      </trkpt>
      <trkpt lat="43.21233" lon="5.45432">
        <ele>19.6</ele>
        <time>2019-02-15T16:38:21.000Z</time>
      </trkpt>
      <trkpt lat="43.21233" lon="5.45416">
        <ele>13</ele>
        <time>2019-02-15T16:38:31.000Z</time>
      </trkpt>
      <trkpt lat="43.21232" lon="5.45413">
        <ele>13.2</ele>
        <time>2019-02-15T16:38:33.000Z</time>
      </trkpt>
      <trkpt lat="43.21229" lon="5.45393">
        <ele>12.8</ele>
        <time>2019-02-15T16:38:48.000Z</time>
      </trkpt>
      <trkpt lat="43.21225" lon="5.45387">
        <ele>12.4</ele>
        <time>2019-02-15T16:38:53.000Z</time>
      </trkpt>
      <trkpt lat="43.21218" lon="5.45381">
        <ele>12</ele>
        <time>2019-02-15T16:39:05.000Z</time>
      </trkpt>
      <trkpt lat="43.21212" lon="5.45359">
        <ele>7</ele>
        <time>2019-02-15T16:39:21.000Z</time>
      </trkpt>
      <trkpt lat="43.21193" lon="5.45362">
        <ele>18</ele>
        <time>2019-02-15T16:39:47.000Z</time>
      </trkpt>
      <trkpt lat="43.21182" lon="5.4536">
        <ele>27.4</ele>
        <time>2019-02-15T16:40:24.000Z</time>
      </trkpt>
      <trkpt lat="43.21172" lon="5.45367">
        <ele>41.4</ele>
        <time>2019-02-15T16:40:59.000Z</time>
      </trkpt>
      <trkpt lat="43.21165" lon="5.45377">
        <ele>25.2</ele>
        <time>2019-02-15T16:41:57.000Z</time>
      </trkpt>
      <trkpt lat="43.21148" lon="5.45376">
        <ele>26.2</ele>
        <time>2019-02-15T16:42:14.000Z</time>
      </trkpt>
      <trkpt lat="43.21139" lon="5.45368">
        <ele>25.8</ele>
        <time>2019-02-15T16:42:26.000Z</time>
      </trkpt>
      <trkpt lat="43.21137" lon="5.45353">
        <ele>28.4</ele>
        <time>2019-02-15T16:42:49.000Z</time>
      </trkpt>
      <trkpt lat="43.21119" lon="5.45359">
        <ele>29.8</ele>
        <time>2019-02-15T16:43:08.000Z</time>
      </trkpt>
      <trkpt lat="43.21101" lon="5.45356">
        <ele>30.4</ele>
        <time>2019-02-15T16:43:19.000Z</time>
      </trkpt>
      <trkpt lat="43.21099" lon="5.45356">
        <ele>30.8</ele>
        <time>2019-02-15T16:43:20.000Z</time>
      </trkpt>
      <trkpt lat="43.21089" lon="5.4535">
        <ele>31.2</ele>
        <time>2019-02-15T16:43:25.000Z</time>
      </trkpt>
      <trkpt lat="43.2107" lon="5.45347">
        <ele>34</ele>
        <time>2019-02-15T16:43:33.000Z</time>
      </trkpt>
      <trkpt lat="43.21052" lon="5.45357">
        <ele>38.8</ele>
        <time>2019-02-15T16:43:41.000Z</time>
      </trkpt>
      <trkpt lat="43.21032" lon="5.45357">
        <ele>39.2</ele>
        <time>2019-02-15T16:43:50.000Z</time>
      </trkpt>
      <trkpt lat="43.2102" lon="5.45358">
        <ele>46</ele>
        <time>2019-02-15T16:43:56.000Z</time>
      </trkpt>
      <trkpt lat="43.21018" lon="5.45352">
        <ele>44.6</ele>
        <time>2019-02-15T16:44:00.000Z</time>
      </trkpt>
      <trkpt lat="43.21024" lon="5.45329">
        <ele>43.6</ele>
        <time>2019-02-15T16:44:09.000Z</time>
      </trkpt>
      <trkpt lat="43.2102" lon="5.45311">
        <ele>28.2</ele>
        <time>2019-02-15T16:44:58.000Z</time>
      </trkpt>
      <trkpt lat="43.21016" lon="5.45294">
        <ele>31.4</ele>
        <time>2019-02-15T16:45:19.000Z</time>
      </trkpt>
      <trkpt lat="43.2101" lon="5.4527">
        <ele>34</ele>
        <time>2019-02-15T16:45:40.000Z</time>
      </trkpt>
      <trkpt lat="43.21014" lon="5.45265">
        <ele>33.2</ele>
        <time>2019-02-15T16:45:43.000Z</time>
      </trkpt>
      <trkpt lat="43.21024" lon="5.45243">
        <ele>32.8</ele>
        <time>2019-02-15T16:45:51.000Z</time>
      </trkpt>
      <trkpt lat="43.21024" lon="5.4523">
        <ele>31.6</ele>
        <time>2019-02-15T16:45:59.000Z</time>
      </trkpt>
      <trkpt lat="43.21031" lon="5.45207">
        <ele>29.8</ele>
        <time>2019-02-15T16:46:22.000Z</time>
      </trkpt>
      <trkpt lat="43.21033" lon="5.45205">
        <ele>30.4</ele>
        <time>2019-02-15T16:46:24.000Z</time>
      </trkpt>
      <trkpt lat="43.21044" lon="5.45193">
        <ele>39.2</ele>
        <time>2019-02-15T16:46:57.000Z</time>
      </trkpt>
      <trkpt lat="43.2105" lon="5.45188">
        <ele>35.4</ele>
        <time>2019-02-15T16:47:31.000Z</time>
      </trkpt>
      <trkpt lat="43.21063" lon="5.4517">
        <ele>38.2</ele>
        <time>2019-02-15T16:47:41.000Z</time>
      </trkpt>
      <trkpt lat="43.21068" lon="5.4515">
        <ele>44.4</ele>
        <time>2019-02-15T16:47:53.000Z</time>
      </trkpt>
      <trkpt lat="43.21068" lon="5.45142">
        <ele>49</ele>
        <time>2019-02-15T16:48:02.000Z</time>
      </trkpt>
      <trkpt lat="43.21073" lon="5.45119">
        <ele>46.4</ele>
        <time>2019-02-15T16:48:25.000Z</time>
      </trkpt>
      <trkpt lat="43.21078" lon="5.45112">
        <ele>46.6</ele>
        <time>2019-02-15T16:48:30.000Z</time>
      </trkpt>
      <trkpt lat="43.2109" lon="5.45097">
        <ele>48.2</ele>
        <time>2019-02-15T16:49:11.000Z</time>
      </trkpt>
      <trkpt lat="43.211" lon="5.45078">
        <ele>47.2</ele>
        <time>2019-02-15T16:49:20.000Z</time>
      </trkpt>
      <trkpt lat="43.21103" lon="5.45074">
        <ele>46.8</ele>
        <time>2019-02-15T16:49:22.000Z</time>
      </trkpt>
      <trkpt lat="43.21118" lon="5.4506">
        <ele>46.8</ele>
        <time>2019-02-15T16:49:35.000Z</time>
      </trkpt>
      <trkpt lat="43.21126" lon="5.45036">
        <ele>44.6</ele>
        <time>2019-02-15T16:49:46.000Z</time>
      </trkpt>
      <trkpt lat="43.21113" lon="5.45018">
        <ele>47.4</ele>
        <time>2019-02-15T16:49:53.000Z</time>
      </trkpt>
      <trkpt lat="43.21101" lon="5.44999">
        <ele>49.8</ele>
        <time>2019-02-15T16:50:02.000Z</time>
      </trkpt>
      <trkpt lat="43.21101" lon="5.44974">
        <ele>49.6</ele>
        <time>2019-02-15T16:50:11.000Z</time>
      </trkpt>
      <trkpt lat="43.21107" lon="5.44951">
        <ele>48</ele>
        <time>2019-02-15T16:50:20.000Z</time>
      </trkpt>
      <trkpt lat="43.21114" lon="5.44933">
        <ele>46.4</ele>
        <time>2019-02-15T16:50:28.000Z</time>
      </trkpt>
      <trkpt lat="43.21112" lon="5.44932">
        <ele>45.8</ele>
        <time>2019-02-15T16:50:30.000Z</time>
      </trkpt>
      <trkpt lat="43.21094" lon="5.44923">
        <ele>47.4</ele>
        <time>2019-02-15T16:50:38.000Z</time>
      </trkpt>
      <trkpt lat="43.21084" lon="5.44905">
        <ele>47.8</ele>
        <time>2019-02-15T16:50:46.000Z</time>
      </trkpt>
      <trkpt lat="43.21092" lon="5.44881">
        <ele>44.4</ele>
        <time>2019-02-15T16:51:05.000Z</time>
      </trkpt>
      <trkpt lat="43.21097" lon="5.44856">
        <ele>41.8</ele>
        <time>2019-02-15T16:51:16.000Z</time>
      </trkpt>
      <trkpt lat="43.21098" lon="5.44845">
        <ele>39.8</ele>
        <time>2019-02-15T16:51:22.000Z</time>
      </trkpt>
      <trkpt lat="43.21108" lon="5.44835">
        <ele>36.8</ele>
        <time>2019-02-15T16:52:25.000Z</time>
      </trkpt>
      <trkpt lat="43.21109" lon="5.44828">
        <ele>33.4</ele>
        <time>2019-02-15T16:53:35.000Z</time>
      </trkpt>
      <trkpt lat="43.21115" lon="5.44817">
        <ele>24.2</ele>
        <time>2019-02-15T16:55:04.000Z</time>
      </trkpt>
      <trkpt lat="43.21126" lon="5.44802">
        <ele>22.4</ele>
        <time>2019-02-15T16:55:12.000Z</time>
      </trkpt>
      <trkpt lat="43.21139" lon="5.44784">
        <ele>26</ele>
        <time>2019-02-15T16:55:24.000Z</time>
      </trkpt>
      <trkpt lat="43.21153" lon="5.44768">
        <ele>27.2</ele>
        <time>2019-02-15T16:55:35.000Z</time>
      </trkpt>
      <trkpt lat="43.21158" lon="5.44763">
        <ele>27</ele>
        <time>2019-02-15T16:55:38.000Z</time>
      </trkpt>
      <trkpt lat="43.21176" lon="5.4476">
        <ele>27.6</ele>
        <time>2019-02-15T16:55:49.000Z</time>
      </trkpt>
      <trkpt lat="43.21193" lon="5.44749">
        <ele>25.8</ele>
        <time>2019-02-15T16:55:58.000Z</time>
      </trkpt>
      <trkpt lat="43.21203" lon="5.44728">
        <ele>24</ele>
        <time>2019-02-15T16:56:09.000Z</time>
      </trkpt>
      <trkpt lat="43.21207" lon="5.44706">
        <ele>30</ele>
        <time>2019-02-15T16:56:20.000Z</time>
      </trkpt>
      <trkpt lat="43.21207" lon="5.44703">
        <ele>31.4</ele>
        <time>2019-02-15T16:56:22.000Z</time>
      </trkpt>
      <trkpt lat="43.21216" lon="5.44681">
        <ele>37.4</ele>
        <time>2019-02-15T16:56:35.000Z</time>
      </trkpt>
      <trkpt lat="43.21227" lon="5.44661">
        <ele>39.2</ele>
        <time>2019-02-15T16:56:44.000Z</time>
      </trkpt>
      <trkpt lat="43.21243" lon="5.44647">
        <ele>42.2</ele>
        <time>2019-02-15T16:56:53.000Z</time>
      </trkpt>
      <trkpt lat="43.21247" lon="5.44624">
        <ele>46.4</ele>
        <time>2019-02-15T16:57:07.000Z</time>
      </trkpt>
      <trkpt lat="43.21248" lon="5.44622">
        <ele>45.4</ele>
        <time>2019-02-15T16:57:09.000Z</time>
      </trkpt>
      <trkpt lat="43.2125" lon="5.4462">
        <ele>45.8</ele>
        <time>2019-02-15T16:57:12.000Z</time>
      </trkpt>
      <trkpt lat="43.21251" lon="5.44615">
        <ele>44.6</ele>
        <time>2019-02-15T16:57:16.000Z</time>
      </trkpt>
      <trkpt lat="43.21258" lon="5.44613">
        <ele>43.4</ele>
        <time>2019-02-15T16:57:23.000Z</time>
      </trkpt>
      <trkpt lat="43.21269" lon="5.44592">
        <ele>38</ele>
        <time>2019-02-15T16:57:37.000Z</time>
      </trkpt>
      <trkpt lat="43.21281" lon="5.44574">
        <ele>34.8</ele>
        <time>2019-02-15T16:57:46.000Z</time>
      </trkpt>
      <trkpt lat="43.2129" lon="5.44565">
        <ele>31.2</ele>
        <time>2019-02-15T16:57:55.000Z</time>
      </trkpt>
      <trkpt lat="43.21293" lon="5.44556">
        <ele>26.6</ele>
        <time>2019-02-15T16:58:11.000Z</time>
      </trkpt>
      <trkpt lat="43.21294" lon="5.44556">
        <ele>26.4</ele>
        <time>2019-02-15T16:58:13.000Z</time>
      </trkpt>
      <trkpt lat="43.21293" lon="5.44542">
        <ele>24</ele>
        <time>2019-02-15T16:58:26.000Z</time>
      </trkpt>
      <trkpt lat="43.21292" lon="5.44538">
        <ele>23.8</ele>
        <time>2019-02-15T16:58:30.000Z</time>
      </trkpt>
      <trkpt lat="43.21291" lon="5.44538">
        <ele>23</ele>
        <time>2019-02-15T16:58:32.000Z</time>
      </trkpt>
      <trkpt lat="43.21292" lon="5.44528">
        <ele>19.2</ele>
        <time>2019-02-15T16:58:43.000Z</time>
      </trkpt>
      <trkpt lat="43.21283" lon="5.4451">
        <ele>16.4</ele>
        <time>2019-02-15T16:59:10.000Z</time>
      </trkpt>
      <trkpt lat="43.21283" lon="5.44509">
        <ele>15.8</ele>
        <time>2019-02-15T16:59:11.000Z</time>
      </trkpt>
      <trkpt lat="43.21283" lon="5.44486">
        <ele>9.4</ele>
        <time>2019-02-15T16:59:35.000Z</time>
      </trkpt>
      <trkpt lat="43.21276" lon="5.44465">
        <ele>9.8</ele>
        <time>2019-02-15T16:59:47.000Z</time>
      </trkpt>
      <trkpt lat="43.21283" lon="5.44443">
        <ele>5.4</ele>
        <time>2019-02-15T17:00:00.000Z</time>
      </trkpt>
      <trkpt lat="43.21292" lon="5.44422">
        <ele>21.8</ele>
        <time>2019-02-15T17:00:16.000Z</time>
      </trkpt>
      <trkpt lat="43.21293" lon="5.44419">
        <ele>22</ele>
        <time>2019-02-15T17:00:19.000Z</time>
      </trkpt>
      <trkpt lat="43.21301" lon="5.44394">
        <ele>17.5</ele>
        <time>2019-02-15T17:00:36.000Z</time>
      </trkpt>
      <trkpt lat="43.21301" lon="5.44367">
        <ele>16.4</ele>
        <time>2019-02-15T17:00:43.000Z</time>
      </trkpt>
      <trkpt lat="43.21303" lon="5.44351">
        <ele>16.1</ele>
        <time>2019-02-15T17:00:48.000Z</time>
      </trkpt>
      <trkpt lat="43.2131" lon="5.44329">
        <ele>16.1</ele>
        <time>2019-02-15T17:00:56.000Z</time>
      </trkpt>
      <trkpt lat="43.21317" lon="5.44302">
        <ele>15.6</ele>
        <time>2019-02-15T17:01:04.000Z</time>
      </trkpt>
      <trkpt lat="43.2132" lon="5.44276">
        <ele>14.1</ele>
        <time>2019-02-15T17:01:11.000Z</time>
      </trkpt>
      <trkpt lat="43.2132" lon="5.4425">
        <ele>11.7</ele>
        <time>2019-02-15T17:01:18.000Z</time>
      </trkpt>
      <trkpt lat="43.21321" lon="5.44226">
        <ele>16.8</ele>
        <time>2019-02-15T17:01:25.000Z</time>
      </trkpt>
      <trkpt lat="43.21323" lon="5.44198">
        <ele>17.8</ele>
        <time>2019-02-15T17:01:33.000Z</time>
      </trkpt>
      <trkpt lat="43.21327" lon="5.44173">
        <ele>13.3</ele>
        <time>2019-02-15T17:01:41.000Z</time>
      </trkpt>
      <trkpt lat="43.21333" lon="5.44147">
        <ele>22.7</ele>
        <time>2019-02-15T17:01:49.000Z</time>
      </trkpt>
      <trkpt lat="43.2135" lon="5.44135">
        <ele>18.5</ele>
        <time>2019-02-15T17:01:57.000Z</time>
      </trkpt>
      <trkpt lat="43.2137" lon="5.44128">
        <ele>20.2</ele>
        <time>2019-02-15T17:02:06.000Z</time>
      </trkpt>
      <trkpt lat="43.21387" lon="5.44114">
        <ele>20.8</ele>
        <time>2019-02-15T17:02:14.000Z</time>
      </trkpt>
      <trkpt lat="43.21399" lon="5.44095">
        <ele>0.2</ele>
        <time>2019-02-15T17:02:22.000Z</time>
      </trkpt>
      <trkpt lat="43.21407" lon="5.44071">
        <ele>21.6</ele>
        <time>2019-02-15T17:02:31.000Z</time>
      </trkpt>
      <trkpt lat="43.21404" lon="5.44046">
        <ele>23.9</ele>
        <time>2019-02-15T17:02:39.000Z</time>
      </trkpt>
      <trkpt lat="43.21411" lon="5.44023">
        <ele>23.4</ele>
        <time>2019-02-15T17:02:47.000Z</time>
      </trkpt>
      <trkpt lat="43.21423" lon="5.44001">
        <ele>0.6</ele>
        <time>2019-02-15T17:02:55.000Z</time>
      </trkpt>
      <trkpt lat="43.21437" lon="5.43984">
        <ele>3</ele>
        <time>2019-02-15T17:03:02.000Z</time>
      </trkpt>
      <trkpt lat="43.21441" lon="5.43968">
        <ele>3.2</ele>
        <time>2019-02-15T17:03:23.000Z</time>
      </trkpt>
      <trkpt lat="43.21437" lon="5.43967">
        <ele>14.6</ele>
        <time>2019-01-18T13:22:42.000Z</time>
      </trkpt>
      <trkpt lat="43.21437" lon="5.43967">
        <ele>14.6</ele>
        <time>2019-01-18T13:22:42.000Z</time>
      </trkpt>
      <trkpt lat="43.21421" lon="5.43975">
        <ele>14.6</ele>
        <time>2019-01-18T13:23:05.000Z</time>
      </trkpt>
      <trkpt lat="43.21404" lon="5.43969">
        <ele>15</ele>
        <time>2019-01-18T13:23:26.000Z</time>
      </trkpt>
      <trkpt lat="43.21401" lon="5.43957">
        <ele>27.5</ele>
      </trkpt>
      <trkpt lat="43.21398" lon="5.43946">
        <ele>15.6</ele>
        <time>2019-01-18T13:23:42.000Z</time>
      </trkpt>
      <trkpt lat="43.214" lon="5.43947">
        <ele>39.8</ele>
      </trkpt>
      <trkpt lat="43.21397" lon="5.43938">
        <ele>40.6</ele>
      </trkpt>
      <trkpt lat="43.21398" lon="5.43909">
        <ele>52.8</ele>
      </trkpt>
      <trkpt lat="43.21384" lon="5.43905">
        <ele>60</ele>
      </trkpt>
      <trkpt lat="43.21381" lon="5.43883">
        <ele>64.4</ele>
      </trkpt>
      <trkpt lat="43.21366" lon="5.43901">
        <ele>19</ele>
        <time>2019-01-18T13:24:33.000Z</time>
      </trkpt>
      <trkpt lat="43.21365" lon="5.43902">
        <ele>19</ele>
        <time>2019-01-18T13:24:35.000Z</time>
      </trkpt>
      <trkpt lat="43.2136" lon="5.43911">
        <ele>67.6</ele>
      </trkpt>
      <trkpt lat="43.21356" lon="5.43919">
        <ele>55.6</ele>
      </trkpt>
      <trkpt lat="43.21345" lon="5.43935">
        <ele>56.1</ele>
      </trkpt>
      <trkpt lat="43.21334" lon="5.43949">
        <ele>52.3</ele>
      </trkpt>
      <trkpt lat="43.21323" lon="5.43954">
        <ele>81.5</ele>
      </trkpt>
      <trkpt lat="43.21332" lon="5.43938">
        <ele>81.4</ele>
      </trkpt>
      <trkpt lat="43.21336" lon="5.43921">
        <ele>68.9</ele>
      </trkpt>
      <trkpt lat="43.21344" lon="5.43893">
        <ele>71.4</ele>
      </trkpt>
      <trkpt lat="43.21348" lon="5.43879">
        <ele>72.5</ele>
      </trkpt>
      <trkpt lat="43.2135" lon="5.43865">
        <ele>75.2</ele>
      </trkpt>
      <trkpt lat="43.21355" lon="5.43851">
        <ele>77.7</ele>
      </trkpt>
      <trkpt lat="43.21363" lon="5.4383">
        <ele>92.9</ele>
      </trkpt>
      <trkpt lat="43.21363" lon="5.43811">
        <ele>94.3</ele>
      </trkpt>
      <trkpt lat="43.21363" lon="5.43791">
        <ele>97.4</ele>
      </trkpt>
      <trkpt lat="43.21362" lon="5.43773">
        <ele>101.4</ele>
      </trkpt>
      <trkpt lat="43.21365" lon="5.43748">
        <ele>120.6</ele>
      </trkpt>
      <trkpt lat="43.21375" lon="5.43735">
        <ele>118.7</ele>
      </trkpt>
      <trkpt lat="43.21384" lon="5.43728">
        <ele>116.8</ele>
      </trkpt>
      <trkpt lat="43.2139" lon="5.43724">
        <ele>115.9</ele>
      </trkpt>
      <trkpt lat="43.21397" lon="5.4372">
        <ele>114.7</ele>
      </trkpt>
      <trkpt lat="43.21406" lon="5.43713">
        <ele>114.7</ele>
      </trkpt>
      <trkpt lat="43.21416" lon="5.43696">
        <ele>113.4</ele>
        <time>2019-01-18T13:28:25.000Z</time>
      </trkpt>
      <trkpt lat="43.21422" lon="5.43672">
        <ele>119</ele>
        <time>2019-01-18T13:28:37.000Z</time>
      </trkpt>
      <trkpt lat="43.21429" lon="5.43647">
        <ele>119.4</ele>
        <time>2019-01-18T13:28:49.000Z</time>
      </trkpt>
      <trkpt lat="43.21438" lon="5.43624">
        <ele>121</ele>
        <time>2019-01-18T13:28:59.000Z</time>
      </trkpt>
      <trkpt lat="43.21445" lon="5.43599">
        <ele>120.2</ele>
        <time>2019-01-18T13:29:12.000Z</time>
      </trkpt>
      <trkpt lat="43.21456" lon="5.43586">
        <ele>124.6</ele>
        <time>2019-01-18T13:29:22.000Z</time>
      </trkpt>
      <trkpt lat="43.21466" lon="5.43566">
        <ele>127.4</ele>
        <time>2019-01-18T13:29:37.000Z</time>
      </trkpt>
      <trkpt lat="43.21466" lon="5.43565">
        <ele>127.2</ele>
        <time>2019-01-18T13:29:38.000Z</time>
      </trkpt>
      <trkpt lat="43.21471" lon="5.43552">
        <ele>131.4</ele>
        <time>2019-01-18T13:29:51.000Z</time>
      </trkpt>
      <trkpt lat="43.21468" lon="5.43546">
        <ele>137.6</ele>
        <time>2019-01-18T13:29:56.000Z</time>
      </trkpt>
      <trkpt lat="43.21468" lon="5.43544">
        <ele>137.8</ele>
        <time>2019-01-18T13:29:58.000Z</time>
      </trkpt>
      <trkpt lat="43.2147" lon="5.43539">
        <ele>140.2</ele>
        <time>2019-01-18T13:30:02.000Z</time>
      </trkpt>
      <trkpt lat="43.21473" lon="5.43536">
        <ele>142.2</ele>
        <time>2019-01-18T13:30:05.000Z</time>
      </trkpt>
      <trkpt lat="43.21484" lon="5.43516">
        <ele>145.8</ele>
        <time>2019-01-18T13:30:23.000Z</time>
      </trkpt>
      <trkpt lat="43.21496" lon="5.43497">
        <ele>148.8</ele>
        <time>2019-01-18T13:30:42.000Z</time>
      </trkpt>
      <trkpt lat="43.21498" lon="5.43495">
        <ele>149.8</ele>
        <time>2019-01-18T13:30:44.000Z</time>
      </trkpt>
      <trkpt lat="43.21498" lon="5.43492">
        <ele>152</ele>
        <time>2019-01-18T13:30:47.000Z</time>
      </trkpt>
      <trkpt lat="43.21498" lon="5.43491">
        <ele>153.4</ele>
        <time>2019-01-18T13:30:49.000Z</time>
      </trkpt>
      <trkpt lat="43.21492" lon="5.43468">
        <ele>158</ele>
        <time>2019-01-18T13:31:00.000Z</time>
      </trkpt>
      <trkpt lat="43.21478" lon="5.43452">
        <ele>159.2</ele>
        <time>2019-01-18T13:31:17.000Z</time>
      </trkpt>
      <trkpt lat="43.21462" lon="5.43443">
        <ele>165.6</ele>
        <time>2019-01-18T13:31:32.000Z</time>
      </trkpt>
      <trkpt lat="43.2146" lon="5.4344">
        <ele>166.6</ele>
        <time>2019-01-18T13:31:35.000Z</time>
      </trkpt>
      <trkpt lat="43.2145" lon="5.43418">
        <ele>170.4</ele>
        <time>2019-01-18T13:31:48.000Z</time>
      </trkpt>
      <trkpt lat="43.21438" lon="5.43397">
        <ele>170.4</ele>
        <time>2019-01-18T13:31:58.000Z</time>
      </trkpt>
      <trkpt lat="43.21425" lon="5.43379">
        <ele>171.8</ele>
        <time>2019-01-18T13:32:13.000Z</time>
      </trkpt>
      <trkpt lat="43.21421" lon="5.43357">
        <ele>171.2</ele>
        <time>2019-01-18T13:32:22.000Z</time>
      </trkpt>
      <trkpt lat="43.21405" lon="5.43346">
        <ele>175</ele>
        <time>2019-01-18T13:32:35.000Z</time>
      </trkpt>
      <trkpt lat="43.21402" lon="5.43338">
        <ele>178.4</ele>
        <time>2019-01-18T13:32:43.000Z</time>
      </trkpt>
      <trkpt lat="43.21407" lon="5.43315">
        <ele>176.4</ele>
        <time>2019-01-18T13:32:55.000Z</time>
      </trkpt>
      <trkpt lat="43.21408" lon="5.4331">
        <ele>176.2</ele>
        <time>2019-01-18T13:32:57.000Z</time>
      </trkpt>
      <trkpt lat="43.214" lon="5.43288">
        <ele>176.2</ele>
        <time>2019-01-18T13:33:04.000Z</time>
      </trkpt>
      <trkpt lat="43.21393" lon="5.43264">
        <ele>171.6</ele>
        <time>2019-01-18T13:33:12.000Z</time>
      </trkpt>
      <trkpt lat="43.21377" lon="5.43251">
        <ele>172.2</ele>
        <time>2019-01-18T13:33:26.000Z</time>
      </trkpt>
      <trkpt lat="43.21368" lon="5.43255">
        <ele>174.2</ele>
        <time>2019-01-18T13:33:33.000Z</time>
      </trkpt>
      <trkpt lat="43.21363" lon="5.43255">
        <ele>177.2</ele>
        <time>2019-01-18T13:33:37.000Z</time>
      </trkpt>
      <trkpt lat="43.21359" lon="5.43258">
        <ele>179.4</ele>
        <time>2019-01-18T13:33:40.000Z</time>
      </trkpt>
      <trkpt lat="43.21355" lon="5.43266">
        <ele>181</ele>
        <time>2019-01-18T13:33:46.000Z</time>
      </trkpt>
      <trkpt lat="43.21352" lon="5.43264">
        <ele>182.6</ele>
        <time>2019-01-18T13:33:49.000Z</time>
      </trkpt>
      <trkpt lat="43.21351" lon="5.43259">
        <ele>183.2</ele>
        <time>2019-01-18T13:33:51.000Z</time>
      </trkpt>
      <trkpt lat="43.21351" lon="5.43247">
        <ele>184.8</ele>
        <time>2019-01-18T13:33:56.000Z</time>
      </trkpt>
      <trkpt lat="43.21353" lon="5.43241">
        <ele>185.6</ele>
        <time>2019-01-18T13:33:59.000Z</time>
      </trkpt>
      <trkpt lat="43.21368" lon="5.43225">
        <ele>184.6</ele>
        <time>2019-01-18T13:34:09.000Z</time>
      </trkpt>
      <trkpt lat="43.21367" lon="5.432">
        <ele>185.2</ele>
        <time>2019-01-18T13:34:18.000Z</time>
      </trkpt>
      <trkpt lat="43.21367" lon="5.43176">
        <ele>189</ele>
        <time>2019-01-18T13:34:30.000Z</time>
      </trkpt>
      <trkpt lat="43.21374" lon="5.43153">
        <ele>196.6</ele>
        <time>2019-01-18T13:34:44.000Z</time>
      </trkpt>
      <trkpt lat="43.21375" lon="5.43151">
        <ele>197</ele>
        <time>2019-01-18T13:34:45.000Z</time>
      </trkpt>
      <trkpt lat="43.21393" lon="5.43149">
        <ele>203</ele>
        <time>2019-01-18T13:34:57.000Z</time>
      </trkpt>
      <trkpt lat="43.21411" lon="5.43156">
        <ele>206</ele>
        <time>2019-01-18T13:35:09.000Z</time>
      </trkpt>
      <trkpt lat="43.21411" lon="5.43155">
        <ele>206.8</ele>
        <time>2019-01-18T13:35:10.000Z</time>
      </trkpt>
      <trkpt lat="43.21398" lon="5.43136">
        <ele>211.6</ele>
        <time>2019-01-18T13:35:22.000Z</time>
      </trkpt>
      <trkpt lat="43.21383" lon="5.4312">
        <ele>214</ele>
        <time>2019-01-18T13:35:33.000Z</time>
      </trkpt>
      <trkpt lat="43.21364" lon="5.43122">
        <ele>216.2</ele>
        <time>2019-01-18T13:35:44.000Z</time>
      </trkpt>
      <trkpt lat="43.21354" lon="5.43144">
        <ele>217.6</ele>
        <time>2019-01-18T13:35:53.000Z</time>
      </trkpt>
      <trkpt lat="43.21343" lon="5.43163">
        <ele>221</ele>
        <time>2019-01-18T13:36:03.000Z</time>
      </trkpt>
      <trkpt lat="43.2133" lon="5.43183">
        <ele>222.4</ele>
        <time>2019-01-18T13:36:14.000Z</time>
      </trkpt>
      <trkpt lat="43.21314" lon="5.43194">
        <ele>224.6</ele>
        <time>2019-01-18T13:36:26.000Z</time>
      </trkpt>
      <trkpt lat="43.21299" lon="5.43209">
        <ele>224.8</ele>
        <time>2019-01-18T13:36:37.000Z</time>
      </trkpt>
      <trkpt lat="43.21287" lon="5.43229">
        <ele>227.4</ele>
        <time>2019-01-18T13:36:48.000Z</time>
      </trkpt>
      <trkpt lat="43.21272" lon="5.43245">
        <ele>230.8</ele>
        <time>2019-01-18T13:36:59.000Z</time>
      </trkpt>
      <trkpt lat="43.21269" lon="5.43245">
        <ele>230.6</ele>
        <time>2019-01-18T13:37:01.000Z</time>
      </trkpt>
      <trkpt lat="43.21266" lon="5.43241">
        <ele>230</ele>
        <time>2019-01-18T13:37:05.000Z</time>
      </trkpt>
      <trkpt lat="43.21259" lon="5.43233">
        <ele>238</ele>
        <time>2019-01-18T13:38:24.000Z</time>
      </trkpt>
      <trkpt lat="43.21254" lon="5.4322">
        <ele>236.4</ele>
        <time>2019-01-18T13:38:38.000Z</time>
      </trkpt>
      <trkpt lat="43.21255" lon="5.4322">
        <ele>236</ele>
        <time>2019-01-18T13:38:40.000Z</time>
      </trkpt>
      <trkpt lat="43.21243" lon="5.43212">
        <ele>232</ele>
        <time>2019-01-18T13:38:53.000Z</time>
      </trkpt>
      <trkpt lat="43.2123" lon="5.43194">
        <ele>227</ele>
        <time>2019-01-18T13:39:04.000Z</time>
      </trkpt>
      <trkpt lat="43.21229" lon="5.43194">
        <ele>226.6</ele>
        <time>2019-01-18T13:39:05.000Z</time>
      </trkpt>
      <trkpt lat="43.21227" lon="5.43195">
        <ele>225.4</ele>
        <time>2019-01-18T13:39:07.000Z</time>
      </trkpt>
      <trkpt lat="43.21225" lon="5.43193">
        <ele>224.4</ele>
        <time>2019-01-18T13:39:09.000Z</time>
      </trkpt>
      <trkpt lat="43.21223" lon="5.43185">
        <ele>222.4</ele>
        <time>2019-01-18T13:39:14.000Z</time>
      </trkpt>
      <trkpt lat="43.21222" lon="5.43184">
        <ele>221.2</ele>
        <time>2019-01-18T13:39:16.000Z</time>
      </trkpt>
      <trkpt lat="43.2122" lon="5.43181">
        <ele>220</ele>
        <time>2019-01-18T13:39:18.000Z</time>
      </trkpt>
      <trkpt lat="43.21216" lon="5.43163">
        <ele>214.4</ele>
        <time>2019-01-18T13:39:27.000Z</time>
      </trkpt>
      <trkpt lat="43.21212" lon="5.43138">
        <ele>210.2</ele>
        <time>2019-01-18T13:39:35.000Z</time>
      </trkpt>
      <trkpt lat="43.21212" lon="5.43113">
        <ele>205.4</ele>
        <time>2019-01-18T13:39:43.000Z</time>
      </trkpt>
      <trkpt lat="43.21226" lon="5.43093">
        <ele>202.8</ele>
        <time>2019-01-18T13:39:50.000Z</time>
      </trkpt>
      <trkpt lat="43.21242" lon="5.4308">
        <ele>200.4</ele>
        <time>2019-01-18T13:39:57.000Z</time>
      </trkpt>
      <trkpt lat="43.21245" lon="5.43075">
        <ele>199.4</ele>
        <time>2019-01-18T13:40:00.000Z</time>
      </trkpt>
      <trkpt lat="43.21252" lon="5.43049">
        <ele>195.2</ele>
        <time>2019-01-18T13:40:08.000Z</time>
      </trkpt>
      <trkpt lat="43.21263" lon="5.43028">
        <ele>191.4</ele>
        <time>2019-01-18T13:40:15.000Z</time>
      </trkpt>
      <trkpt lat="43.21282" lon="5.43022">
        <ele>194.4</ele>
        <time>2019-01-18T13:40:23.000Z</time>
      </trkpt>
      <trkpt lat="43.213" lon="5.43015">
        <ele>196.2</ele>
        <time>2019-01-18T13:40:31.000Z</time>
      </trkpt>
      <trkpt lat="43.21314" lon="5.42997">
        <ele>194.8</ele>
        <time>2019-01-18T13:40:38.000Z</time>
      </trkpt>
      <trkpt lat="43.21325" lon="5.42975">
        <ele>195</ele>
        <time>2019-01-18T13:40:45.000Z</time>
      </trkpt>
      <trkpt lat="43.21334" lon="5.42956">
        <ele>198.6</ele>
        <time>2019-01-18T13:40:53.000Z</time>
      </trkpt>
      <trkpt lat="43.2135" lon="5.42941">
        <ele>197.2</ele>
        <time>2019-01-18T13:41:04.000Z</time>
      </trkpt>
      <trkpt lat="43.21355" lon="5.42916">
        <ele>197.8</ele>
        <time>2019-01-18T13:41:11.000Z</time>
      </trkpt>
      <trkpt lat="43.21357" lon="5.4289">
        <ele>195.6</ele>
        <time>2019-01-18T13:41:18.000Z</time>
      </trkpt>
      <trkpt lat="43.21359" lon="5.42865">
        <ele>193.4</ele>
        <time>2019-01-18T13:41:26.000Z</time>
      </trkpt>
      <trkpt lat="43.2135" lon="5.42844">
        <ele>191.4</ele>
        <time>2019-01-18T13:41:35.000Z</time>
      </trkpt>
      <trkpt lat="43.21334" lon="5.42833">
        <ele>186.6</ele>
        <time>2019-01-18T13:41:43.000Z</time>
      </trkpt>
      <trkpt lat="43.21332" lon="5.42824">
        <ele>184.4</ele>
        <time>2019-01-18T13:41:48.000Z</time>
      </trkpt>
      <trkpt lat="43.21315" lon="5.42816">
        <ele>181</ele>
        <time>2019-01-18T13:41:58.000Z</time>
      </trkpt>
      <trkpt lat="43.21302" lon="5.42796">
        <ele>181.2</ele>
        <time>2019-01-18T13:42:05.000Z</time>
      </trkpt>
      <trkpt lat="43.21293" lon="5.42774">
        <ele>183</ele>
        <time>2019-01-18T13:42:14.000Z</time>
      </trkpt>
      <trkpt lat="43.21293" lon="5.42769">
        <ele>181.4</ele>
        <time>2019-01-18T13:42:17.000Z</time>
      </trkpt>
      <trkpt lat="43.2128" lon="5.42763">
        <ele>174</ele>
        <time>2019-01-18T13:42:34.000Z</time>
      </trkpt>
      <trkpt lat="43.21271" lon="5.42764">
        <ele>170.2</ele>
        <time>2019-01-18T13:42:41.000Z</time>
      </trkpt>
      <trkpt lat="43.21268" lon="5.42762">
        <ele>169.6</ele>
        <time>2019-01-18T13:42:43.000Z</time>
      </trkpt>
      <trkpt lat="43.21268" lon="5.42748">
        <ele>168</ele>
        <time>2019-01-18T13:42:48.000Z</time>
      </trkpt>
      <trkpt lat="43.21273" lon="5.42743">
        <ele>167.2</ele>
        <time>2019-01-18T13:42:54.000Z</time>
      </trkpt>
      <trkpt lat="43.21284" lon="5.42728">
        <ele>161.2</ele>
        <time>2019-01-18T13:43:41.000Z</time>
      </trkpt>
      <trkpt lat="43.21268" lon="5.42714">
        <ele>151</ele>
        <time>2019-01-18T13:43:59.000Z</time>
      </trkpt>
      <trkpt lat="43.21252" lon="5.42703">
        <ele>146.8</ele>
        <time>2019-01-18T13:44:10.000Z</time>
      </trkpt>
      <trkpt lat="43.21237" lon="5.427">
        <ele>145.8</ele>
        <time>2019-01-18T13:44:21.000Z</time>
      </trkpt>
      <trkpt lat="43.21232" lon="5.42699">
        <ele>145.4</ele>
        <time>2019-01-18T13:44:24.000Z</time>
      </trkpt>
      <trkpt lat="43.21231" lon="5.42694">
        <ele>144.6</ele>
        <time>2019-01-18T13:44:28.000Z</time>
      </trkpt>
      <trkpt lat="43.21231" lon="5.4269">
        <ele>143</ele>
        <time>2019-01-18T13:44:32.000Z</time>
      </trkpt>
      <trkpt lat="43.21215" lon="5.42681">
        <ele>139.2</ele>
        <time>2019-01-18T13:44:44.000Z</time>
      </trkpt>
      <trkpt lat="43.21208" lon="5.42682">
        <ele>125</ele>
        <time>2019-01-18T13:44:55.000Z</time>
      </trkpt>
      <trkpt lat="43.21206" lon="5.42681">
        <ele>124.2</ele>
        <time>2019-01-18T13:44:57.000Z</time>
      </trkpt>
      <trkpt lat="43.21208" lon="5.42679">
        <ele>121.6</ele>
        <time>2019-01-18T13:45:00.000Z</time>
      </trkpt>
      <trkpt lat="43.21202" lon="5.4267">
        <ele>112.6</ele>
        <time>2019-01-18T13:45:22.000Z</time>
      </trkpt>
      <trkpt lat="43.21198" lon="5.42667">
        <ele>109.4</ele>
        <time>2019-01-18T13:45:29.000Z</time>
      </trkpt>
      <trkpt lat="43.21195" lon="5.42649">
        <ele>103.2</ele>
        <time>2019-01-18T13:45:52.000Z</time>
      </trkpt>
      <trkpt lat="43.21199" lon="5.42646">
        <ele>102</ele>
        <time>2019-01-18T13:45:57.000Z</time>
      </trkpt>
      <trkpt lat="43.21203" lon="5.4264">
        <ele>102</ele>
        <time>2019-01-18T13:46:02.000Z</time>
      </trkpt>
      <trkpt lat="43.21196" lon="5.42637">
        <ele>99.4</ele>
        <time>2019-01-18T13:46:12.000Z</time>
      </trkpt>
      <trkpt lat="43.21194" lon="5.42636">
        <ele>98.8</ele>
        <time>2019-01-18T13:46:14.000Z</time>
      </trkpt>
      <trkpt lat="43.21176" lon="5.42636">
        <ele>95.6</ele>
        <time>2019-01-18T13:46:23.000Z</time>
      </trkpt>
      <trkpt lat="43.21168" lon="5.42633">
        <ele>93.8</ele>
        <time>2019-01-18T13:46:30.000Z</time>
      </trkpt>
      <trkpt lat="43.2116" lon="5.42616">
        <ele>82.8</ele>
        <time>2019-01-18T13:46:57.000Z</time>
      </trkpt>
      <trkpt lat="43.21146" lon="5.42599">
        <ele>76.4</ele>
        <time>2019-01-18T13:47:18.000Z</time>
      </trkpt>
      <trkpt lat="43.21137" lon="5.42594">
        <ele>73.8</ele>
        <time>2019-01-18T13:47:29.000Z</time>
      </trkpt>
      <trkpt lat="43.21135" lon="5.42589">
        <ele>73.6</ele>
        <time>2019-01-18T13:47:33.000Z</time>
      </trkpt>
      <trkpt lat="43.21129" lon="5.42585">
        <ele>71.2</ele>
        <time>2019-01-18T13:47:38.000Z</time>
      </trkpt>
      <trkpt lat="43.21129" lon="5.42583">
        <ele>70.4</ele>
        <time>2019-01-18T13:47:40.000Z</time>
      </trkpt>
      <trkpt lat="43.21126" lon="5.42574">
        <ele>68.2</ele>
        <time>2019-01-18T13:47:46.000Z</time>
      </trkpt>
      <trkpt lat="43.21125" lon="5.42572">
        <ele>67.4</ele>
        <time>2019-01-18T13:47:48.000Z</time>
      </trkpt>
      <trkpt lat="43.21125" lon="5.42568">
        <ele>66.6</ele>
        <time>2019-01-18T13:47:50.000Z</time>
      </trkpt>
      <trkpt lat="43.21125" lon="5.42565">
        <ele>65.6</ele>
        <time>2019-01-18T13:47:52.000Z</time>
      </trkpt>
      <trkpt lat="43.21118" lon="5.42547">
        <ele>57.2</ele>
        <time>2019-01-18T13:48:02.000Z</time>
      </trkpt>
      <trkpt lat="43.21112" lon="5.42536">
        <ele>53</ele>
        <time>2019-01-18T13:48:08.000Z</time>
      </trkpt>
      <trkpt lat="43.21098" lon="5.42526">
        <ele>42.8</ele>
        <time>2019-01-18T13:48:26.000Z</time>
      </trkpt>
      <trkpt lat="43.21092" lon="5.42527">
        <ele>46.8</ele>
        <time>2019-01-18T13:49:00.000Z</time>
      </trkpt>
      <trkpt lat="43.21076" lon="5.42515">
        <ele>45.6</ele>
        <time>2019-01-18T13:49:16.000Z</time>
      </trkpt>
      <trkpt lat="43.21072" lon="5.42513">
        <ele>45.4</ele>
        <time>2019-01-18T13:49:18.000Z</time>
      </trkpt>
      <trkpt lat="43.21071" lon="5.42507">
        <ele>45.2</ele>
        <time>2019-01-18T13:49:20.000Z</time>
      </trkpt>
      <trkpt lat="43.21081" lon="5.42487">
        <ele>40</ele>
        <time>2019-01-18T13:49:32.000Z</time>
      </trkpt>
      <trkpt lat="43.21086" lon="5.42483">
        <ele>36.8</ele>
        <time>2019-01-18T13:49:37.000Z</time>
      </trkpt>
      <trkpt lat="43.21084" lon="5.42478">
        <ele>34.4</ele>
        <time>2019-01-18T13:49:40.000Z</time>
      </trkpt>
      <trkpt lat="43.21074" lon="5.42471">
        <ele>30.2</ele>
        <time>2019-01-18T13:49:47.000Z</time>
      </trkpt>
      <trkpt lat="43.21057" lon="5.42464">
        <ele>21</ele>
        <time>2019-01-18T13:50:06.000Z</time>
      </trkpt>
      <trkpt lat="43.21063" lon="5.42442">
        <ele>13.2</ele>
        <time>2019-01-18T13:50:21.000Z</time>
      </trkpt>
      <trkpt lat="43.21078" lon="5.42428">
        <ele>10</ele>
        <time>2019-01-18T13:50:29.000Z</time>
      </trkpt>
      <trkpt lat="43.21097" lon="5.42424">
        <ele>10.2</ele>
        <time>2019-01-18T13:50:38.000Z</time>
      </trkpt>
      <trkpt lat="43.21114" lon="5.42411">
        <ele>8.4</ele>
        <time>2019-01-18T13:50:47.000Z</time>
      </trkpt>
      <trkpt lat="43.21114" lon="5.42408">
        <ele>8.4</ele>
        <time>2019-01-18T13:50:48.000Z</time>
      </trkpt>
      <trkpt lat="43.21117" lon="5.42404">
        <ele>8.6</ele>
        <time>2019-01-18T13:50:50.000Z</time>
      </trkpt>
      <trkpt lat="43.21132" lon="5.42388">
        <ele>9.8</ele>
        <time>2019-01-18T13:51:02.000Z</time>
      </trkpt>
      <trkpt lat="43.21133" lon="5.42364">
        <ele>11.4</ele>
        <time>2019-01-18T13:51:13.000Z</time>
      </trkpt>
      <trkpt lat="43.21146" lon="5.42351">
        <ele>10</ele>
        <time>2019-01-18T13:51:29.000Z</time>
      </trkpt>
      <trkpt lat="43.21165" lon="5.42342">
        <ele>4</ele>
        <time>2019-01-18T13:51:41.000Z</time>
      </trkpt>
      <trkpt lat="43.21183" lon="5.42331">
        <ele>7.8</ele>
        <time>2019-01-18T13:51:49.000Z</time>
      </trkpt>
      <trkpt lat="43.21201" lon="5.42326">
        <ele>7.6</ele>
        <time>2019-01-18T13:51:57.000Z</time>
      </trkpt>
      <trkpt lat="43.21219" lon="5.42318">
        <ele>6.2</ele>
        <time>2019-01-18T13:52:06.000Z</time>
      </trkpt>
      <trkpt lat="43.21236" lon="5.42305">
        <ele>3.4</ele>
        <time>2019-01-18T13:52:16.000Z</time>
      </trkpt>
      <trkpt lat="43.21251" lon="5.42287">
        <ele>3.6</ele>
        <time>2019-01-18T13:52:26.000Z</time>
      </trkpt>
      <trkpt lat="43.21263" lon="5.42267">
        <ele>7.4</ele>
        <time>2019-01-18T13:52:36.000Z</time>
      </trkpt>
      <trkpt lat="43.21274" lon="5.42247">
        <ele>10.6</ele>
        <time>2019-01-18T13:52:49.000Z</time>
      </trkpt>
      <trkpt lat="43.21281" lon="5.42237">
        <ele>16</ele>
        <time>2019-01-18T13:52:57.000Z</time>
      </trkpt>
      <trkpt lat="43.21294" lon="5.42217">
        <ele>32.8</ele>
        <time>2019-01-18T13:53:14.000Z</time>
      </trkpt>
      <trkpt lat="43.21305" lon="5.42197">
        <ele>34.2</ele>
        <time>2019-01-18T13:53:24.000Z</time>
      </trkpt>
      <trkpt lat="43.21309" lon="5.42189">
        <ele>34</ele>
        <time>2019-01-18T13:53:28.000Z</time>
      </trkpt>
      <trkpt lat="43.21309" lon="5.42178">
        <ele>34.6</ele>
        <time>2019-01-18T13:53:34.000Z</time>
      </trkpt>
      <trkpt lat="43.21321" lon="5.4217">
        <ele>34.2</ele>
        <time>2019-01-18T13:53:46.000Z</time>
      </trkpt>
      <trkpt lat="43.21323" lon="5.4217">
        <ele>33.8</ele>
        <time>2019-01-18T13:53:49.000Z</time>
      </trkpt>
      <trkpt lat="43.2134" lon="5.4216">
        <ele>35</ele>
        <time>2019-01-18T13:54:05.000Z</time>
      </trkpt>
      <trkpt lat="43.21357" lon="5.42153">
        <ele>33.2</ele>
        <time>2019-01-18T13:54:19.000Z</time>
      </trkpt>
      <trkpt lat="43.21376" lon="5.42148">
        <ele>37</ele>
        <time>2019-01-18T13:54:31.000Z</time>
      </trkpt>
      <trkpt lat="43.2139" lon="5.42133">
        <ele>39.6</ele>
        <time>2019-01-18T13:54:45.000Z</time>
      </trkpt>
      <trkpt lat="43.21399" lon="5.42122">
        <ele>43.8</ele>
        <time>2019-01-18T13:54:55.000Z</time>
      </trkpt>
      <trkpt lat="43.2141" lon="5.42118">
        <ele>54.8</ele>
        <time>2019-01-18T13:55:09.000Z</time>
      </trkpt>
      <trkpt lat="43.21414" lon="5.42118">
        <ele>54.8</ele>
        <time>2019-01-18T13:55:12.000Z</time>
      </trkpt>
      <trkpt lat="43.21432" lon="5.42121">
        <ele>73.2</ele>
        <time>2019-01-18T13:55:30.000Z</time>
      </trkpt>
      <trkpt lat="43.21447" lon="5.42138">
        <ele>68.8</ele>
        <time>2019-01-18T13:55:43.000Z</time>
      </trkpt>
      <trkpt lat="43.21464" lon="5.4215">
        <ele>66.8</ele>
        <time>2019-01-18T13:55:57.000Z</time>
      </trkpt>
      <trkpt lat="43.21481" lon="5.42159">
        <ele>68.4</ele>
        <time>2019-01-18T13:56:07.000Z</time>
      </trkpt>
      <trkpt lat="43.21498" lon="5.42161">
        <ele>80.2</ele>
        <time>2019-01-18T13:56:22.000Z</time>
      </trkpt>
      <trkpt lat="43.21503" lon="5.42169">
        <ele>107.5</ele>
      </trkpt>
      <trkpt lat="43.21517" lon="5.42169">
        <ele>114</ele>
      </trkpt>
      <trkpt lat="43.2153" lon="5.42165">
        <ele>119.8</ele>
      </trkpt>
      <trkpt lat="43.21539" lon="5.42171">
        <ele>119.9</ele>
      </trkpt>
      <trkpt lat="43.21549" lon="5.42168">
        <ele>102</ele>
        <time>2019-01-18T13:57:23.000Z</time>
      </trkpt>
      <trkpt lat="43.21563" lon="5.42168">
        <ele>95.2</ele>
        <time>2019-01-18T13:57:34.000Z</time>
      </trkpt>
      <trkpt lat="43.21564" lon="5.42169">
        <ele>94.4</ele>
        <time>2019-01-18T13:57:36.000Z</time>
      </trkpt>
      <trkpt lat="43.2157" lon="5.4217">
        <ele>94.2</ele>
        <time>2019-01-18T13:57:42.000Z</time>
      </trkpt>
      <trkpt lat="43.21571" lon="5.42173">
        <ele>93.6</ele>
        <time>2019-01-18T13:57:44.000Z</time>
      </trkpt>
      <trkpt lat="43.21574" lon="5.42175">
        <ele>92.6</ele>
        <time>2019-01-18T13:57:47.000Z</time>
      </trkpt>
      <trkpt lat="43.21591" lon="5.42181">
        <ele>99.4</ele>
        <time>2019-01-18T13:58:11.000Z</time>
      </trkpt>
      <trkpt lat="43.21601" lon="5.42203">
        <ele>106.6</ele>
        <time>2019-01-18T13:58:29.000Z</time>
      </trkpt>
      <trkpt lat="43.21606" lon="5.42216">
        <ele>113</ele>
        <time>2019-01-18T13:58:39.000Z</time>
      </trkpt>
      <trkpt lat="43.2161" lon="5.4223">
        <ele>142.9</ele>
      </trkpt>
      <trkpt lat="43.2162" lon="5.42246">
        <ele>129</ele>
        <time>2019-01-18T13:59:02.000Z</time>
      </trkpt>
      <trkpt lat="43.21619" lon="5.42244">
        <ele>131.8</ele>
        <time>2019-01-18T13:59:12.000Z</time>
      </trkpt>
      <trkpt lat="43.21614" lon="5.42239">
        <ele>137.8</ele>
        <time>2019-01-18T13:59:15.000Z</time>
      </trkpt>
      <trkpt lat="43.2162" lon="5.42239">
        <ele>145</ele>
      </trkpt>
      <trkpt lat="43.21614" lon="5.42234">
        <ele>138.8</ele>
        <time>2019-01-18T13:59:20.000Z</time>
      </trkpt>
      <trkpt lat="43.21624" lon="5.42227">
        <ele>145.5</ele>
      </trkpt>
      <trkpt lat="43.21624" lon="5.42227">
        <ele>139.4</ele>
        <time>2019-01-18T13:59:31.000Z</time>
      </trkpt>
      <trkpt lat="43.21635" lon="5.42215">
        <ele>142</ele>
        <time>2019-01-18T14:00:16.000Z</time>
      </trkpt>
      <trkpt lat="43.21645" lon="5.42196">
        <ele>143.4</ele>
        <time>2019-01-18T14:00:33.000Z</time>
      </trkpt>
      <trkpt lat="43.21654" lon="5.42181">
        <ele>141.8</ele>
        <time>2019-01-18T14:00:56.000Z</time>
      </trkpt>
      <trkpt lat="43.21658" lon="5.42173">
        <ele>142.8</ele>
        <time>2019-01-18T14:01:06.000Z</time>
      </trkpt>
      <trkpt lat="43.21671" lon="5.42163">
        <ele>149.6</ele>
        <time>2019-01-18T14:01:33.000Z</time>
      </trkpt>
      <trkpt lat="43.21674" lon="5.42138">
        <ele>159.8</ele>
        <time>2019-01-18T14:01:55.000Z</time>
      </trkpt>
      <trkpt lat="43.21674" lon="5.42113">
        <ele>162.6</ele>
        <time>2019-01-18T14:02:09.000Z</time>
      </trkpt>
      <trkpt lat="43.21669" lon="5.4209">
        <ele>165.8</ele>
        <time>2019-01-18T14:02:26.000Z</time>
      </trkpt>
      <trkpt lat="43.21665" lon="5.42083">
        <ele>168.2</ele>
        <time>2019-01-18T14:02:30.000Z</time>
      </trkpt>
      <trkpt lat="43.21665" lon="5.4208">
        <ele>169.2</ele>
        <time>2019-01-18T14:02:32.000Z</time>
      </trkpt>
      <trkpt lat="43.21662" lon="5.42075">
        <ele>171</ele>
        <time>2019-01-18T14:02:35.000Z</time>
      </trkpt>
      <trkpt lat="43.21655" lon="5.42064">
        <ele>176.4</ele>
        <time>2019-01-18T14:02:44.000Z</time>
      </trkpt>
      <trkpt lat="43.21663" lon="5.42054">
        <ele>179.6</ele>
        <time>2019-01-18T14:03:08.000Z</time>
      </trkpt>
      <trkpt lat="43.21674" lon="5.42051">
        <ele>184</ele>
        <time>2019-01-18T14:03:23.000Z</time>
      </trkpt>
      <trkpt lat="43.21661" lon="5.42046">
        <ele>193.4</ele>
        <time>2019-01-18T14:04:16.000Z</time>
      </trkpt>
      <trkpt lat="43.2165" lon="5.42029">
        <ele>191.4</ele>
        <time>2019-01-18T14:04:32.000Z</time>
      </trkpt>
      <trkpt lat="43.21639" lon="5.4201">
        <ele>190.6</ele>
        <time>2019-01-18T14:04:45.000Z</time>
      </trkpt>
      <trkpt lat="43.21622" lon="5.42">
        <ele>192.4</ele>
        <time>2019-01-18T14:04:55.000Z</time>
      </trkpt>
      <trkpt lat="43.21608" lon="5.4198">
        <ele>192.6</ele>
        <time>2019-01-18T14:05:04.000Z</time>
      </trkpt>
      <trkpt lat="43.21599" lon="5.41959">
        <ele>192.8</ele>
        <time>2019-01-18T14:05:12.000Z</time>
      </trkpt>
      <trkpt lat="43.21584" lon="5.41944">
        <ele>195</ele>
        <time>2019-01-18T14:05:20.000Z</time>
      </trkpt>
      <trkpt lat="43.2157" lon="5.41924">
        <ele>195</ele>
        <time>2019-01-18T14:05:28.000Z</time>
      </trkpt>
      <trkpt lat="43.21562" lon="5.41906">
        <ele>198.6</ele>
        <time>2019-01-18T14:05:36.000Z</time>
      </trkpt>
      <trkpt lat="43.21547" lon="5.41894">
        <ele>201.2</ele>
        <time>2019-01-18T14:05:52.000Z</time>
      </trkpt>
      <trkpt lat="43.21533" lon="5.41877">
        <ele>204.6</ele>
        <time>2019-01-18T14:06:04.000Z</time>
      </trkpt>
      <trkpt lat="43.21522" lon="5.41857">
        <ele>206.2</ele>
        <time>2019-01-18T14:06:14.000Z</time>
      </trkpt>
      <trkpt lat="43.21514" lon="5.41836">
        <ele>206.6</ele>
        <time>2019-01-18T14:06:23.000Z</time>
      </trkpt>
      <trkpt lat="43.21518" lon="5.4182">
        <ele>208.6</ele>
        <time>2019-01-18T14:07:07.000Z</time>
      </trkpt>
      <trkpt lat="43.21536" lon="5.41808">
        <ele>209.8</ele>
        <time>2019-01-18T14:07:18.000Z</time>
      </trkpt>
      <trkpt lat="43.21555" lon="5.41803">
        <ele>210.6</ele>
        <time>2019-01-18T14:07:26.000Z</time>
      </trkpt>
      <trkpt lat="43.21574" lon="5.41799">
        <ele>210.6</ele>
        <time>2019-01-18T14:07:34.000Z</time>
      </trkpt>
      <trkpt lat="43.21593" lon="5.41793">
        <ele>213</ele>
        <time>2019-01-18T14:07:43.000Z</time>
      </trkpt>
      <trkpt lat="43.21612" lon="5.41788">
        <ele>213.8</ele>
        <time>2019-01-18T14:07:52.000Z</time>
      </trkpt>
      <trkpt lat="43.21629" lon="5.41781">
        <ele>214.4</ele>
        <time>2019-01-18T14:08:00.000Z</time>
      </trkpt>
      <trkpt lat="43.21647" lon="5.41777">
        <ele>216.4</ele>
        <time>2019-01-18T14:08:08.000Z</time>
      </trkpt>
      <trkpt lat="43.21663" lon="5.41763">
        <ele>218.4</ele>
        <time>2019-01-18T14:08:17.000Z</time>
      </trkpt>
      <trkpt lat="43.21676" lon="5.41743">
        <ele>218.2</ele>
        <time>2019-01-18T14:08:26.000Z</time>
      </trkpt>
      <trkpt lat="43.2169" lon="5.41724">
        <ele>218.4</ele>
        <time>2019-01-18T14:08:35.000Z</time>
      </trkpt>
      <trkpt lat="43.21708" lon="5.41714">
        <ele>216.2</ele>
        <time>2019-01-18T14:08:44.000Z</time>
      </trkpt>
      <trkpt lat="43.21716" lon="5.41711">
        <ele>212.4</ele>
        <time>2019-01-18T14:08:50.000Z</time>
      </trkpt>
      <trkpt lat="43.21718" lon="5.41706">
        <ele>211.6</ele>
        <time>2019-01-18T14:08:53.000Z</time>
      </trkpt>
      <trkpt lat="43.21726" lon="5.417">
        <ele>208.2</ele>
        <time>2019-01-18T14:09:00.000Z</time>
      </trkpt>
      <trkpt lat="43.21742" lon="5.41687">
        <ele>197</ele>
        <time>2019-01-18T14:09:16.000Z</time>
      </trkpt>
      <trkpt lat="43.21749" lon="5.41665">
        <ele>189.8</ele>
        <time>2019-01-18T14:09:36.000Z</time>
      </trkpt>
      <trkpt lat="43.21755" lon="5.41643">
        <ele>183.2</ele>
        <time>2019-01-18T14:09:52.000Z</time>
      </trkpt>
      <trkpt lat="43.21767" lon="5.41625">
        <ele>174.8</ele>
        <time>2019-01-18T14:10:09.000Z</time>
      </trkpt>
      <trkpt lat="43.21782" lon="5.41612">
        <ele>169</ele>
        <time>2019-01-18T14:10:21.000Z</time>
      </trkpt>
      <trkpt lat="43.21795" lon="5.41593">
        <ele>165</ele>
        <time>2019-01-18T14:10:29.000Z</time>
      </trkpt>
      <trkpt lat="43.2181" lon="5.41578">
        <ele>164.6</ele>
        <time>2019-01-18T14:10:37.000Z</time>
      </trkpt>
      <trkpt lat="43.21819" lon="5.41557">
        <ele>167.2</ele>
        <time>2019-01-18T14:10:46.000Z</time>
      </trkpt>
      <trkpt lat="43.2183" lon="5.41535">
        <ele>172.6</ele>
        <time>2019-01-18T14:10:56.000Z</time>
      </trkpt>
      <trkpt lat="43.21832" lon="5.4151">
        <ele>178.2</ele>
        <time>2019-01-18T14:11:08.000Z</time>
      </trkpt>
      <trkpt lat="43.21827" lon="5.41486">
        <ele>182.4</ele>
        <time>2019-01-18T14:11:22.000Z</time>
      </trkpt>
      <trkpt lat="43.21829" lon="5.41474">
        <ele>182.6</ele>
        <time>2019-01-18T14:11:29.000Z</time>
      </trkpt>
      <trkpt lat="43.21829" lon="5.41449">
        <ele>188.8</ele>
        <time>2019-01-18T14:11:43.000Z</time>
      </trkpt>
      <trkpt lat="43.21822" lon="5.41424">
        <ele>190.6</ele>
        <time>2019-01-18T14:11:54.000Z</time>
      </trkpt>
      <trkpt lat="43.21816" lon="5.41401">
        <ele>195.2</ele>
        <time>2019-01-18T14:12:04.000Z</time>
      </trkpt>
      <trkpt lat="43.21804" lon="5.41381">
        <ele>196.8</ele>
        <time>2019-01-18T14:12:15.000Z</time>
      </trkpt>
      <trkpt lat="43.21797" lon="5.41367">
        <ele>197.4</ele>
        <time>2019-01-18T14:12:22.000Z</time>
      </trkpt>
      <trkpt lat="43.21797" lon="5.41342">
        <ele>198.8</ele>
        <time>2019-01-18T14:12:31.000Z</time>
      </trkpt>
      <trkpt lat="43.21796" lon="5.41314">
        <ele>200.8</ele>
        <time>2019-01-18T14:12:41.000Z</time>
      </trkpt>
      <trkpt lat="43.21799" lon="5.41288">
        <ele>201</ele>
        <time>2019-01-18T14:12:50.000Z</time>
      </trkpt>
      <trkpt lat="43.21807" lon="5.41263">
        <ele>200.8</ele>
        <time>2019-01-18T14:12:59.000Z</time>
      </trkpt>
      <trkpt lat="43.21797" lon="5.41242">
        <ele>202.8</ele>
        <time>2019-01-18T14:13:08.000Z</time>
      </trkpt>
      <trkpt lat="43.2178" lon="5.41227">
        <ele>201.8</ele>
        <time>2019-01-18T14:13:17.000Z</time>
      </trkpt>
      <trkpt lat="43.21764" lon="5.41214">
        <ele>201.6</ele>
        <time>2019-01-18T14:13:25.000Z</time>
      </trkpt>
      <trkpt lat="43.21747" lon="5.41207">
        <ele>202</ele>
        <time>2019-01-18T14:13:33.000Z</time>
      </trkpt>
      <trkpt lat="43.21728" lon="5.41207">
        <ele>201</ele>
        <time>2019-01-18T14:13:41.000Z</time>
      </trkpt>
      <trkpt lat="43.21719" lon="5.41186">
        <ele>200</ele>
        <time>2019-01-18T14:13:49.000Z</time>
      </trkpt>
      <trkpt lat="43.21714" lon="5.41158">
        <ele>199</ele>
        <time>2019-01-18T14:13:57.000Z</time>
      </trkpt>
      <trkpt lat="43.21717" lon="5.41133">
        <ele>197.4</ele>
        <time>2019-01-18T14:14:04.000Z</time>
      </trkpt>
      <trkpt lat="43.21716" lon="5.41107">
        <ele>195.2</ele>
        <time>2019-01-18T14:14:11.000Z</time>
      </trkpt>
      <trkpt lat="43.2171" lon="5.41082">
        <ele>196</ele>
        <time>2019-01-18T14:14:18.000Z</time>
      </trkpt>
      <trkpt lat="43.21703" lon="5.41057">
        <ele>194</ele>
        <time>2019-01-18T14:14:25.000Z</time>
      </trkpt>
      <trkpt lat="43.21697" lon="5.41033">
        <ele>190.6</ele>
        <time>2019-01-18T14:14:32.000Z</time>
      </trkpt>
      <trkpt lat="43.21688" lon="5.41011">
        <ele>187.6</ele>
        <time>2019-01-18T14:14:39.000Z</time>
      </trkpt>
      <trkpt lat="43.21676" lon="5.40992">
        <ele>188.6</ele>
        <time>2019-01-18T14:14:46.000Z</time>
      </trkpt>
      <trkpt lat="43.21664" lon="5.40973">
        <ele>188.8</ele>
        <time>2019-01-18T14:14:53.000Z</time>
      </trkpt>
      <trkpt lat="43.21649" lon="5.40958">
        <ele>189.8</ele>
        <time>2019-01-18T14:15:00.000Z</time>
      </trkpt>
      <trkpt lat="43.21635" lon="5.40941">
        <ele>188.6</ele>
        <time>2019-01-18T14:15:07.000Z</time>
      </trkpt>
      <trkpt lat="43.21636" lon="5.40916">
        <ele>185</ele>
        <time>2019-01-18T14:15:14.000Z</time>
      </trkpt>
      <trkpt lat="43.21648" lon="5.40895">
        <ele>182</ele>
        <time>2019-01-18T14:15:21.000Z</time>
      </trkpt>
      <trkpt lat="43.21649" lon="5.40891">
        <ele>181.4</ele>
        <time>2019-01-18T14:15:23.000Z</time>
      </trkpt>
      <trkpt lat="43.21649" lon="5.40866">
        <ele>181.4</ele>
        <time>2019-01-18T14:15:31.000Z</time>
      </trkpt>
      <trkpt lat="43.21653" lon="5.40852">
        <ele>182</ele>
        <time>2019-01-18T14:15:37.000Z</time>
      </trkpt>
      <trkpt lat="43.2164" lon="5.40837">
        <ele>190</ele>
        <time>2019-01-18T14:15:50.000Z</time>
      </trkpt>
      <trkpt lat="43.21633" lon="5.40818">
        <ele>192</ele>
        <time>2019-01-18T14:16:05.000Z</time>
      </trkpt>
      <trkpt lat="43.21632" lon="5.40793">
        <ele>196.4</ele>
        <time>2019-01-18T14:16:22.000Z</time>
      </trkpt>
      <trkpt lat="43.21633" lon="5.40788">
        <ele>196.8</ele>
        <time>2019-01-18T14:16:26.000Z</time>
      </trkpt>
      <trkpt lat="43.21632" lon="5.40773">
        <ele>199.4</ele>
        <time>2019-01-18T14:16:38.000Z</time>
      </trkpt>
      <trkpt lat="43.21632" lon="5.4077">
        <ele>200.8</ele>
        <time>2019-01-18T14:16:40.000Z</time>
      </trkpt>
      <trkpt lat="43.21634" lon="5.40767">
        <ele>202.8</ele>
        <time>2019-01-18T14:16:44.000Z</time>
      </trkpt>
      <trkpt lat="43.21649" lon="5.40757">
        <ele>203.8</ele>
        <time>2019-01-18T14:16:53.000Z</time>
      </trkpt>
      <trkpt lat="43.21649" lon="5.40753">
        <ele>204.4</ele>
        <time>2019-01-18T14:16:55.000Z</time>
      </trkpt>
      <trkpt lat="43.21643" lon="5.40729">
        <ele>209.4</ele>
        <time>2019-01-18T14:17:06.000Z</time>
      </trkpt>
      <trkpt lat="43.21644" lon="5.40704">
        <ele>212.8</ele>
        <time>2019-01-18T14:17:17.000Z</time>
      </trkpt>
      <trkpt lat="43.21644" lon="5.40679">
        <ele>214</ele>
        <time>2019-01-18T14:17:27.000Z</time>
      </trkpt>
      <trkpt lat="43.2165" lon="5.40655">
        <ele>213.8</ele>
        <time>2019-01-18T14:17:37.000Z</time>
      </trkpt>
      <trkpt lat="43.21652" lon="5.40631">
        <ele>217.8</ele>
        <time>2019-01-18T14:17:48.000Z</time>
      </trkpt>
      <trkpt lat="43.21648" lon="5.40606">
        <ele>223.6</ele>
        <time>2019-01-18T14:18:02.000Z</time>
      </trkpt>
      <trkpt lat="43.21643" lon="5.40589">
        <ele>225.8</ele>
        <time>2019-01-18T14:18:11.000Z</time>
      </trkpt>
      <trkpt lat="43.21636" lon="5.40566">
        <ele>229.8</ele>
        <time>2019-01-18T14:18:27.000Z</time>
      </trkpt>
      <trkpt lat="43.21636" lon="5.40541">
        <ele>234</ele>
        <time>2019-01-18T14:18:44.000Z</time>
      </trkpt>
      <trkpt lat="43.21635" lon="5.40534">
        <ele>235</ele>
        <time>2019-01-18T14:18:49.000Z</time>
      </trkpt>
      <trkpt lat="43.21644" lon="5.40513">
        <ele>237</ele>
        <time>2019-01-18T14:19:01.000Z</time>
      </trkpt>
      <trkpt lat="43.21661" lon="5.40503">
        <ele>238.6</ele>
        <time>2019-01-18T14:19:15.000Z</time>
      </trkpt>
      <trkpt lat="43.21674" lon="5.40503">
        <ele>238.6</ele>
        <time>2019-01-18T14:19:23.000Z</time>
      </trkpt>
      <trkpt lat="43.21682" lon="5.40498">
        <ele>238.2</ele>
        <time>2019-01-18T14:19:27.000Z</time>
      </trkpt>
      <trkpt lat="43.21682" lon="5.40473">
        <ele>241.4</ele>
        <time>2019-01-18T14:19:35.000Z</time>
      </trkpt>
      <trkpt lat="43.2169" lon="5.40453">
        <ele>244.8</ele>
        <time>2019-01-18T14:19:44.000Z</time>
      </trkpt>
      <trkpt lat="43.21675" lon="5.40445">
        <ele>244.6</ele>
        <time>2019-01-18T14:20:01.000Z</time>
      </trkpt>
      <trkpt lat="43.21674" lon="5.40444">
        <ele>245.2</ele>
        <time>2019-01-18T14:20:03.000Z</time>
      </trkpt>
      <trkpt lat="43.21667" lon="5.40437">
        <ele>243.8</ele>
        <time>2019-01-18T14:20:21.000Z</time>
      </trkpt>
      <trkpt lat="43.21666" lon="5.40416">
        <ele>240.4</ele>
        <time>2019-01-18T14:20:30.000Z</time>
      </trkpt>
      <trkpt lat="43.21665" lon="5.40408">
        <ele>238.2</ele>
        <time>2019-01-18T14:20:34.000Z</time>
      </trkpt>
      <trkpt lat="43.2167" lon="5.40402">
        <ele>236.8</ele>
        <time>2019-01-18T14:20:39.000Z</time>
      </trkpt>
      <trkpt lat="43.21677" lon="5.40402">
        <ele>233</ele>
        <time>2019-01-18T14:20:44.000Z</time>
      </trkpt>
      <trkpt lat="43.21678" lon="5.404">
        <ele>231</ele>
        <time>2019-01-18T14:20:47.000Z</time>
      </trkpt>
      <trkpt lat="43.21679" lon="5.40398">
        <ele>223</ele>
        <time>2019-01-18T14:20:59.000Z</time>
      </trkpt>
      <trkpt lat="43.21678" lon="5.40392">
        <ele>223.4</ele>
        <time>2019-01-18T14:21:02.000Z</time>
      </trkpt>
      <trkpt lat="43.21675" lon="5.40395">
        <ele>222</ele>
        <time>2019-01-18T14:21:05.000Z</time>
      </trkpt>
      <trkpt lat="43.21672" lon="5.40368">
        <ele>225.2</ele>
        <time>2019-01-18T14:21:12.000Z</time>
      </trkpt>
      <trkpt lat="43.21668" lon="5.40348">
        <ele>226.4</ele>
        <time>2019-01-18T14:21:19.000Z</time>
      </trkpt>
      <trkpt lat="43.21663" lon="5.40339">
        <ele>225.4</ele>
        <time>2019-01-18T14:21:24.000Z</time>
      </trkpt>
      <trkpt lat="43.21664" lon="5.40313">
        <ele>221</ele>
        <time>2019-01-18T14:21:35.000Z</time>
      </trkpt>
      <trkpt lat="43.21664" lon="5.40312">
        <ele>220.6</ele>
        <time>2019-01-18T14:21:36.000Z</time>
      </trkpt>
      <trkpt lat="43.21663" lon="5.40311">
        <ele>219.8</ele>
        <time>2019-01-18T14:21:38.000Z</time>
      </trkpt>
      <trkpt lat="43.21656" lon="5.40288">
        <ele>212.8</ele>
        <time>2019-01-18T14:21:52.000Z</time>
      </trkpt>
      <trkpt lat="43.21655" lon="5.40279">
        <ele>210</ele>
        <time>2019-01-18T14:21:57.000Z</time>
      </trkpt>
      <trkpt lat="43.21662" lon="5.40259">
        <ele>198.8</ele>
        <time>2019-01-18T14:22:07.000Z</time>
      </trkpt>
      <trkpt lat="43.21662" lon="5.40235">
        <ele>197.4</ele>
        <time>2019-01-18T14:22:16.000Z</time>
      </trkpt>
      <trkpt lat="43.2165" lon="5.40215">
        <ele>202.8</ele>
        <time>2019-01-18T14:22:22.000Z</time>
      </trkpt>
      <trkpt lat="43.21648" lon="5.40189">
        <ele>203.8</ele>
        <time>2019-01-18T14:22:32.000Z</time>
      </trkpt>
      <trkpt lat="43.21638" lon="5.40168">
        <ele>202.4</ele>
        <time>2019-01-18T14:22:40.000Z</time>
      </trkpt>
      <trkpt lat="43.21628" lon="5.40146">
        <ele>206.4</ele>
        <time>2019-01-18T14:22:53.000Z</time>
      </trkpt>
      <trkpt lat="43.21624" lon="5.40138">
        <ele>205</ele>
        <time>2019-01-18T14:22:57.000Z</time>
      </trkpt>
      <trkpt lat="43.21625" lon="5.40111">
        <ele>202.2</ele>
        <time>2019-01-18T14:23:06.000Z</time>
      </trkpt>
      <trkpt lat="43.21624" lon="5.40087">
        <ele>199</ele>
        <time>2019-01-18T14:23:14.000Z</time>
      </trkpt>
      <trkpt lat="43.21618" lon="5.40076">
        <ele>202.2</ele>
        <time>2019-01-18T14:23:19.000Z</time>
      </trkpt>
      <trkpt lat="43.21607" lon="5.40069">
        <ele>206.2</ele>
        <time>2019-01-18T14:23:24.000Z</time>
      </trkpt>
      <trkpt lat="43.21604" lon="5.40061">
        <ele>207.2</ele>
        <time>2019-01-18T14:23:28.000Z</time>
      </trkpt>
      <trkpt lat="43.21608" lon="5.40047">
        <ele>207.2</ele>
        <time>2019-01-18T14:23:52.000Z</time>
      </trkpt>
      <trkpt lat="43.21609" lon="5.4002">
        <ele>206.4</ele>
        <time>2019-01-18T14:23:59.000Z</time>
      </trkpt>
      <trkpt lat="43.21613" lon="5.39996">
        <ele>203</ele>
        <time>2019-01-18T14:24:08.000Z</time>
      </trkpt>
      <trkpt lat="43.21613" lon="5.39993">
        <ele>202.4</ele>
        <time>2019-01-18T14:24:09.000Z</time>
      </trkpt>
      <trkpt lat="43.21598" lon="5.39976">
        <ele>199.8</ele>
        <time>2019-01-18T14:24:18.000Z</time>
      </trkpt>
      <trkpt lat="43.21583" lon="5.39959">
        <ele>200.8</ele>
        <time>2019-01-18T14:24:28.000Z</time>
      </trkpt>
      <trkpt lat="43.21574" lon="5.39937">
        <ele>202</ele>
        <time>2019-01-18T14:24:38.000Z</time>
      </trkpt>
      <trkpt lat="43.21584" lon="5.39916">
        <ele>199.4</ele>
        <time>2019-01-18T14:24:48.000Z</time>
      </trkpt>
      <trkpt lat="43.21577" lon="5.39892">
        <ele>199.2</ele>
        <time>2019-01-18T14:24:56.000Z</time>
      </trkpt>
      <trkpt lat="43.21563" lon="5.39874">
        <ele>202.2</ele>
        <time>2019-01-18T14:25:04.000Z</time>
      </trkpt>
      <trkpt lat="43.21559" lon="5.3986">
        <ele>204.8</ele>
        <time>2019-01-18T14:25:10.000Z</time>
      </trkpt>
      <trkpt lat="43.21561" lon="5.3985">
        <ele>207.2</ele>
        <time>2019-01-18T14:25:15.000Z</time>
      </trkpt>
      <trkpt lat="43.21577" lon="5.39838">
        <ele>208.4</ele>
        <time>2019-01-18T14:25:38.000Z</time>
      </trkpt>
      <trkpt lat="43.21587" lon="5.39818">
        <ele>208</ele>
        <time>2019-01-18T14:25:47.000Z</time>
      </trkpt>
      <trkpt lat="43.21589" lon="5.39817">
        <ele>208</ele>
        <time>2019-01-18T14:25:48.000Z</time>
      </trkpt>
      <trkpt lat="43.21606" lon="5.39808">
        <ele>205.8</ele>
        <time>2019-01-18T14:25:57.000Z</time>
      </trkpt>
      <trkpt lat="43.21621" lon="5.39792">
        <ele>205.4</ele>
        <time>2019-01-18T14:26:07.000Z</time>
      </trkpt>
      <trkpt lat="43.21627" lon="5.39783">
        <ele>207</ele>
        <time>2019-01-18T14:26:14.000Z</time>
      </trkpt>
      <trkpt lat="43.21629" lon="5.39771">
        <ele>209.6</ele>
        <time>2019-01-18T14:26:21.000Z</time>
      </trkpt>
      <trkpt lat="43.21631" lon="5.39764">
        <ele>210.4</ele>
        <time>2019-01-18T14:26:27.000Z</time>
      </trkpt>
      <trkpt lat="43.21627" lon="5.39743">
        <ele>218.4</ele>
        <time>2019-01-18T14:26:49.000Z</time>
      </trkpt>
      <trkpt lat="43.21626" lon="5.39719">
        <ele>222.2</ele>
        <time>2019-01-18T14:27:05.000Z</time>
      </trkpt>
      <trkpt lat="43.21626" lon="5.39716">
        <ele>222.2</ele>
        <time>2019-01-18T14:27:07.000Z</time>
      </trkpt>
      <trkpt lat="43.21628" lon="5.39716">
        <ele>222.6</ele>
        <time>2019-01-18T14:27:10.000Z</time>
      </trkpt>
      <trkpt lat="43.21641" lon="5.39698">
        <ele>227</ele>
        <time>2019-01-18T14:27:27.000Z</time>
      </trkpt>
      <trkpt lat="43.21646" lon="5.39676">
        <ele>233.4</ele>
        <time>2019-01-18T14:27:41.000Z</time>
      </trkpt>
      <trkpt lat="43.21644" lon="5.39651">
        <ele>232.8</ele>
        <time>2019-01-18T14:28:02.000Z</time>
      </trkpt>
      <trkpt lat="43.21646" lon="5.39626">
        <ele>229.8</ele>
        <time>2019-01-18T14:28:13.000Z</time>
      </trkpt>
      <trkpt lat="43.21655" lon="5.39601">
        <ele>218.2</ele>
        <time>2019-01-18T14:28:25.000Z</time>
      </trkpt>
      <trkpt lat="43.21654" lon="5.39592">
        <ele>216.2</ele>
        <time>2019-01-18T14:28:29.000Z</time>
      </trkpt>
      <trkpt lat="43.21661" lon="5.39582">
        <ele>214</ele>
        <time>2019-01-18T14:28:36.000Z</time>
      </trkpt>
      <trkpt lat="43.21664" lon="5.39576">
        <ele>212.6</ele>
        <time>2019-01-18T14:28:40.000Z</time>
      </trkpt>
      <trkpt lat="43.21661" lon="5.39562">
        <ele>211.8</ele>
        <time>2019-01-18T14:28:47.000Z</time>
      </trkpt>
      <trkpt lat="43.2166" lon="5.39545">
        <ele>211</ele>
        <time>2019-01-18T14:28:58.000Z</time>
      </trkpt>
      <trkpt lat="43.21656" lon="5.39545">
        <ele>208.8</ele>
        <time>2019-01-18T14:29:01.000Z</time>
      </trkpt>
      <trkpt lat="43.21656" lon="5.39531">
        <ele>204.8</ele>
        <time>2019-01-18T14:29:07.000Z</time>
      </trkpt>
      <trkpt lat="43.2164" lon="5.39519">
        <ele>197</ele>
        <time>2019-01-18T14:29:18.000Z</time>
      </trkpt>
      <trkpt lat="43.21634" lon="5.39512">
        <ele>195.8</ele>
        <time>2019-01-18T14:30:02.000Z</time>
      </trkpt>
      <trkpt lat="43.2164" lon="5.39508">
        <ele>198.6</ele>
        <time>2019-01-18T14:30:53.000Z</time>
      </trkpt>
      <trkpt lat="43.2163" lon="5.39501">
        <ele>198.6</ele>
        <time>2019-01-18T14:31:10.000Z</time>
      </trkpt>
      <trkpt lat="43.21637" lon="5.39494">
        <ele>205.4</ele>
        <time>2019-01-18T14:31:56.000Z</time>
      </trkpt>
      <trkpt lat="43.21655" lon="5.39489">
        <ele>208.6</ele>
        <time>2019-01-18T14:32:08.000Z</time>
      </trkpt>
      <trkpt lat="43.21667" lon="5.39473">
        <ele>211.4</ele>
        <time>2019-01-18T14:32:20.000Z</time>
      </trkpt>
      <trkpt lat="43.21667" lon="5.39457">
        <ele>212.2</ele>
        <time>2019-01-18T14:32:31.000Z</time>
      </trkpt>
      <trkpt lat="43.21666" lon="5.39456">
        <ele>211.6</ele>
        <time>2019-01-18T14:32:33.000Z</time>
      </trkpt>
      <trkpt lat="43.21664" lon="5.39456">
        <ele>211.4</ele>
        <time>2019-01-18T14:32:35.000Z</time>
      </trkpt>
      <trkpt lat="43.21662" lon="5.39452">
        <ele>211.4</ele>
        <time>2019-01-18T14:32:39.000Z</time>
      </trkpt>
      <trkpt lat="43.21654" lon="5.39443">
        <ele>211</ele>
        <time>2019-01-18T14:32:46.000Z</time>
      </trkpt>
      <trkpt lat="43.21661" lon="5.39419">
        <ele>214.4</ele>
        <time>2019-01-18T14:32:59.000Z</time>
      </trkpt>
      <trkpt lat="43.21665" lon="5.39413">
        <ele>215.2</ele>
        <time>2019-01-18T14:33:03.000Z</time>
      </trkpt>
      <trkpt lat="43.21676" lon="5.39395">
        <ele>221.2</ele>
        <time>2019-01-18T14:33:17.000Z</time>
      </trkpt>
      <trkpt lat="43.21677" lon="5.3939">
        <ele>221.8</ele>
        <time>2019-01-18T14:33:21.000Z</time>
      </trkpt>
      <trkpt lat="43.21676" lon="5.39366">
        <ele>225.2</ele>
        <time>2019-01-18T14:33:41.000Z</time>
      </trkpt>
      <trkpt lat="43.21677" lon="5.39362">
        <ele>225.2</ele>
        <time>2019-01-18T14:33:44.000Z</time>
      </trkpt>
      <trkpt lat="43.21681" lon="5.39354">
        <ele>227.8</ele>
        <time>2019-01-18T14:33:51.000Z</time>
      </trkpt>
      <trkpt lat="43.21687" lon="5.3935">
        <ele>226.6</ele>
        <time>2019-01-18T14:33:58.000Z</time>
      </trkpt>
      <trkpt lat="43.21688" lon="5.39326">
        <ele>230.8</ele>
        <time>2019-01-18T14:34:18.000Z</time>
      </trkpt>
      <trkpt lat="43.21693" lon="5.39314">
        <ele>237.4</ele>
        <time>2019-01-18T14:34:33.000Z</time>
      </trkpt>
      <trkpt lat="43.21692" lon="5.39292">
        <ele>245.6</ele>
        <time>2019-01-18T14:35:09.000Z</time>
      </trkpt>
      <trkpt lat="43.21688" lon="5.39291">
        <ele>245.4</ele>
        <time>2019-01-18T14:35:12.000Z</time>
      </trkpt>
      <trkpt lat="43.21687" lon="5.39293">
        <ele>249.4</ele>
        <time>2019-01-18T14:35:14.000Z</time>
      </trkpt>
      <trkpt lat="43.21677" lon="5.39303">
        <ele>279</ele>
        <time>2019-01-18T14:35:44.000Z</time>
      </trkpt>
      <trkpt lat="43.21677" lon="5.39305">
        <ele>286.4</ele>
        <time>2019-01-18T14:35:48.000Z</time>
      </trkpt>
      <trkpt lat="43.21675" lon="5.39298">
        <ele>284.2</ele>
        <time>2019-01-18T14:35:51.000Z</time>
      </trkpt>
      <trkpt lat="43.21677" lon="5.39289">
        <ele>282.4</ele>
        <time>2019-01-18T14:35:57.000Z</time>
      </trkpt>
      <trkpt lat="43.21677" lon="5.39287">
        <ele>284</ele>
        <time>2019-01-18T14:36:00.000Z</time>
      </trkpt>
      <trkpt lat="43.2168" lon="5.39275">
        <ele>278.4</ele>
        <time>2019-01-18T14:36:09.000Z</time>
      </trkpt>
      <trkpt lat="43.2168" lon="5.39271">
        <ele>280</ele>
        <time>2019-01-18T14:36:13.000Z</time>
      </trkpt>
      <trkpt lat="43.21679" lon="5.39264">
        <ele>289</ele>
        <time>2019-01-18T14:36:30.000Z</time>
      </trkpt>
      <trkpt lat="43.21677" lon="5.39263">
        <ele>288.8</ele>
        <time>2019-01-18T14:36:32.000Z</time>
      </trkpt>
      <trkpt lat="43.2167" lon="5.39264">
        <ele>291.2</ele>
        <time>2019-01-18T14:36:35.000Z</time>
      </trkpt>
      <trkpt lat="43.21676" lon="5.39242">
        <ele>307.4</ele>
        <time>2019-01-18T14:37:16.000Z</time>
      </trkpt>
      <trkpt lat="43.21681" lon="5.39243">
        <ele>314.2</ele>
        <time>2019-01-18T14:37:22.000Z</time>
      </trkpt>
      <trkpt lat="43.21684" lon="5.39245">
        <ele>320.2</ele>
        <time>2019-01-18T14:37:25.000Z</time>
      </trkpt>
      <trkpt lat="43.21688" lon="5.39224">
        <ele>313</ele>
        <time>2019-01-18T14:37:57.000Z</time>
      </trkpt>
      <trkpt lat="43.21687" lon="5.39223">
        <ele>314.8</ele>
        <time>2019-01-18T14:38:01.000Z</time>
      </trkpt>
      <trkpt lat="43.21687" lon="5.39222">
        <ele>315.2</ele>
        <time>2019-01-18T14:38:03.000Z</time>
      </trkpt>
      <trkpt lat="43.21678" lon="5.39205">
        <ele>293</ele>
        <time>2019-01-18T14:38:59.000Z</time>
      </trkpt>
      <trkpt lat="43.21675" lon="5.39201">
        <ele>302.2</ele>
        <time>2019-01-18T14:39:23.000Z</time>
      </trkpt>
      <trkpt lat="43.21678" lon="5.39207">
        <ele>309.6</ele>
        <time>2019-01-18T14:39:36.000Z</time>
      </trkpt>
      <trkpt lat="43.21677" lon="5.39206">
        <ele>309.2</ele>
        <time>2019-01-18T14:40:28.000Z</time>
      </trkpt>
      <trkpt lat="43.21677" lon="5.39211">
        <ele>314.6</ele>
        <time>2019-01-18T14:40:35.000Z</time>
      </trkpt>
      <trkpt lat="43.21676" lon="5.39211">
        <ele>315</ele>
        <time>2019-01-18T14:40:37.000Z</time>
      </trkpt>
      <trkpt lat="43.21674" lon="5.39205">
        <ele>310.6</ele>
        <time>2019-01-18T14:40:51.000Z</time>
      </trkpt>
      <trkpt lat="43.21673" lon="5.39202">
        <ele>304.4</ele>
        <time>2019-01-18T14:40:53.000Z</time>
      </trkpt>
      <trkpt lat="43.21672" lon="5.392">
        <ele>300.2</ele>
        <time>2019-01-18T14:40:55.000Z</time>
      </trkpt>
      <trkpt lat="43.21663" lon="5.39192">
        <ele>314.8</ele>
        <time>2019-01-18T14:41:42.000Z</time>
      </trkpt>
      <trkpt lat="43.21645" lon="5.39187">
        <ele>320.4</ele>
        <time>2019-01-18T14:42:01.000Z</time>
      </trkpt>
      <trkpt lat="43.21643" lon="5.39189">
        <ele>321</ele>
        <time>2019-01-18T14:42:02.000Z</time>
      </trkpt>
      <trkpt lat="43.21632" lon="5.39173">
        <ele>328</ele>
        <time>2019-01-18T14:42:25.000Z</time>
      </trkpt>
      <trkpt lat="43.21642" lon="5.39154">
        <ele>335.2</ele>
        <time>2019-01-18T14:42:53.000Z</time>
      </trkpt>
      <trkpt lat="43.21642" lon="5.39133">
        <ele>343</ele>
        <time>2019-01-18T14:43:29.000Z</time>
      </trkpt>
      <trkpt lat="43.21659" lon="5.39123">
        <ele>344.2</ele>
        <time>2019-01-18T14:43:44.000Z</time>
      </trkpt>
      <trkpt lat="43.21671" lon="5.39104">
        <ele>347.4</ele>
        <time>2019-01-18T14:43:54.000Z</time>
      </trkpt>
      <trkpt lat="43.21686" lon="5.39089">
        <ele>355</ele>
        <time>2019-01-18T14:44:07.000Z</time>
      </trkpt>
      <trkpt lat="43.217" lon="5.39081">
        <ele>359.2</ele>
        <time>2019-01-18T14:44:17.000Z</time>
      </trkpt>
      <trkpt lat="43.21717" lon="5.39074">
        <ele>361.4</ele>
        <time>2019-01-18T14:44:33.000Z</time>
      </trkpt>
      <trkpt lat="43.21733" lon="5.39063">
        <ele>355.6</ele>
        <time>2019-01-18T14:44:47.000Z</time>
      </trkpt>
      <trkpt lat="43.2174" lon="5.39062">
        <ele>356</ele>
        <time>2019-01-18T14:44:52.000Z</time>
      </trkpt>
      <trkpt lat="43.21751" lon="5.3907">
        <ele>360.4</ele>
        <time>2019-01-18T14:45:01.000Z</time>
      </trkpt>
      <trkpt lat="43.21767" lon="5.39076">
        <ele>366.6</ele>
        <time>2019-01-18T14:45:17.000Z</time>
      </trkpt>
      <trkpt lat="43.2177" lon="5.39065">
        <ele>368.6</ele>
        <time>2019-01-18T14:45:25.000Z</time>
      </trkpt>
      <trkpt lat="43.21772" lon="5.39063">
        <ele>370.4</ele>
        <time>2019-01-18T14:45:28.000Z</time>
      </trkpt>
      <trkpt lat="43.21775" lon="5.39061">
        <ele>372.4</ele>
        <time>2019-01-18T14:45:40.000Z</time>
      </trkpt>
      <trkpt lat="43.21774" lon="5.3906">
        <ele>372.2</ele>
        <time>2019-01-18T14:45:42.000Z</time>
      </trkpt>
      <trkpt lat="43.21774" lon="5.39059">
        <ele>368.8</ele>
        <time>2019-01-18T14:45:44.000Z</time>
      </trkpt>
      <trkpt lat="43.21765" lon="5.39053">
        <ele>366.6</ele>
        <time>2019-01-18T14:46:23.000Z</time>
      </trkpt>
      <trkpt lat="43.21753" lon="5.39034">
        <ele>367</ele>
        <time>2019-01-18T14:46:34.000Z</time>
      </trkpt>
      <trkpt lat="43.21751" lon="5.39033">
        <ele>366.4</ele>
        <time>2019-01-18T14:46:35.000Z</time>
      </trkpt>
      <trkpt lat="43.21737" lon="5.39022">
        <ele>366</ele>
        <time>2019-01-18T14:46:45.000Z</time>
      </trkpt>
      <trkpt lat="43.2172" lon="5.39026">
        <ele>365.4</ele>
        <time>2019-01-18T14:47:27.000Z</time>
      </trkpt>
      <trkpt lat="43.21702" lon="5.39037">
        <ele>362.6</ele>
        <time>2019-01-18T14:47:36.000Z</time>
      </trkpt>
      <trkpt lat="43.21684" lon="5.3904">
        <ele>361.2</ele>
        <time>2019-01-18T14:47:44.000Z</time>
      </trkpt>
      <trkpt lat="43.21671" lon="5.3904">
        <ele>360</ele>
        <time>2019-01-18T14:47:50.000Z</time>
      </trkpt>
      <trkpt lat="43.21652" lon="5.39034">
        <ele>355.2</ele>
        <time>2019-01-18T14:47:59.000Z</time>
      </trkpt>
      <trkpt lat="43.21635" lon="5.39026">
        <ele>352.2</ele>
        <time>2019-01-18T14:48:09.000Z</time>
      </trkpt>
      <trkpt lat="43.21628" lon="5.39026">
        <ele>352.2</ele>
        <time>2019-01-18T14:48:14.000Z</time>
      </trkpt>
      <trkpt lat="43.21613" lon="5.39012">
        <ele>345.8</ele>
        <time>2019-01-18T14:48:37.000Z</time>
      </trkpt>
      <trkpt lat="43.21607" lon="5.38992">
        <ele>336.2</ele>
        <time>2019-01-18T14:48:58.000Z</time>
      </trkpt>
      <trkpt lat="43.21599" lon="5.38974">
        <ele>330.2</ele>
        <time>2019-01-18T14:49:10.000Z</time>
      </trkpt>
      <trkpt lat="43.21598" lon="5.38968">
        <ele>328.6</ele>
        <time>2019-01-18T14:49:13.000Z</time>
      </trkpt>
      <trkpt lat="43.21595" lon="5.38963">
        <ele>327.2</ele>
        <time>2019-01-18T14:49:16.000Z</time>
      </trkpt>
      <trkpt lat="43.21594" lon="5.38947">
        <ele>323</ele>
        <time>2019-01-18T14:49:25.000Z</time>
      </trkpt>
      <trkpt lat="43.21598" lon="5.38923">
        <ele>317.8</ele>
        <time>2019-01-18T14:49:36.000Z</time>
      </trkpt>
      <trkpt lat="43.21606" lon="5.38901">
        <ele>313</ele>
        <time>2019-01-18T14:49:47.000Z</time>
      </trkpt>
      <trkpt lat="43.21612" lon="5.38895">
        <ele>311.2</ele>
        <time>2019-01-18T14:49:51.000Z</time>
      </trkpt>
      <trkpt lat="43.21614" lon="5.38885">
        <ele>308.2</ele>
        <time>2019-01-18T14:49:56.000Z</time>
      </trkpt>
      <trkpt lat="43.21619" lon="5.38881">
        <ele>308</ele>
        <time>2019-01-18T14:49:59.000Z</time>
      </trkpt>
      <trkpt lat="43.2162" lon="5.38873">
        <ele>305.4</ele>
        <time>2019-01-18T14:50:03.000Z</time>
      </trkpt>
      <trkpt lat="43.21619" lon="5.38868">
        <ele>303</ele>
        <time>2019-01-18T14:50:06.000Z</time>
      </trkpt>
      <trkpt lat="43.21628" lon="5.38846">
        <ele>297.8</ele>
        <time>2019-01-18T14:50:17.000Z</time>
      </trkpt>
      <trkpt lat="43.21631" lon="5.38842">
        <ele>297</ele>
        <time>2019-01-18T14:50:20.000Z</time>
      </trkpt>
      <trkpt lat="43.2163" lon="5.3884">
        <ele>294.2</ele>
        <time>2019-01-18T14:50:23.000Z</time>
      </trkpt>
      <trkpt lat="43.21633" lon="5.38818">
        <ele>285</ele>
        <time>2019-01-18T14:50:48.000Z</time>
      </trkpt>
      <trkpt lat="43.21632" lon="5.38812">
        <ele>283.6</ele>
        <time>2019-01-18T14:50:53.000Z</time>
      </trkpt>
      <trkpt lat="43.2163" lon="5.38809">
        <ele>282.6</ele>
        <time>2019-01-18T14:50:55.000Z</time>
      </trkpt>
      <trkpt lat="43.21629" lon="5.38806">
        <ele>281.6</ele>
        <time>2019-01-18T14:50:57.000Z</time>
      </trkpt>
      <trkpt lat="43.21627" lon="5.38784">
        <ele>279.6</ele>
        <time>2019-01-18T14:51:05.000Z</time>
      </trkpt>
      <trkpt lat="43.21623" lon="5.38764">
        <ele>276.4</ele>
        <time>2019-01-18T14:51:14.000Z</time>
      </trkpt>
      <trkpt lat="43.21619" lon="5.38746">
        <ele>274.4</ele>
        <time>2019-01-18T14:51:22.000Z</time>
      </trkpt>
      <trkpt lat="43.2161" lon="5.38725">
        <ele>266.6</ele>
        <time>2019-01-18T14:51:34.000Z</time>
      </trkpt>
      <trkpt lat="43.21609" lon="5.38716">
        <ele>265.4</ele>
        <time>2019-01-18T14:51:40.000Z</time>
      </trkpt>
      <trkpt lat="43.21629" lon="5.38706">
        <ele>266.6</ele>
        <time>2019-01-18T14:51:53.000Z</time>
      </trkpt>
      <trkpt lat="43.21631" lon="5.38681">
        <ele>262</ele>
        <time>2019-01-18T14:52:03.000Z</time>
      </trkpt>
      <trkpt lat="43.21625" lon="5.38657">
        <ele>258.6</ele>
        <time>2019-01-18T14:52:10.000Z</time>
      </trkpt>
      <trkpt lat="43.2162" lon="5.3863">
        <ele>253.4</ele>
        <time>2019-01-18T14:52:17.000Z</time>
      </trkpt>
      <trkpt lat="43.21613" lon="5.38607">
        <ele>252.8</ele>
        <time>2019-01-18T14:52:25.000Z</time>
      </trkpt>
      <trkpt lat="43.21615" lon="5.38579">
        <ele>251.2</ele>
        <time>2019-01-18T14:52:33.000Z</time>
      </trkpt>
      <trkpt lat="43.21619" lon="5.38553">
        <ele>245.8</ele>
        <time>2019-01-18T14:52:42.000Z</time>
      </trkpt>
      <trkpt lat="43.21623" lon="5.38529">
        <ele>243</ele>
        <time>2019-01-18T14:52:50.000Z</time>
      </trkpt>
      <trkpt lat="43.21619" lon="5.38504">
        <ele>242</ele>
        <time>2019-01-18T14:52:58.000Z</time>
      </trkpt>
      <trkpt lat="43.21624" lon="5.38479">
        <ele>240</ele>
        <time>2019-01-18T14:53:06.000Z</time>
      </trkpt>
      <trkpt lat="43.21627" lon="5.38452">
        <ele>237.6</ele>
        <time>2019-01-18T14:53:13.000Z</time>
      </trkpt>
      <trkpt lat="43.21643" lon="5.38446">
        <ele>233.6</ele>
        <time>2019-01-18T14:53:27.000Z</time>
      </trkpt>
      <trkpt lat="43.21649" lon="5.38453">
        <ele>229.4</ele>
        <time>2019-01-18T14:53:33.000Z</time>
      </trkpt>
      <trkpt lat="43.21669" lon="5.38451">
        <ele>228.6</ele>
        <time>2019-01-18T14:53:40.000Z</time>
      </trkpt>
      <trkpt lat="43.21669" lon="5.38448">
        <ele>227.8</ele>
        <time>2019-01-18T14:53:41.000Z</time>
      </trkpt>
      <trkpt lat="43.21679" lon="5.38426">
        <ele>227.6</ele>
        <time>2019-01-18T14:53:49.000Z</time>
      </trkpt>
      <trkpt lat="43.21674" lon="5.38403">
        <ele>224.4</ele>
        <time>2019-01-18T14:53:54.000Z</time>
      </trkpt>
      <trkpt lat="43.2168" lon="5.38379">
        <ele>216.8</ele>
        <time>2019-01-18T14:54:02.000Z</time>
      </trkpt>
      <trkpt lat="43.21698" lon="5.38372">
        <ele>217.6</ele>
        <time>2019-01-18T14:54:09.000Z</time>
      </trkpt>
      <trkpt lat="43.217" lon="5.38365">
        <ele>217.2</ele>
        <time>2019-01-18T14:54:14.000Z</time>
      </trkpt>
      <trkpt lat="43.217" lon="5.38337">
        <ele>216.2</ele>
        <time>2019-01-18T14:54:23.000Z</time>
      </trkpt>
      <trkpt lat="43.21707" lon="5.38315">
        <ele>212.2</ele>
        <time>2019-01-18T14:54:32.000Z</time>
      </trkpt>
      <trkpt lat="43.21724" lon="5.38302">
        <ele>209</ele>
        <time>2019-01-18T14:54:42.000Z</time>
      </trkpt>
      <trkpt lat="43.21736" lon="5.3829">
        <ele>203</ele>
        <time>2019-01-18T14:54:49.000Z</time>
      </trkpt>
      <trkpt lat="43.2174" lon="5.38289">
        <ele>200</ele>
        <time>2019-01-18T14:54:51.000Z</time>
      </trkpt>
      <trkpt lat="43.21748" lon="5.3827">
        <ele>191.6</ele>
        <time>2019-01-18T14:55:04.000Z</time>
      </trkpt>
      <trkpt lat="43.21748" lon="5.38264">
        <ele>189.4</ele>
        <time>2019-01-18T14:55:08.000Z</time>
      </trkpt>
      <trkpt lat="43.21754" lon="5.38241">
        <ele>189.8</ele>
        <time>2019-01-18T14:55:16.000Z</time>
      </trkpt>
      <trkpt lat="43.21748" lon="5.38211">
        <ele>183.8</ele>
        <time>2019-01-18T14:55:27.000Z</time>
      </trkpt>
      <trkpt lat="43.21759" lon="5.38193">
        <ele>180</ele>
        <time>2019-01-18T14:55:36.000Z</time>
      </trkpt>
      <trkpt lat="43.21768" lon="5.38171">
        <ele>176.4</ele>
        <time>2019-01-18T14:55:45.000Z</time>
      </trkpt>
      <trkpt lat="43.21767" lon="5.38142">
        <ele>174.8</ele>
        <time>2019-01-18T14:55:52.000Z</time>
      </trkpt>
      <trkpt lat="43.21769" lon="5.38135">
        <ele>175.2</ele>
        <time>2019-01-18T14:55:55.000Z</time>
      </trkpt>
      <trkpt lat="43.21778" lon="5.38113">
        <ele>176.8</ele>
        <time>2019-01-18T14:56:05.000Z</time>
      </trkpt>
      <trkpt lat="43.21793" lon="5.38118">
        <ele>178</ele>
        <time>2019-01-18T14:56:12.000Z</time>
      </trkpt>
      <trkpt lat="43.21797" lon="5.38125">
        <ele>178</ele>
        <time>2019-01-18T14:56:16.000Z</time>
      </trkpt>
      <trkpt lat="43.21808" lon="5.38135">
        <ele>174.4</ele>
        <time>2019-01-18T14:56:27.000Z</time>
      </trkpt>
      <trkpt lat="43.21822" lon="5.38113">
        <ele>158.6</ele>
        <time>2019-01-18T14:56:44.000Z</time>
      </trkpt>
      <trkpt lat="43.21823" lon="5.38112">
        <ele>157.4</ele>
        <time>2019-01-18T14:56:45.000Z</time>
      </trkpt>
      <trkpt lat="43.21834" lon="5.38078">
        <ele>143.8</ele>
        <time>2019-01-18T14:57:01.000Z</time>
      </trkpt>
      <trkpt lat="43.21835" lon="5.38062">
        <ele>139.6</ele>
        <time>2019-01-18T14:57:10.000Z</time>
      </trkpt>
      <trkpt lat="43.21836" lon="5.3806">
        <ele>139</ele>
        <time>2019-01-18T14:57:12.000Z</time>
      </trkpt>
      <trkpt lat="43.21838" lon="5.38044">
        <ele>134.4</ele>
        <time>2019-01-18T14:57:22.000Z</time>
      </trkpt>
      <trkpt lat="43.21842" lon="5.38046">
        <ele>134.2</ele>
        <time>2019-01-18T14:57:24.000Z</time>
      </trkpt>
      <trkpt lat="43.21861" lon="5.38043">
        <ele>131</ele>
        <time>2019-01-18T14:57:32.000Z</time>
      </trkpt>
      <trkpt lat="43.21879" lon="5.38036">
        <ele>132.6</ele>
        <time>2019-01-18T14:57:40.000Z</time>
      </trkpt>
      <trkpt lat="43.219" lon="5.38037">
        <ele>134</ele>
        <time>2019-01-18T14:57:48.000Z</time>
      </trkpt>
      <trkpt lat="43.21901" lon="5.38034">
        <ele>134.6</ele>
        <time>2019-01-18T14:57:49.000Z</time>
      </trkpt>
      <trkpt lat="43.21905" lon="5.3803">
        <ele>135.2</ele>
        <time>2019-01-18T14:57:51.000Z</time>
      </trkpt>
      <trkpt lat="43.21909" lon="5.38028">
        <ele>134.2</ele>
        <time>2019-01-18T14:57:53.000Z</time>
      </trkpt>
      <trkpt lat="43.21914" lon="5.38027">
        <ele>133.8</ele>
        <time>2019-01-18T14:57:55.000Z</time>
      </trkpt>
      <trkpt lat="43.21919" lon="5.38024">
        <ele>133.8</ele>
        <time>2019-01-18T14:57:57.000Z</time>
      </trkpt>
      <trkpt lat="43.21933" lon="5.38007">
        <ele>130.2</ele>
        <time>2019-01-18T14:58:06.000Z</time>
      </trkpt>
      <trkpt lat="43.21935" lon="5.37998">
        <ele>128.2</ele>
        <time>2019-01-18T14:58:10.000Z</time>
      </trkpt>
      <trkpt lat="43.21934" lon="5.37973">
        <ele>122.8</ele>
        <time>2019-01-18T14:58:20.000Z</time>
      </trkpt>
      <trkpt lat="43.21944" lon="5.3795">
        <ele>121.6</ele>
        <time>2019-01-18T14:58:30.000Z</time>
      </trkpt>
      <trkpt lat="43.21954" lon="5.3793">
        <ele>124.2</ele>
        <time>2019-01-18T14:58:38.000Z</time>
      </trkpt>
      <trkpt lat="43.21957" lon="5.37925">
        <ele>121</ele>
        <time>2019-01-18T14:58:42.000Z</time>
      </trkpt>
      <trkpt lat="43.21955" lon="5.37898">
        <ele>111.8</ele>
        <time>2019-01-18T14:58:53.000Z</time>
      </trkpt>
      <trkpt lat="43.2195" lon="5.37892">
        <ele>114.8</ele>
        <time>2019-01-18T14:58:58.000Z</time>
      </trkpt>
      <trkpt lat="43.21949" lon="5.37892">
        <ele>116</ele>
        <time>2019-01-18T14:59:00.000Z</time>
      </trkpt>
      <trkpt lat="43.21956" lon="5.37901">
        <ele>117.6</ele>
        <time>2019-01-18T15:00:15.000Z</time>
      </trkpt>
      <trkpt lat="43.21967" lon="5.37908">
        <ele>118.4</ele>
        <time>2019-01-18T15:00:23.000Z</time>
      </trkpt>
      <trkpt lat="43.21986" lon="5.37908">
        <ele>127.6</ele>
        <time>2019-01-18T15:00:37.000Z</time>
      </trkpt>
      <trkpt lat="43.2199" lon="5.37906">
        <ele>131.4</ele>
        <time>2019-01-18T15:00:42.000Z</time>
      </trkpt>
      <trkpt lat="43.21995" lon="5.37906">
        <ele>134</ele>
        <time>2019-01-18T15:00:49.000Z</time>
      </trkpt>
      <trkpt lat="43.22013" lon="5.37914">
        <ele>138</ele>
        <time>2019-01-18T15:01:02.000Z</time>
      </trkpt>
      <trkpt lat="43.22019" lon="5.37916">
        <ele>138.6</ele>
        <time>2019-01-18T15:01:06.000Z</time>
      </trkpt>
      <trkpt lat="43.22033" lon="5.37921">
        <ele>142</ele>
        <time>2019-01-18T15:01:17.000Z</time>
      </trkpt>
      <trkpt lat="43.2204" lon="5.37912">
        <ele>147</ele>
        <time>2019-01-18T15:01:29.000Z</time>
      </trkpt>
      <trkpt lat="43.22045" lon="5.37905">
        <ele>150.4</ele>
        <time>2019-01-18T15:01:37.000Z</time>
      </trkpt>
      <trkpt lat="43.22044" lon="5.37903">
        <ele>151.4</ele>
        <time>2019-01-18T15:01:39.000Z</time>
      </trkpt>
      <trkpt lat="43.22043" lon="5.37899">
        <ele>154.6</ele>
        <time>2019-01-18T15:01:43.000Z</time>
      </trkpt>
      <trkpt lat="43.22039" lon="5.3788">
        <ele>165.4</ele>
        <time>2019-01-18T15:02:00.000Z</time>
      </trkpt>
      <trkpt lat="43.22042" lon="5.37874">
        <ele>168.6</ele>
        <time>2019-01-18T15:02:07.000Z</time>
      </trkpt>
      <trkpt lat="43.22047" lon="5.37872">
        <ele>168.8</ele>
        <time>2019-01-18T15:02:12.000Z</time>
      </trkpt>
      <trkpt lat="43.22054" lon="5.37883">
        <ele>166.4</ele>
        <time>2019-01-18T15:02:25.000Z</time>
      </trkpt>
      <trkpt lat="43.22054" lon="5.3788">
        <ele>162</ele>
        <time>2019-01-18T15:02:28.000Z</time>
      </trkpt>
      <trkpt lat="43.22059" lon="5.37868">
        <ele>162.4</ele>
        <time>2019-01-18T15:02:36.000Z</time>
      </trkpt>
      <trkpt lat="43.22063" lon="5.37849">
        <ele>167.2</ele>
        <time>2019-01-18T15:02:49.000Z</time>
      </trkpt>
      <trkpt lat="43.22063" lon="5.37847">
        <ele>167.8</ele>
        <time>2019-01-18T15:02:51.000Z</time>
      </trkpt>
      <trkpt lat="43.22074" lon="5.37834">
        <ele>172.8</ele>
        <time>2019-01-18T15:03:12.000Z</time>
      </trkpt>
      <trkpt lat="43.2209" lon="5.37822">
        <ele>183</ele>
        <time>2019-01-18T15:03:26.000Z</time>
      </trkpt>
      <trkpt lat="43.22107" lon="5.37817">
        <ele>192.2</ele>
        <time>2019-01-18T15:03:42.000Z</time>
      </trkpt>
      <trkpt lat="43.22126" lon="5.37825">
        <ele>198</ele>
        <time>2019-01-18T15:03:54.000Z</time>
      </trkpt>
      <trkpt lat="43.22142" lon="5.37819">
        <ele>196.2</ele>
        <time>2019-01-18T15:04:11.000Z</time>
      </trkpt>
      <trkpt lat="43.22159" lon="5.37809">
        <ele>196.8</ele>
        <time>2019-01-18T15:04:24.000Z</time>
      </trkpt>
      <trkpt lat="43.22175" lon="5.37798">
        <ele>201</ele>
        <time>2019-01-18T15:04:36.000Z</time>
      </trkpt>
      <trkpt lat="43.22191" lon="5.37784">
        <ele>206.8</ele>
        <time>2019-01-18T15:04:48.000Z</time>
      </trkpt>
      <trkpt lat="43.22199" lon="5.37768">
        <ele>215.6</ele>
        <time>2019-01-18T15:04:58.000Z</time>
      </trkpt>
      <trkpt lat="43.22197" lon="5.37742">
        <ele>218.4</ele>
        <time>2019-01-18T15:05:09.000Z</time>
      </trkpt>
      <trkpt lat="43.22203" lon="5.37716">
        <ele>218.4</ele>
        <time>2019-01-18T15:05:20.000Z</time>
      </trkpt>
      <trkpt lat="43.22212" lon="5.37702">
        <ele>220.8</ele>
        <time>2019-01-18T15:05:30.000Z</time>
      </trkpt>
      <trkpt lat="43.22216" lon="5.37677">
        <ele>217.8</ele>
        <time>2019-01-18T15:05:43.000Z</time>
      </trkpt>
      <trkpt lat="43.22217" lon="5.3766">
        <ele>218</ele>
        <time>2019-01-18T15:05:54.000Z</time>
      </trkpt>
      <trkpt lat="43.22216" lon="5.3765">
        <ele>216.4</ele>
        <time>2019-01-18T15:06:01.000Z</time>
      </trkpt>
      <trkpt lat="43.22215" lon="5.37646">
        <ele>216.8</ele>
        <time>2019-01-18T15:06:05.000Z</time>
      </trkpt>
      <trkpt lat="43.22213" lon="5.37637">
        <ele>222</ele>
        <time>2019-01-18T15:06:16.000Z</time>
      </trkpt>
      <trkpt lat="43.22212" lon="5.37634">
        <ele>221.8</ele>
        <time>2019-01-18T15:06:18.000Z</time>
      </trkpt>
      <trkpt lat="43.22214" lon="5.37633">
        <ele>225.6</ele>
        <time>2019-01-18T15:06:21.000Z</time>
      </trkpt>
      <trkpt lat="43.2222" lon="5.37633">
        <ele>230.6</ele>
        <time>2019-01-18T15:06:26.000Z</time>
      </trkpt>
      <trkpt lat="43.22233" lon="5.37652">
        <ele>232</ele>
        <time>2019-01-18T15:06:40.000Z</time>
      </trkpt>
      <trkpt lat="43.22247" lon="5.37648">
        <ele>230.6</ele>
        <time>2019-01-18T15:07:00.000Z</time>
      </trkpt>
      <trkpt lat="43.22249" lon="5.37642">
        <ele>230.2</ele>
        <time>2019-01-18T15:07:06.000Z</time>
      </trkpt>
      <trkpt lat="43.22254" lon="5.37638">
        <ele>229.2</ele>
        <time>2019-01-18T15:07:13.000Z</time>
      </trkpt>
      <trkpt lat="43.22256" lon="5.37638">
        <ele>229.4</ele>
        <time>2019-01-18T15:07:15.000Z</time>
      </trkpt>
      <trkpt lat="43.22258" lon="5.37641">
        <ele>231</ele>
        <time>2019-01-18T15:07:18.000Z</time>
      </trkpt>
      <trkpt lat="43.22261" lon="5.37646">
        <ele>234.6</ele>
        <time>2019-01-18T15:07:23.000Z</time>
      </trkpt>
      <trkpt lat="43.22263" lon="5.3765">
        <ele>236.4</ele>
        <time>2019-01-18T15:07:27.000Z</time>
      </trkpt>
      <trkpt lat="43.22263" lon="5.37655">
        <ele>234.6</ele>
        <time>2019-01-18T15:07:32.000Z</time>
      </trkpt>
      <trkpt lat="43.22272" lon="5.37677">
        <ele>237.6</ele>
        <time>2019-01-18T15:07:47.000Z</time>
      </trkpt>
      <trkpt lat="43.22274" lon="5.37681">
        <ele>239</ele>
        <time>2019-01-18T15:07:50.000Z</time>
      </trkpt>
      <trkpt lat="43.22276" lon="5.37692">
        <ele>244</ele>
        <time>2019-01-18T15:07:57.000Z</time>
      </trkpt>
      <trkpt lat="43.22274" lon="5.37696">
        <ele>245.8</ele>
        <time>2019-01-18T15:08:00.000Z</time>
      </trkpt>
      <trkpt lat="43.22282" lon="5.37715">
        <ele>252.6</ele>
        <time>2019-01-18T15:08:27.000Z</time>
      </trkpt>
      <trkpt lat="43.22296" lon="5.37733">
        <ele>254.4</ele>
        <time>2019-01-18T15:08:38.000Z</time>
      </trkpt>
      <trkpt lat="43.22309" lon="5.3775">
        <ele>258.2</ele>
        <time>2019-01-18T15:08:48.000Z</time>
      </trkpt>
      <trkpt lat="43.22315" lon="5.37764">
        <ele>260.8</ele>
        <time>2019-01-18T15:08:55.000Z</time>
      </trkpt>
      <trkpt lat="43.22325" lon="5.37786">
        <ele>263.4</ele>
        <time>2019-01-18T15:09:07.000Z</time>
      </trkpt>
      <trkpt lat="43.22325" lon="5.37788">
        <ele>264</ele>
        <time>2019-01-18T15:09:08.000Z</time>
      </trkpt>
      <trkpt lat="43.22326" lon="5.37792">
        <ele>264.2</ele>
        <time>2019-01-18T15:09:11.000Z</time>
      </trkpt>
      <trkpt lat="43.22329" lon="5.37806">
        <ele>269.4</ele>
        <time>2019-01-18T15:09:20.000Z</time>
      </trkpt>
      <trkpt lat="43.22328" lon="5.37809">
        <ele>270.2</ele>
        <time>2019-01-18T15:09:22.000Z</time>
      </trkpt>
      <trkpt lat="43.22326" lon="5.3783">
        <ele>271.8</ele>
        <time>2019-01-18T15:09:38.000Z</time>
      </trkpt>
      <trkpt lat="43.2233" lon="5.37836">
        <ele>269</ele>
        <time>2019-01-18T15:09:46.000Z</time>
      </trkpt>
      <trkpt lat="43.22344" lon="5.37835">
        <ele>270</ele>
        <time>2019-01-18T15:10:07.000Z</time>
      </trkpt>
      <trkpt lat="43.22344" lon="5.37835">
        <ele>270</ele>
        <time>2019-01-18T15:10:07.000Z</time>
      </trkpt>
      <trkpt lat="43.22346" lon="5.3786">
        <ele>269.4</ele>
        <time>2019-01-18T15:10:28.000Z</time>
      </trkpt>
      <trkpt lat="43.22353" lon="5.37867">
        <ele>266.8</ele>
        <time>2019-01-18T15:10:37.000Z</time>
      </trkpt>
      <trkpt lat="43.22364" lon="5.37886">
        <ele>257.4</ele>
        <time>2019-01-18T15:10:56.000Z</time>
      </trkpt>
      <trkpt lat="43.22372" lon="5.37909">
        <ele>243</ele>
        <time>2019-01-18T15:11:14.000Z</time>
      </trkpt>
      <trkpt lat="43.22373" lon="5.37909">
        <ele>242.6</ele>
        <time>2019-01-18T15:11:15.000Z</time>
      </trkpt>
      <trkpt lat="43.22377" lon="5.37902">
        <ele>240.8</ele>
        <time>2019-01-18T15:11:21.000Z</time>
      </trkpt>
      <trkpt lat="43.2238" lon="5.37901">
        <ele>239.8</ele>
        <time>2019-01-18T15:11:23.000Z</time>
      </trkpt>
      <trkpt lat="43.22384" lon="5.3791">
        <ele>238</ele>
        <time>2019-01-18T15:11:29.000Z</time>
      </trkpt>
      <trkpt lat="43.22396" lon="5.37891">
        <ele>234</ele>
        <time>2019-01-18T15:11:39.000Z</time>
      </trkpt>
      <trkpt lat="43.22401" lon="5.37867">
        <ele>230.6</ele>
        <time>2019-01-18T15:11:48.000Z</time>
      </trkpt>
      <trkpt lat="43.22402" lon="5.37854">
        <ele>230.2</ele>
        <time>2019-01-18T15:11:52.000Z</time>
      </trkpt>
      <trkpt lat="43.22402" lon="5.37854">
        <ele>230.2</ele>
        <time>2019-01-18T15:11:52.000Z</time>
      </trkpt>
      <trkpt lat="43.22401" lon="5.37851">
        <ele>229.6</ele>
        <time>2019-01-18T15:11:56.000Z</time>
      </trkpt>
      <trkpt lat="43.22418" lon="5.37863">
        <ele>232.8</ele>
        <time>2019-01-18T15:12:15.000Z</time>
      </trkpt>
      <trkpt lat="43.22431" lon="5.37885">
        <ele>223.6</ele>
        <time>2019-01-18T15:12:23.000Z</time>
      </trkpt>
      <trkpt lat="43.22444" lon="5.37902">
        <ele>221.4</ele>
        <time>2019-01-18T15:12:30.000Z</time>
      </trkpt>
      <trkpt lat="43.22456" lon="5.37923">
        <ele>220</ele>
        <time>2019-01-18T15:12:38.000Z</time>
      </trkpt>
      <trkpt lat="43.22474" lon="5.37933">
        <ele>220.4</ele>
        <time>2019-01-18T15:12:45.000Z</time>
      </trkpt>
      <trkpt lat="43.22484" lon="5.37941">
        <ele>221.2</ele>
        <time>2019-01-18T15:12:50.000Z</time>
      </trkpt>
      <trkpt lat="43.22501" lon="5.37931">
        <ele>219.2</ele>
        <time>2019-01-18T15:12:57.000Z</time>
      </trkpt>
      <trkpt lat="43.22515" lon="5.37915">
        <ele>216.2</ele>
        <time>2019-01-18T15:13:05.000Z</time>
      </trkpt>
      <trkpt lat="43.22534" lon="5.37915">
        <ele>222.8</ele>
        <time>2019-01-18T15:13:21.000Z</time>
      </trkpt>
      <trkpt lat="43.22552" lon="5.37918">
        <ele>229.2</ele>
        <time>2019-01-18T15:13:35.000Z</time>
      </trkpt>
      <trkpt lat="43.22558" lon="5.3792">
        <ele>231</ele>
        <time>2019-01-18T15:13:40.000Z</time>
      </trkpt>
      <trkpt lat="43.22573" lon="5.37925">
        <ele>234.4</ele>
        <time>2019-01-18T15:13:52.000Z</time>
      </trkpt>
      <trkpt lat="43.22581" lon="5.37935">
        <ele>234.6</ele>
        <time>2019-01-18T15:14:01.000Z</time>
      </trkpt>
      <trkpt lat="43.22588" lon="5.37944">
        <ele>233</ele>
        <time>2019-01-18T15:14:10.000Z</time>
      </trkpt>
      <trkpt lat="43.22595" lon="5.37967">
        <ele>236.6</ele>
        <time>2019-01-18T15:14:22.000Z</time>
      </trkpt>
      <trkpt lat="43.22601" lon="5.37991">
        <ele>237.8</ele>
        <time>2019-01-18T15:14:31.000Z</time>
      </trkpt>
      <trkpt lat="43.22602" lon="5.37993">
        <ele>238.2</ele>
        <time>2019-01-18T15:14:32.000Z</time>
      </trkpt>
      <trkpt lat="43.22604" lon="5.37994">
        <ele>238.6</ele>
        <time>2019-01-18T15:14:34.000Z</time>
      </trkpt>
      <trkpt lat="43.22622" lon="5.37998">
        <ele>240.4</ele>
        <time>2019-01-18T15:14:49.000Z</time>
      </trkpt>
      <trkpt lat="43.2263" lon="5.3802">
        <ele>239.8</ele>
        <time>2019-01-18T15:14:59.000Z</time>
      </trkpt>
      <trkpt lat="43.22632" lon="5.3803">
        <ele>239.6</ele>
        <time>2019-01-18T15:15:03.000Z</time>
      </trkpt>
      <trkpt lat="43.22634" lon="5.38055">
        <ele>238</ele>
        <time>2019-01-18T15:15:12.000Z</time>
      </trkpt>
      <trkpt lat="43.22642" lon="5.38078">
        <ele>237.6</ele>
        <time>2019-01-18T15:15:21.000Z</time>
      </trkpt>
      <trkpt lat="43.22647" lon="5.38103">
        <ele>240</ele>
        <time>2019-01-18T15:15:31.000Z</time>
      </trkpt>
      <trkpt lat="43.22654" lon="5.38127">
        <ele>243.6</ele>
        <time>2019-01-18T15:15:41.000Z</time>
      </trkpt>
      <trkpt lat="43.22659" lon="5.38138">
        <ele>247.4</ele>
        <time>2019-01-18T15:15:48.000Z</time>
      </trkpt>
      <trkpt lat="43.22675" lon="5.38151">
        <ele>250.2</ele>
        <time>2019-01-18T15:15:57.000Z</time>
      </trkpt>
      <trkpt lat="43.2269" lon="5.38164">
        <ele>250</ele>
        <time>2019-01-18T15:16:04.000Z</time>
      </trkpt>
      <trkpt lat="43.22703" lon="5.38182">
        <ele>243.4</ele>
        <time>2019-01-18T15:16:13.000Z</time>
      </trkpt>
      <trkpt lat="43.22721" lon="5.38194">
        <ele>241</ele>
        <time>2019-01-18T15:16:21.000Z</time>
      </trkpt>
      <trkpt lat="43.22739" lon="5.38199">
        <ele>242</ele>
        <time>2019-01-18T15:16:31.000Z</time>
      </trkpt>
      <trkpt lat="43.22742" lon="5.38198">
        <ele>242</ele>
        <time>2019-01-18T15:16:33.000Z</time>
      </trkpt>
      <trkpt lat="43.22761" lon="5.38192">
        <ele>245.8</ele>
        <time>2019-01-18T15:16:42.000Z</time>
      </trkpt>
      <trkpt lat="43.22779" lon="5.38185">
        <ele>247.8</ele>
        <time>2019-01-18T15:16:51.000Z</time>
      </trkpt>
      <trkpt lat="43.22798" lon="5.38181">
        <ele>253.8</ele>
        <time>2019-01-18T15:17:02.000Z</time>
      </trkpt>
      <trkpt lat="43.22817" lon="5.38186">
        <ele>254.8</ele>
        <time>2019-01-18T15:17:13.000Z</time>
      </trkpt>
      <trkpt lat="43.22818" lon="5.38189">
        <ele>255.2</ele>
        <time>2019-01-18T15:17:15.000Z</time>
      </trkpt>
      <trkpt lat="43.22819" lon="5.38191">
        <ele>256</ele>
        <time>2019-01-18T15:17:17.000Z</time>
      </trkpt>
      <trkpt lat="43.22834" lon="5.38206">
        <ele>257.6</ele>
        <time>2019-01-18T15:17:27.000Z</time>
      </trkpt>
      <trkpt lat="43.22843" lon="5.38214">
        <ele>259.6</ele>
        <time>2019-01-18T15:17:35.000Z</time>
      </trkpt>
      <trkpt lat="43.22848" lon="5.38215">
        <ele>259.2</ele>
        <time>2019-01-18T15:17:39.000Z</time>
      </trkpt>
      <trkpt lat="43.22867" lon="5.38214">
        <ele>250.8</ele>
        <time>2019-01-18T15:17:51.000Z</time>
      </trkpt>
      <trkpt lat="43.22885" lon="5.38219">
        <ele>248</ele>
        <time>2019-01-18T15:17:59.000Z</time>
      </trkpt>
      <trkpt lat="43.22901" lon="5.38226">
        <ele>246.4</ele>
        <time>2019-01-18T15:18:07.000Z</time>
      </trkpt>
      <trkpt lat="43.22913" lon="5.38225">
        <ele>241.6</ele>
        <time>2019-01-18T15:18:16.000Z</time>
      </trkpt>
      <trkpt lat="43.22917" lon="5.38224">
        <ele>241.2</ele>
        <time>2019-01-18T15:18:18.000Z</time>
      </trkpt>
      <trkpt lat="43.22924" lon="5.38214">
        <ele>240.4</ele>
        <time>2019-01-18T15:18:27.000Z</time>
      </trkpt>
      <trkpt lat="43.22939" lon="5.38229">
        <ele>229.4</ele>
        <time>2019-01-18T15:18:51.000Z</time>
      </trkpt>
      <trkpt lat="43.2294" lon="5.38241">
        <ele>225.6</ele>
        <time>2019-01-18T15:19:09.000Z</time>
      </trkpt>
      <trkpt lat="43.22957" lon="5.38249">
        <ele>219.2</ele>
        <time>2019-01-18T15:19:26.000Z</time>
      </trkpt>
      <trkpt lat="43.22966" lon="5.38261">
        <ele>217.8</ele>
        <time>2019-01-18T15:19:34.000Z</time>
      </trkpt>
      <trkpt lat="43.22979" lon="5.38282">
        <ele>215.6</ele>
        <time>2019-01-18T15:19:42.000Z</time>
      </trkpt>
      <trkpt lat="43.22984" lon="5.38284">
        <ele>216.2</ele>
        <time>2019-01-18T15:19:44.000Z</time>
      </trkpt>
      <trkpt lat="43.22992" lon="5.38285">
        <ele>216</ele>
        <time>2019-01-18T15:19:49.000Z</time>
      </trkpt>
      <trkpt lat="43.22994" lon="5.38288">
        <ele>214.8</ele>
        <time>2019-01-18T15:19:51.000Z</time>
      </trkpt>
      <trkpt lat="43.23004" lon="5.38312">
        <ele>210.2</ele>
        <time>2019-01-18T15:19:59.000Z</time>
      </trkpt>
      <trkpt lat="43.23009" lon="5.38337">
        <ele>209.6</ele>
        <time>2019-01-18T15:20:06.000Z</time>
      </trkpt>
      <trkpt lat="43.23015" lon="5.38363">
        <ele>210.2</ele>
        <time>2019-01-18T15:20:14.000Z</time>
      </trkpt>
      <trkpt lat="43.23016" lon="5.38375">
        <ele>209.6</ele>
        <time>2019-01-18T15:20:19.000Z</time>
      </trkpt>
      <trkpt lat="43.23014" lon="5.38387">
        <ele>208.6</ele>
        <time>2019-01-18T15:20:23.000Z</time>
      </trkpt>
      <trkpt lat="43.23016" lon="5.38393">
        <ele>208.6</ele>
        <time>2019-01-18T15:20:26.000Z</time>
      </trkpt>
      <trkpt lat="43.23022" lon="5.38417">
        <ele>208.8</ele>
        <time>2019-01-18T15:20:35.000Z</time>
      </trkpt>
      <trkpt lat="43.23031" lon="5.38438">
        <ele>209.6</ele>
        <time>2019-01-18T15:20:43.000Z</time>
      </trkpt>
      <trkpt lat="43.2304" lon="5.38462">
        <ele>207.4</ele>
        <time>2019-01-18T15:20:52.000Z</time>
      </trkpt>
      <trkpt lat="43.23045" lon="5.38486">
        <ele>205</ele>
        <time>2019-01-18T15:21:00.000Z</time>
      </trkpt>
      <trkpt lat="43.23046" lon="5.38512">
        <ele>207.6</ele>
        <time>2019-01-18T15:21:08.000Z</time>
      </trkpt>
      <trkpt lat="43.23048" lon="5.38534">
        <ele>208</ele>
        <time>2019-01-18T15:21:17.000Z</time>
      </trkpt>
      <trkpt lat="43.23044" lon="5.38539">
        <ele>207</ele>
        <time>2019-01-18T15:21:20.000Z</time>
      </trkpt>
      <trkpt lat="43.23049" lon="5.38552">
        <ele>207.4</ele>
        <time>2019-01-18T15:21:27.000Z</time>
      </trkpt>
      <trkpt lat="43.23053" lon="5.38561">
        <ele>207.4</ele>
        <time>2019-01-18T15:21:34.000Z</time>
      </trkpt>
      <trkpt lat="43.23062" lon="5.38569">
        <ele>205.4</ele>
        <time>2019-01-18T15:21:43.000Z</time>
      </trkpt>
      <trkpt lat="43.23065" lon="5.38577">
        <ele>202.6</ele>
        <time>2019-01-18T15:21:49.000Z</time>
      </trkpt>
      <trkpt lat="43.23065" lon="5.38578">
        <ele>201.8</ele>
        <time>2019-01-18T15:21:51.000Z</time>
      </trkpt>
      <trkpt lat="43.23077" lon="5.38592">
        <ele>194.2</ele>
        <time>2019-01-18T15:22:13.000Z</time>
      </trkpt>
      <trkpt lat="43.23095" lon="5.38591">
        <ele>190.8</ele>
        <time>2019-01-18T15:22:29.000Z</time>
      </trkpt>
      <trkpt lat="43.23099" lon="5.38593">
        <ele>189.4</ele>
        <time>2019-01-18T15:22:35.000Z</time>
      </trkpt>
      <trkpt lat="43.23106" lon="5.38605">
        <ele>179.6</ele>
        <time>2019-01-18T15:23:05.000Z</time>
      </trkpt>
      <trkpt lat="43.23125" lon="5.38612">
        <ele>178</ele>
        <time>2019-01-18T15:23:18.000Z</time>
      </trkpt>
      <trkpt lat="43.23143" lon="5.38616">
        <ele>174.2</ele>
        <time>2019-01-18T15:23:27.000Z</time>
      </trkpt>
      <trkpt lat="43.23161" lon="5.38624">
        <ele>167.2</ele>
        <time>2019-01-18T15:23:39.000Z</time>
      </trkpt>
      <trkpt lat="43.23162" lon="5.38624">
        <ele>167.2</ele>
        <time>2019-01-18T15:23:40.000Z</time>
      </trkpt>
      <trkpt lat="43.23165" lon="5.38625">
        <ele>165.8</ele>
        <time>2019-01-18T15:23:42.000Z</time>
      </trkpt>
      <trkpt lat="43.23181" lon="5.38639">
        <ele>161.4</ele>
        <time>2019-01-18T15:23:52.000Z</time>
      </trkpt>
      <trkpt lat="43.23195" lon="5.38655">
        <ele>157</ele>
        <time>2019-01-18T15:23:59.000Z</time>
      </trkpt>
      <trkpt lat="43.23204" lon="5.38678">
        <ele>155</ele>
        <time>2019-01-18T15:24:07.000Z</time>
      </trkpt>
      <trkpt lat="43.23208" lon="5.38689">
        <ele>153.4</ele>
        <time>2019-01-18T15:24:14.000Z</time>
      </trkpt>
      <trkpt lat="43.23215" lon="5.38706">
        <ele>152.2</ele>
        <time>2019-01-18T15:24:24.000Z</time>
      </trkpt>
      <trkpt lat="43.23222" lon="5.38702">
        <ele>155</ele>
        <time>2019-01-18T15:24:30.000Z</time>
      </trkpt>
      <trkpt lat="43.23227" lon="5.3871">
        <ele>157.8</ele>
        <time>2019-01-18T15:24:37.000Z</time>
      </trkpt>
      <trkpt lat="43.2324" lon="5.38724">
        <ele>167.2</ele>
        <time>2019-01-18T15:25:08.000Z</time>
      </trkpt>
      <trkpt lat="43.2325" lon="5.38741">
        <ele>169.4</ele>
        <time>2019-01-18T15:25:25.000Z</time>
      </trkpt>
      <trkpt lat="43.23256" lon="5.38745">
        <ele>170</ele>
        <time>2019-01-18T15:25:34.000Z</time>
      </trkpt>
      <trkpt lat="43.23271" lon="5.38757">
        <ele>175</ele>
        <time>2019-01-18T15:26:04.000Z</time>
      </trkpt>
      <trkpt lat="43.23273" lon="5.38753">
        <ele>175.8</ele>
        <time>2019-01-18T15:26:08.000Z</time>
      </trkpt>
      <trkpt lat="43.23272" lon="5.3877">
        <ele>176</ele>
        <time>2019-01-18T15:26:45.000Z</time>
      </trkpt>
      <trkpt lat="43.23277" lon="5.38794">
        <ele>174</ele>
        <time>2019-01-18T15:26:53.000Z</time>
      </trkpt>
      <trkpt lat="43.23278" lon="5.38819">
        <ele>170.2</ele>
        <time>2019-01-18T15:27:05.000Z</time>
      </trkpt>
      <trkpt lat="43.23279" lon="5.38823">
        <ele>169.2</ele>
        <time>2019-01-18T15:27:07.000Z</time>
      </trkpt>
      <trkpt lat="43.23279" lon="5.38825">
        <ele>167.8</ele>
        <time>2019-01-18T15:27:09.000Z</time>
      </trkpt>
      <trkpt lat="43.23281" lon="5.38851">
        <ele>158.6</ele>
        <time>2019-01-18T15:27:24.000Z</time>
      </trkpt>
      <trkpt lat="43.23282" lon="5.38867">
        <ele>155.4</ele>
        <time>2019-01-18T15:27:31.000Z</time>
      </trkpt>
      <trkpt lat="43.23289" lon="5.3889">
        <ele>152</ele>
        <time>2019-01-18T15:27:41.000Z</time>
      </trkpt>
      <trkpt lat="43.23295" lon="5.38914">
        <ele>144.4</ele>
        <time>2019-01-18T15:27:56.000Z</time>
      </trkpt>
      <trkpt lat="43.23297" lon="5.38937">
        <ele>140.8</ele>
        <time>2019-01-18T15:28:09.000Z</time>
      </trkpt>
      <trkpt lat="43.23301" lon="5.38962">
        <ele>134</ele>
        <time>2019-01-18T15:28:23.000Z</time>
      </trkpt>
      <trkpt lat="43.23302" lon="5.38979">
        <ele>129.2</ele>
        <time>2019-01-18T15:28:32.000Z</time>
      </trkpt>
      <trkpt lat="43.23298" lon="5.39004">
        <ele>128.8</ele>
        <time>2019-01-18T15:28:41.000Z</time>
      </trkpt>
      <trkpt lat="43.23294" lon="5.39019">
        <ele>128.6</ele>
        <time>2019-01-18T15:28:47.000Z</time>
      </trkpt>
      <trkpt lat="43.23305" lon="5.39039">
        <ele>124.8</ele>
        <time>2019-01-18T15:29:00.000Z</time>
      </trkpt>
      <trkpt lat="43.23308" lon="5.39039">
        <ele>124</ele>
        <time>2019-01-18T15:29:03.000Z</time>
      </trkpt>
      <trkpt lat="43.23327" lon="5.39045">
        <ele>113.8</ele>
        <time>2019-01-18T15:29:18.000Z</time>
      </trkpt>
      <trkpt lat="43.23344" lon="5.39051">
        <ele>111.2</ele>
        <time>2019-01-18T15:29:26.000Z</time>
      </trkpt>
      <trkpt lat="43.23361" lon="5.3906">
        <ele>109.4</ele>
        <time>2019-01-18T15:29:34.000Z</time>
      </trkpt>
      <trkpt lat="43.23378" lon="5.39076">
        <ele>107.8</ele>
        <time>2019-01-18T15:29:43.000Z</time>
      </trkpt>
      <trkpt lat="43.23389" lon="5.39096">
        <ele>106.6</ele>
        <time>2019-01-18T15:29:53.000Z</time>
      </trkpt>
      <trkpt lat="43.23405" lon="5.39112">
        <ele>105.2</ele>
        <time>2019-01-18T15:30:02.000Z</time>
      </trkpt>
      <trkpt lat="43.23407" lon="5.39115">
        <ele>103.8</ele>
        <time>2019-01-18T15:30:05.000Z</time>
      </trkpt>
      <trkpt lat="43.23415" lon="5.3912">
        <ele>102</ele>
        <time>2019-01-18T15:30:11.000Z</time>
      </trkpt>
      <trkpt lat="43.23421" lon="5.39128">
        <ele>99</ele>
        <time>2019-01-18T15:30:18.000Z</time>
      </trkpt>
      <trkpt lat="43.23432" lon="5.39149">
        <ele>97.4</ele>
        <time>2019-01-18T15:30:27.000Z</time>
      </trkpt>
      <trkpt lat="43.2344" lon="5.3917">
        <ele>97.4</ele>
        <time>2019-01-18T15:30:34.000Z</time>
      </trkpt>
      <trkpt lat="43.23451" lon="5.3919">
        <ele>96</ele>
        <time>2019-01-18T15:30:41.000Z</time>
      </trkpt>
      <trkpt lat="43.23467" lon="5.39204">
        <ele>93.8</ele>
        <time>2019-01-18T15:30:50.000Z</time>
      </trkpt>
      <trkpt lat="43.23485" lon="5.39218">
        <ele>91.4</ele>
        <time>2019-01-18T15:30:57.000Z</time>
      </trkpt>
      <trkpt lat="43.23499" lon="5.39236">
        <ele>89.2</ele>
        <time>2019-01-18T15:31:04.000Z</time>
      </trkpt>
      <trkpt lat="43.23518" lon="5.3924">
        <ele>87.4</ele>
        <time>2019-01-18T15:31:12.000Z</time>
      </trkpt>
      <trkpt lat="43.23537" lon="5.39251">
        <ele>84.2</ele>
        <time>2019-01-18T15:31:20.000Z</time>
      </trkpt>
      <trkpt lat="43.23554" lon="5.39259">
        <ele>83.6</ele>
        <time>2019-01-18T15:31:27.000Z</time>
      </trkpt>
      <trkpt lat="43.23572" lon="5.39254">
        <ele>82.8</ele>
        <time>2019-01-18T15:31:34.000Z</time>
      </trkpt>
      <trkpt lat="43.23589" lon="5.39247">
        <ele>81.8</ele>
        <time>2019-01-18T15:31:41.000Z</time>
      </trkpt>
      <trkpt lat="43.23591" lon="5.39247">
        <ele>82</ele>
        <time>2019-01-18T15:31:42.000Z</time>
      </trkpt>
    </trkseg>
  </trk>
</gpx>